[[{"header":{"parameterUnit":"m.s-1","parameterCategory":1,"la1":31.0,"la2":29.5877,"lo1":-88.7671,"lo2":-86.6584,"dx":0.0162,"dy":0.0185,"nx":115,"ny":88,"refTime":"2023-01-03T06:00:00:Z","depth":0,"parameterNumber":2,"parameterNumberName":"U-component_of_WINDS"},"data":[0.0,0.0,0.0,0.0,0.0,0.0,0.0,0.0,0.0,0.0,0.0,0.0,0.0,0.0,0.0,0.0,0.0,0.0,0.0,0.0,0.0,0.0,0.0,0.0,0.0,0.0,0.0,0.0,0.0,0.0,0.0,0.0,0.0,0.0,0.0,0.0,0.0,0.0,0.0,0.0,0.0,0.0,0.0,0.0,0.0,0.0,0.0,0.0,0.0,0.0,0.0,0.0,0.0,0.0,0.0,0.0,0.0,0.0,0.0,0.0,0.0,0.0,0.0,0.0,0.0,0.0,0.0,0.0,0.0,0.0,0.0,0.0,0.0,0.0,0.0,0.0,0.0,0.0,0.0,0.0,0.0,0.0,0.0,0.0,0.0,0.0,0.0,0.0,0.0,0.0,0.0,0.0,0.0,0.0,0.0,0.0,0.0,0.0,0.0,0.0,0.0,0.0,0.0,0.0,0.0,0.0,0.0,0.0,0.0,0.0,0.0,0.0,0.0,0.0,0.0,0.0,0.0,0.0,0.0,0.0,0.0,0.0,0.0,0.0,0.0,0.0,0.0,0.0,0.0,0.0,0.0,0.0,0.0,0.0,0.0,0.0,0.0,0.0,0.0,0.0,0.0,0.0,0.0,0.0,0.0,0.0,0.0,0.0,0.0,0.0,0.0,0.0,0.0,0.0,0.0,0.0,0.0,0.0,0.0,0.0,0.0,0.0,0.0,0.0,0.0,0.0,0.0,0.0,0.0,0.0,0.0,0.0,0.0,0.0,0.0,0.0,0.0,0.0,0.0,0.0,0.0,0.0,0.0,0.0,0.0,0.0,0.0,0.0,0.0,0.0,0.0,0.0,0.0,0.0,0.0,0.0,0.0,0.0,0.0,0.0,0.0,0.0,0.0,0.0,0.0,0.0,0.0,0.0,0.0,0.0,0.0,0.0,0.0,0.0,0.0,0.0,0.0,0.0,0.0,0.0,0.0,0.0,0.0,0.0,0.0,0.0,0.0,0.0,0.0,0.0,0.0,0.0,0.0,0.0,0.0,0.0,0.0,0.0,0.0,0.0,0.0,0.0,0.0,0.0,0.0,0.0,0.0,0.0,0.0,0.0,0.0,0.0,0.0,0.0,0.0,0.0,0.0,0.0,0.0,0.0,0.0,0.0,0.0,0.0,0.0,0.0,0.0,0.0,0.0,0.0,0.0,0.0,0.0,0.0,0.0,0.0,0.0,0.0,0.0,0.0,0.0,0.0,0.0,0.0,0.0,0.0,0.0,0.0,0.0,0.0,0.0,0.0,0.0,0.0,0.0,0.0,0.0,0.0,0.0,0.0,0.0,0.0,0.0,0.0,0.0,0.0,0.0,0.0,0.0,0.0,0.0,0.0,0.0,0.0,0.0,0.0,0.0,0.0,0.0,0.0,0.0,0.0,0.0,0.0,0.0,0.0,0.0,0.0,0.0,0.0,0.0,0.0,0.0,0.0,0.0,0.0,0.0,0.0,0.0,0.0,0.0,0.0,0.0,0.0,0.0,0.0,0.0,0.0,0.0,0.0,0.0,0.0,0.0,0.0,0.0,0.0,0.0,0.0,0.0,0.0,0.0,0.0,0.0,0.0,0.0,0.0,0.0,0.0,0.0,0.0,0.0,0.0,0.0,0.0,0.0,0.0,0.0,0.0,0.0,0.0,0.0,0.0,0.0,0.0,0.0,0.0,0.0,0.0,0.0,0.0,0.0,0.0,0.0,0.0,0.0,0.0,0.0,0.0,0.0,0.0,0.0,0.0,0.0,0.0,0.0,0.0,0.0,0.0,0.0,0.0,0.0,0.0,0.0,0.0,0.0,0.0,0.0,0.0,0.0,0.0,0.0,0.0,0.0,0.0,0.0,0.0,0.0,0.0,0.0,0.0,0.0,0.0,0.0,0.0,0.0,0.0,0.0,0.0,0.0,0.0,0.0,0.0,0.0,0.0,0.0,0.0,0.0,0.0,0.0,0.0,0.0,0.0,0.0,0.0,0.0,0.0,0.0,0.0,0.0,0.0,0.0,0.0,0.0,0.0,0.0,0.0,0.0,0.0,0.0,0.0,0.0,0.0,0.0,0.0,0.0,0.0,0.0,0.0,0.0,0.0,0.0,0.0,0.0,0.0,0.0,0.0,0.0,0.0,0.0,0.0,0.0,0.0,0.0,0.0,0.0,0.0,0.0,0.0,0.0,0.0,0.0,0.0,0.0,0.0,0.0,0.0,0.0,0.0,0.0,0.0,0.0,0.0,0.0,0.0,0.0,0.0,0.0,0.0,0.0,0.0,0.0,0.0,0.0,0.0,0.0,0.0,0.0,0.0,0.0,0.0,0.0,0.0,0.0,0.0,0.0,0.0,0.0,0.0,0.0,0.0,0.0,0.0,0.0,0.0,0.0,0.0,0.0,0.0,0.0,0.0,0.0,0.0,0.0,0.0,0.0,0.0,0.0,0.0,0.0,0.0,0.0,0.0,0.0,0.0,0.0,0.0,0.0,0.0,0.0,0.0,0.0,0.0,0.0,0.0,0.0,0.0,0.0,0.0,0.0,0.0,0.0,0.0,0.0,0.0,0.0,0.0,0.0,0.0,0.0,0.0,0.0,0.0,0.0,0.0,0.0,0.0,0.0,0.0,0.0,0.0,0.0,0.0,0.0,0.0,0.0,0.0,0.0,0.0,0.0,0.0,0.0,0.0,0.0,0.0,0.0,0.0,0.0,0.0,0.0,0.0,0.0,0.0,0.0,0.0,0.0,0.0,0.0,0.0,0.0,0.0,0.0,0.0,0.0,0.0,0.0,0.0,0.0,0.0,0.0,0.0,0.0,0.0,0.0,0.0,0.0,0.0,0.0,0.0,0.0,0.0,0.0,0.0,0.0,0.0,0.0,0.0,0.0,0.0,0.0,0.0,0.0,0.0,0.0,0.0,0.0,0.0,0.0,0.0,0.0,0.0,0.0,0.0,0.0,0.0,0.0,0.0,0.0,0.0,0.0,0.0,0.0,0.0,0.0,0.0,0.0,0.0,0.0,0.0,0.0,0.0,0.0,0.0,0.0,0.0,0.0,0.0,0.0,0.0,0.0,0.0,0.0,0.0,0.0,0.0,0.0,0.0,0.0,0.0,0.0,0.0,0.0,0.0,0.0,0.0,0.0,0.0,0.0,0.0,0.0,0.0,0.0,0.0,0.0,0.0,0.0,0.0,0.0,0.0,0.0,0.0,0.0,0.0,0.0,0.0,0.0,0.0,0.0,0.0,0.0,0.0,0.0,0.0,0.0,0.0,0.0,0.0,0.0,0.0,0.0,0.0,0.0,0.0,0.0,0.0,0.0,0.0,0.0,0.0,0.0,0.0,0.0,0.0,0.0,0.0,0.0,0.0,0.0,0.0,0.0,0.0,0.0,0.0,0.0,0.0,0.0,0.0,0.0,0.0,0.0,0.0,0.0,0.0,0.0,0.0,0.0,0.0,0.0,0.0,0.0,0.0,0.0,0.0,0.0,0.0,0.0,0.0,0.0,0.0,0.0,0.0,0.0,0.0,0.0,0.0,0.0,0.0,0.0,0.0,0.0,0.0,0.0,0.0,0.0,0.0,0.0,0.0,0.0,0.0,0.0,0.0,0.0,0.0,0.0,0.0,0.0,0.0,0.0,0.0,0.0,0.0,0.0,0.0,0.0,0.0,0.0,0.0,0.0,0.0,0.0,0.0,0.0,0.0,0.0,0.0,0.0,0.0,0.0,0.0,0.0,0.0,0.0,0.0,0.0,0.0,0.0,0.0,0.0,0.0,0.0,0.0,0.0,0.0,0.0,0.0,0.0,0.0,0.0,0.0,0.0,0.0,0.0,0.0,0.0,0.0,0.0,0.0,0.0,0.0,0.0,0.0,0.0,0.0,0.0,0.0,0.0,0.0,0.0,0.0,0.0,0.0,0.0,0.0,0.0,0.0,0.0,0.0,0.0,0.0,0.0,0.0,0.0,0.0,0.0,0.0,0.0,0.0,0.0,0.0,0.0,0.0,0.0,0.0,0.0,0.0,0.0,0.0,0.0,0.0,0.0,0.0,0.0,0.0,0.0,0.0,0.0,0.0,0.0,0.0,0.0,0.0,0.0,0.0,0.0,0.0,0.0,0.0,0.0,0.0,0.0,0.0,0.0,0.0,0.0,0.0,0.0,0.0,0.0,0.0,0.0,0.0,0.0,0.0,0.0,0.0,0.0,0.0,0.0,0.0,0.0,0.0,0.0,0.0,1.1944,0.0,0.0,0.0,1.1352,0.0,0.0,0.0,0.0,0.0,0.0,0.0,0.0,0.0,0.0,0.0,0.0,0.0,0.0,0.0,0.0,0.0,0.0,0.0,0.0,0.0,0.0,0.0,0.0,0.0,0.0,0.0,0.0,0.0,0.0,0.0,0.0,0.0,0.0,0.0,0.0,0.0,0.0,0.0,0.0,0.0,0.0,0.0,0.0,0.0,0.0,0.0,0.0,0.0,0.0,0.0,0.0,0.0,0.0,0.0,0.0,0.0,0.0,0.0,0.0,0.0,0.0,0.0,0.0,0.0,0.0,0.0,0.0,0.0,0.0,0.0,0.0,0.0,0.0,0.0,0.0,0.0,0.0,0.0,0.0,0.0,0.0,0.0,0.0,0.0,0.0,0.0,0.0,0.0,0.0,0.0,0.0,0.0,0.0,0.0,0.0,0.0,0.0,0.0,0.0,0.0,0.0,0.0,0.0,0.0,0.0,0.0,0.0,0.0,0.0,1.2067,1.2067,1.2017,1.1804,1.1309,0.0,0.0,0.0,0.0,0.0,0.0,0.0,0.0,0.0,0.0,0.0,0.0,0.0,0.0,0.0,0.0,0.0,0.0,0.0,0.0,0.0,0.0,0.0,0.0,0.0,0.0,0.0,0.0,0.0,0.0,0.0,0.0,0.0,0.0,0.0,0.0,0.0,0.0,0.0,0.0,0.0,0.0,0.0,0.0,0.0,0.0,0.0,0.0,0.0,0.0,0.0,0.0,0.0,0.0,0.0,0.0,0.0,0.0,0.0,0.0,0.0,0.0,0.0,0.0,0.0,0.0,0.0,0.0,0.0,0.0,0.0,0.0,0.0,0.0,0.0,0.0,0.0,0.0,0.0,0.0,0.0,0.0,0.0,0.0,0.0,0.0,0.0,0.0,0.0,0.0,0.0,0.0,0.0,0.0,0.0,0.0,0.0,0.0,0.0,0.0,0.0,0.0,0.0,0.0,0.0,0.0,0.0,0.0,0.0,0.0,0.0,0.0,1.2116,1.1932,1.1517,0.0,0.0,0.0,0.0,0.0,0.0,0.0,0.0,0.0,0.0,0.0,0.0,0.0,0.0,0.0,0.0,0.0,0.0,0.0,0.0,0.0,0.0,0.0,0.0,0.0,0.0,0.0,0.0,0.0,0.0,0.0,0.0,0.0,0.0,0.0,0.0,0.0,0.0,0.0,0.0,0.0,0.0,0.0,0.0,0.0,0.0,0.0,0.0,0.0,0.0,0.0,0.0,0.0,0.0,0.0,0.0,0.0,0.0,0.0,0.0,0.0,0.0,0.0,0.0,0.0,0.0,0.0,0.0,0.0,0.0,0.0,0.0,0.0,0.0,0.0,0.0,0.0,0.0,0.0,0.0,0.0,0.0,0.0,0.0,0.0,0.0,0.0,0.0,0.0,0.0,0.0,0.0,0.0,0.0,0.0,0.0,0.0,0.0,0.0,0.0,0.0,0.0,0.0,0.0,0.0,0.0,0.0,0.0,0.0,0.0,1.2215,1.2135,1.2234,0.0,1.1959,0.0,0.0,0.0,0.0,0.0,0.0,0.0,0.0,0.0,0.0,0.0,0.0,0.0,0.0,0.0,0.0,0.0,0.0,0.0,0.0,0.0,0.0,0.0,0.0,0.0,0.0,0.0,0.0,0.0,0.0,0.0,0.0,0.0,0.0,0.0,0.0,0.0,0.0,0.0,0.0,0.0,0.0,0.0,0.0,0.0,0.0,0.0,0.0,0.0,0.0,0.0,0.0,0.0,0.0,0.0,0.0,0.0,0.0,0.0,0.0,0.0,0.0,0.0,0.0,0.0,0.0,0.0,0.0,0.0,0.0,0.0,0.0,0.0,0.0,0.0,0.0,0.0,0.0,0.0,0.0,0.0,0.0,0.0,0.0,0.0,0.0,0.0,0.0,0.0,0.0,0.0,0.0,0.0,0.0,0.0,0.0,0.0,0.0,0.0,0.0,0.0,0.0,0.0,0.0,0.0,0.0,0.0,0.0,0.0,0.0,1.2382,1.2314,1.2382,1.2272,0.0,0.0,0.0,0.0,0.0,0.0,0.0,0.0,0.0,0.0,0.0,0.0,0.0,0.0,0.0,0.0,0.0,0.0,0.0,0.0,0.0,0.0,0.0,0.0,0.0,0.0,0.0,0.0,0.0,0.0,0.0,0.0,0.0,0.0,0.0,0.0,0.0,0.0,0.0,0.0,0.0,0.0,0.0,0.0,0.0,0.0,0.0,0.0,0.0,0.0,0.0,0.0,0.0,0.0,0.0,0.0,0.0,0.0,0.0,0.0,0.0,0.0,0.0,0.0,0.0,0.0,0.0,0.0,0.0,0.0,0.0,0.0,0.0,0.0,0.0,0.0,0.0,0.0,0.0,0.0,0.0,0.0,0.0,0.0,0.0,0.0,0.0,0.0,0.0,0.0,0.0,0.0,0.0,0.0,0.0,0.0,0.0,0.0,0.0,0.0,0.0,0.0,0.0,0.0,0.0,0.0,0.0,0.0,0.0,0.0,1.2643,1.27,1.275,1.27,1.2493,1.1933,0.0,0.0,0.0,0.0,0.0,0.0,0.0,0.0,0.0,0.0,0.0,0.0,0.0,0.0,0.0,0.0,0.0,0.0,0.0,0.0,0.0,0.0,0.0,0.0,0.0,0.0,0.0,0.0,0.0,0.0,0.0,0.0,0.0,0.0,0.0,0.0,0.0,0.0,0.0,0.0,0.0,0.0,0.0,0.0,0.0,0.0,0.0,0.0,0.0,0.0,0.0,0.0,0.0,0.0,0.0,0.0,0.0,0.0,0.0,0.0,0.0,0.0,0.0,0.0,0.0,0.0,0.0,0.0,0.0,0.0,0.0,0.0,0.0,0.0,0.0,0.0,0.0,0.0,0.0,0.0,0.0,0.0,0.0,0.0,0.0,0.0,0.0,0.0,0.0,0.0,0.0,0.0,0.0,0.0,0.0,0.0,0.0,0.0,0.0,0.0,0.0,0.0,0.0,0.0,0.0,0.0,0.0,0.0,1.2695,1.3061,1.3272,1.3272,1.3253,1.2744,0.0,0.0,0.0,0.0,0.0,0.0,0.0,0.0,0.0,0.0,0.0,0.0,0.0,0.0,0.0,0.0,0.0,0.0,0.0,0.0,0.0,0.0,0.0,0.0,0.0,0.0,0.0,0.0,0.0,0.0,0.0,0.0,0.0,0.0,0.0,0.0,0.0,0.0,0.0,0.0,0.0,0.0,0.0,0.0,0.0,0.0,0.0,0.0,0.0,0.0,0.0,0.0,0.0,0.0,0.0,0.0,0.0,0.0,0.0,0.0,0.0,0.0,0.0,0.0,0.0,0.0,0.0,0.0,0.0,0.0,0.0,0.0,0.0,0.0,0.0,0.0,0.0,0.0,0.0,0.0,0.0,0.0,0.0,0.0,0.0,0.0,0.0,0.0,0.0,0.0,0.0,0.0,0.0,0.0,0.0,0.0,0.0,0.0,0.0,0.0,0.0,0.0,0.0,0.0,0.0,0.0,0.0,0.0,0.0,1.3231,1.3588,1.3801,1.3801,1.3549,1.2978,0.0,0.0,0.0,0.0,0.0,0.0,0.0,0.0,0.0,0.0,0.0,0.0,0.0,0.0,0.0,0.0,0.0,0.0,0.0,0.0,0.0,0.0,0.0,0.0,0.0,0.0,0.0,0.0,0.0,0.0,0.0,0.0,0.0,0.0,0.0,0.0,0.0,0.0,0.0,0.0,0.0,0.0,0.0,0.0,0.0,0.0,0.0,0.0,0.0,0.0,0.0,0.0,0.0,0.0,0.0,0.0,0.0,0.0,0.0,0.0,0.0,0.0,0.0,0.0,0.0,0.0,0.0,0.0,0.0,0.0,0.0,0.0,0.0,0.0,0.0,0.0,0.0,0.0,0.0,0.0,0.0,0.0,0.0,0.0,0.0,0.0,0.0,0.0,0.0,0.0,0.0,0.0,0.0,0.0,0.0,0.0,0.0,0.0,0.0,0.0,0.0,0.0,0.0,0.0,0.0,0.0,0.0,0.0,0.0,1.3906,1.4199,1.4336,1.4336,1.3945,1.332,0.0,0.0,0.0,0.0,0.0,0.0,0.0,0.0,0.0,0.0,0.0,0.0,0.0,0.0,0.0,0.0,0.0,0.0,0.0,0.0,0.0,0.0,0.0,0.0,0.0,0.0,0.0,0.0,0.0,0.0,0.0,0.0,0.0,0.0,0.0,0.0,0.0,0.0,0.0,0.0,0.0,0.0,0.0,0.0,0.0,0.0,0.0,0.0,0.0,0.0,0.0,0.0,0.0,0.0,0.0,0.0,0.0,0.0,0.0,0.0,0.0,0.0,0.0,0.0,0.0,0.0,0.0,0.0,0.0,0.0,0.0,0.0,0.0,0.0,0.0,0.0,0.0,0.0,0.0,0.0,0.0,0.0,0.0,0.0,0.0,0.0,0.0,0.0,0.0,0.0,0.0,0.0,0.0,0.0,0.0,0.0,0.0,0.0,0.0,0.0,0.0,0.0,0.0,0.0,0.0,0.0,0.0,0.0,1.3965,1.4746,1.4805,1.4863,1.4805,1.4394,1.3769,0.0,0.0,0.0,0.0,0.0,0.0,0.0,0.0,0.0,0.0,0.0,0.0,0.0,0.0,0.0,0.0,0.0,0.0,0.0,0.0,0.0,0.0,0.0,0.0,0.0,0.0,0.0,0.0,0.0,0.0,0.0,0.0,0.0,0.0,0.0,0.0,0.0,0.0,0.0,0.0,0.0,0.0,0.0,0.0,0.0,0.0,0.0,0.0,0.0,0.0,0.0,0.0,0.0,0.0,0.0,0.0,0.0,0.0,0.0,0.0,0.0,0.0,0.0,0.0,0.0,0.0,0.0,0.0,0.0,0.0,0.0,0.0,0.0,0.0,0.0,0.0,0.0,0.0,0.0,0.0,0.0,0.0,0.0,0.0,0.0,0.0,0.0,0.0,0.0,0.0,0.0,0.0,0.0,0.0,0.0,0.0,0.0,0.0,0.0,0.0,0.0,0.0,0.0,0.0,0.0,0.0,0.0,0.0,0.0,1.5215,1.582,1.6133,1.6113,1.541,1.4609,0.0,0.0,0.0,0.0,0.0,0.0,0.0,0.0,0.0,0.0,0.0,0.0,0.0,0.0,0.0,0.0,0.0,0.0,0.0,0.0,0.0,0.0,0.0,0.0,0.0,0.0,0.0,0.0,0.0,0.0,0.0,0.0,0.0,0.0,0.0,0.0,0.0,0.0,0.0,0.0,0.0,0.0,0.0,0.0,0.0,0.0,0.0,0.0,0.0,0.0,0.0,0.0,0.0,0.0,0.0,0.0,0.0,0.0,0.0,0.0,0.0,0.0,0.0,0.0,0.0,0.0,0.0,0.0,0.0,0.0,0.0,0.0,0.0,0.0,0.0,0.0,0.0,0.0,0.0,0.0,0.0,0.0,0.0,0.0,0.0,0.0,0.0,0.0,0.0,0.0,0.0,0.0,0.0,0.0,0.0,0.0,0.0,0.0,0.0,0.0,0.0,0.0,0.0,0.0,0.0,0.0,0.0,0.0,0.0,1.6621,1.7148,1.7363,1.7207,1.6367,1.5508,1.4629,0.0,0.0,0.0,0.0,0.0,0.0,0.0,0.0,0.0,0.0,0.0,0.0,0.0,0.0,0.0,0.0,0.0,0.0,0.0,0.0,0.0,0.0,0.0,0.0,0.0,0.0,0.0,0.0,0.0,0.0,0.0,0.0,0.0,0.0,0.0,0.0,0.0,0.0,0.0,0.0,0.0,0.0,0.0,0.0,0.0,0.0,0.0,0.0,0.0,0.0,0.0,0.0,0.0,0.0,0.0,0.0,0.0,0.0,0.0,0.0,0.0,0.0,0.0,0.0,0.0,0.0,0.0,0.0,0.0,0.0,0.0,0.0,0.0,0.0,0.0,0.0,0.0,0.0,0.0,0.0,0.0,0.0,0.0,0.0,0.0,0.0,0.0,0.0,0.0,0.0,0.0,0.0,0.0,0.0,0.0,0.0,0.0,0.0,0.0,0.0,0.0,0.0,0.0,0.0,0.0,0.0,0.0,0.0,1.8699,1.8828,1.8652,1.8164,1.7305,1.6426,0.0,0.0,0.0,0.0,0.0,0.0,0.0,0.0,0.0,0.0,0.0,0.0,0.0,0.0,0.0,0.0,0.0,0.0,0.0,0.0,0.0,0.0,0.0,0.0,0.0,0.0,0.0,0.0,0.0,0.0,0.0,0.0,0.0,0.0,0.0,0.0,0.0,0.0,0.0,0.0,0.0,0.0,0.0,0.0,0.0,0.0,0.0,0.0,0.0,0.0,0.0,0.0,0.0,0.0,0.0,0.0,0.0,0.0,0.0,0.0,0.0,0.0,0.0,0.0,0.0,0.0,0.0,0.0,0.0,0.0,0.0,0.0,0.0,0.0,0.0,0.0,0.0,0.0,0.0,0.0,0.0,0.0,0.0,0.0,0.0,0.0,0.0,0.0,0.0,0.0,0.0,0.0,0.0,0.0,0.0,0.0,0.0,0.0,0.0,0.0,0.0,0.0,0.0,0.0,0.0,0.0,0.0,0.0,0.0,2.0508,2.1172,2.0996,1.9922,1.875,1.7734,0.0,0.0,0.0,0.0,0.0,0.0,0.0,0.0,0.0,0.0,0.0,0.0,0.0,0.0,0.0,0.0,0.0,0.0,0.0,0.0,0.0,0.0,0.0,0.0,0.0,0.0,0.0,0.0,0.0,0.0,0.0,0.0,0.0,0.0,0.0,0.0,0.0,0.0,0.0,0.0,0.0,0.0,0.0,0.0,0.0,0.0,0.0,0.0,0.0,0.0,0.0,0.0,0.0,0.0,0.0,0.0,0.0,0.0,0.0,0.0,0.0,0.0,0.0,0.0,0.0,0.0,0.0,0.0,0.0,0.0,0.0,0.0,0.0,0.0,0.0,0.0,0.0,0.0,0.0,0.0,0.0,0.0,0.0,0.0,0.0,0.0,0.0,0.0,0.0,0.0,0.0,0.0,0.0,0.0,0.0,0.0,0.0,0.0,0.0,0.0,0.0,0.0,0.0,0.0,0.0,0.0,0.0,0.0,2.0098,2.1211,2.2246,2.2422,2.166,2.0215,1.8887,0.0,0.0,0.0,0.0,0.0,0.0,0.0,0.0,0.0,0.0,0.0,0.0,0.0,0.0,0.0,0.0,0.0,0.0,0.0,0.0,0.0,0.0,0.0,0.0,0.0,0.0,0.0,0.0,0.0,0.0,0.0,0.0,0.0,0.0,0.0,0.0,0.0,0.0,0.0,0.0,0.0,0.0,0.0,0.0,0.0,0.0,0.0,0.0,0.0,0.0,0.0,0.0,0.0,0.0,0.0,0.0,0.0,0.0,0.0,0.0,0.0,0.0,0.0,0.0,0.0,0.0,0.0,0.0,0.0,0.0,0.0,0.0,0.0,0.0,0.0,0.0,0.0,0.0,0.0,0.0,0.0,0.0,0.0,0.0,0.0,0.0,0.0,0.0,0.0,0.0,0.0,0.0,0.0,0.0,0.0,0.0,0.0,0.0,0.0,0.0,0.0,0.0,0.0,0.0,0.0,0.0,0.0,0.0,2.0469,2.1426,2.2473,2.3164,2.3164,2.1543,1.9883,0.0,0.0,0.0,0.0,0.0,0.0,0.0,0.0,0.0,0.0,0.0,0.0,0.0,0.0,0.0,0.0,0.0,0.0,0.0,0.0,0.0,0.0,0.0,0.0,0.0,0.0,0.0,0.0,0.0,0.0,0.0,0.0,0.0,0.0,0.0,0.0,0.0,0.0,0.0,0.0,0.0,0.0,0.0,0.0,0.0,0.0,0.0,0.0,0.0,0.0,0.0,0.0,0.0,0.0,0.0,0.0,0.0,0.0,0.0,0.0,0.0,0.0,0.0,0.0,0.0,0.0,0.0,0.0,0.0,0.0,0.0,0.0,0.0,0.0,0.0,0.0,0.0,0.0,0.0,0.0,0.0,0.0,0.0,0.0,0.0,0.0,0.0,0.0,0.0,0.0,0.0,0.0,0.0,0.0,0.0,0.0,0.0,0.0,0.0,0.0,0.0,0.0,0.0,0.0,0.0,0.0,0.0,0.0,2.1172,2.2695,2.3008,2.3301,2.3633,2.1992,2.0605,0.0,0.0,0.0,0.0,0.0,0.0,0.0,0.0,0.0,0.0,0.0,0.0,0.0,0.0,0.0,0.0,0.0,0.0,0.0,0.0,0.0,0.0,0.0,0.0,0.0,0.0,0.0,0.0,0.0,0.0,0.0,0.0,0.0,0.0,0.0,0.0,0.0,0.0,0.0,0.0,0.0,0.0,0.0,0.0,0.0,0.0,0.0,0.0,1.6376,0.0,0.0,0.0,0.0,0.0,0.0,0.0,0.0,0.0,0.0,0.0,0.0,0.0,0.0,0.0,0.0,0.0,0.0,0.0,0.0,0.0,0.0,0.0,0.0,0.0,0.0,0.0,0.0,0.0,0.0,0.0,0.0,0.0,0.0,0.0,0.0,0.0,0.0,0.0,0.0,0.0,0.0,0.0,0.0,0.0,0.0,0.0,0.0,0.0,0.0,0.0,0.0,0.0,0.0,0.0,0.0,0.0,0.0,0.0,2.1816,2.3018,2.3535,2.3848,2.4043,2.3008,2.1641,0.0,0.0,0.0,0.0,0.0,0.0,0.0,0.0,0.0,0.0,0.0,0.0,0.0,0.0,0.0,0.0,0.0,0.0,0.0,0.0,0.0,0.0,0.0,0.0,0.0,0.0,0.0,0.0,0.0,0.0,0.0,0.0,0.0,0.0,0.0,0.0,0.0,0.0,0.0,0.0,0.0,0.0,0.0,0.0,0.0,0.0,0.0,0.0,0.0,0.0,0.0,0.0,0.0,0.0,0.0,0.0,0.0,0.0,0.0,0.0,0.0,0.0,0.0,0.0,0.0,0.0,0.0,0.0,0.0,0.0,0.0,0.0,0.0,0.0,0.0,0.0,0.0,0.0,0.0,0.0,0.0,0.0,0.0,0.0,0.0,0.0,0.0,0.0,0.0,0.0,0.0,0.0,0.0,0.0,0.0,0.0,0.0,0.0,0.0,0.0,0.0,0.0,0.0,0.0,0.0,0.0,0.0,2.084,2.2363,2.332,2.4043,2.4453,2.4512,2.4102,2.2695,2.0215,0.0,0.0,0.0,0.0,0.0,0.0,0.0,0.0,0.0,0.0,0.0,0.0,0.0,0.0,0.0,0.0,0.0,0.0,0.0,0.0,0.0,0.0,0.0,0.0,0.0,0.0,0.0,0.0,0.0,0.0,0.0,0.0,0.0,0.0,0.0,0.0,0.0,0.0,1.4453,1.5586,0.0,0.0,0.0,0.0,0.0,0.0,0.0,0.0,1.8994,0.0,0.0,0.0,0.0,0.0,0.0,0.0,0.0,0.0,0.0,0.0,0.0,0.0,0.0,0.0,0.0,0.0,0.0,0.0,0.0,0.0,0.0,0.0,0.0,0.0,0.0,0.0,0.0,0.0,0.0,0.0,0.0,0.0,0.0,0.0,0.0,0.0,0.0,0.0,0.0,0.0,0.0,0.0,0.0,0.0,0.0,0.0,0.0,0.0,0.0,0.0,0.0,0.0,0.0,0.0,0.0,1.9687,2.1152,2.2637,2.416,2.4336,2.459,2.4922,2.4531,2.3281,2.1113,0.0,0.0,0.0,0.0,0.0,0.0,0.0,0.0,0.0,0.0,0.0,0.0,0.0,0.0,0.0,0.0,0.0,0.0,0.0,0.0,0.0,0.0,0.0,0.0,0.0,0.0,0.0,0.0,0.0,0.0,0.0,0.0,0.0,0.0,0.0,0.0,0.0,0.0,0.0,1.7109,1.7939,0.0,0.0,0.0,0.0,0.0,0.0,0.0,0.0,2.0086,0.0,0.0,0.0,0.0,0.0,0.0,0.0,0.0,0.0,0.0,0.0,0.0,0.0,0.0,0.0,0.0,0.0,0.0,0.0,0.0,0.0,0.0,0.0,0.0,0.0,0.0,0.0,0.0,0.0,0.0,0.0,0.0,0.0,0.0,0.0,0.0,0.0,0.0,0.0,0.0,0.0,0.0,0.0,0.0,0.0,0.0,0.0,0.0,0.0,0.0,0.0,0.0,0.0,0.0,0.0,2.0254,2.1973,2.3496,2.4707,2.498,2.5195,2.5391,2.457,2.3301,0.0,0.0,0.0,0.0,0.0,0.0,0.0,0.0,0.0,0.0,0.0,0.0,0.0,0.0,0.0,0.0,0.0,0.0,0.0,0.0,0.0,0.0,0.0,0.0,0.0,0.0,0.0,0.0,0.0,0.0,0.0,0.0,0.0,0.0,0.0,0.0,0.0,0.0,0.0,0.0,1.8281,1.9134,2.0384,0.0,0.0,0.0,0.0,0.0,0.0,2.153,2.1248,0.0,0.0,0.0,0.0,0.0,0.0,0.0,0.0,0.0,0.0,0.0,0.0,0.0,0.0,0.0,0.0,0.0,0.0,0.0,0.0,0.0,0.0,0.0,0.0,0.0,0.0,0.0,0.0,0.0,0.0,0.0,0.0,0.0,0.0,0.0,0.0,0.0,0.0,0.0,0.0,0.0,0.0,0.0,0.0,0.0,0.0,0.0,0.0,0.0,0.0,0.0,0.0,0.0,0.0,0.0,2.0703,2.2734,2.4199,2.5039,2.5508,2.5723,2.5703,2.4551,2.3281,0.0,0.0,0.0,0.0,0.0,0.0,0.0,0.0,0.0,0.0,0.0,0.0,0.0,0.0,0.0,0.0,0.0,0.0,0.0,0.0,0.0,0.0,0.0,0.0,0.0,0.0,0.0,0.0,0.0,0.0,0.0,0.0,0.0,0.0,0.0,0.0,0.0,0.0,0.0,0.0,0.0,2.0174,2.1784,2.1589,0.0,0.0,0.0,0.0,2.2099,2.2406,0.0,0.0,0.0,0.0,0.0,0.0,0.0,0.0,0.0,0.0,0.0,0.0,0.0,0.0,0.0,0.0,0.0,0.0,0.0,0.0,0.0,0.0,0.0,0.0,0.0,0.0,0.0,0.0,0.0,0.0,0.0,0.0,0.0,0.0,0.0,0.0,0.0,0.0,0.0,0.0,0.0,0.0,0.0,0.0,0.0,0.0,0.0,0.0,0.0,0.0,0.0,0.0,0.0,0.0,0.0,0.0,2.1152,2.2891,2.4199,2.5039,2.5508,2.5723,2.5723,2.4824,2.3574,0.0,0.0,0.0,0.0,0.0,0.0,0.0,0.0,0.0,0.0,0.0,0.0,0.0,0.0,0.0,0.0,0.0,0.0,0.0,0.0,0.0,0.0,0.0,0.0,0.0,0.0,0.0,0.0,0.0,0.0,0.0,0.0,0.0,0.0,0.0,0.0,0.0,0.0,0.0,0.0,0.0,2.084,2.1758,2.2276,2.2557,0.0,0.0,2.2616,2.2526,2.2611,0.0,0.0,0.0,0.0,0.0,0.0,0.0,0.0,0.0,0.0,0.0,0.0,0.0,0.0,0.0,0.0,0.0,0.0,0.0,0.0,0.0,0.0,0.0,0.0,0.0,0.0,0.0,0.0,0.0,0.0,0.0,0.0,0.0,0.0,0.0,0.0,0.0,0.0,0.0,0.0,0.0,0.0,0.0,0.0,0.0,0.0,0.0,0.0,0.0,0.0,0.0,0.0,0.0,0.0,0.0,2.0215,2.1953,2.3633,2.4824,2.543,2.5644,2.5723,2.5723,2.4414,2.3242,0.0,0.0,0.0,0.0,0.0,0.0,0.0,0.0,0.0,0.0,0.0,0.0,0.0,0.0,0.0,0.0,0.0,0.0,0.0,0.0,0.0,0.0,0.0,0.0,0.0,0.0,0.0,0.0,0.0,0.0,0.0,0.0,0.0,0.0,0.0,0.0,0.0,0.0,0.0,0.0,0.0,0.0,2.2441,2.3055,0.0,0.0,0.0,2.333,2.3242,0.0,0.0,0.0,0.0,0.0,0.0,0.0,0.0,0.0,0.0,0.0,0.0,0.0,0.0,0.0,0.0,0.0,0.0,0.0,0.0,0.0,0.0,0.0,0.0,0.0,0.0,0.0,0.0,0.0,0.0,0.0,0.0,0.0,0.0,0.0,0.0,0.0,0.0,0.0,0.0,0.0,0.0,0.0,0.0,0.0,0.0,0.0,0.0,0.0,0.0,0.0,0.0,0.0,0.0,0.0,0.0,0.0,2.25,2.4199,2.5293,2.5723,2.5723,2.5723,2.5703,2.4355,0.0,0.0,0.0,0.0,0.0,0.0,0.0,0.0,0.0,0.0,0.0,0.0,0.0,0.0,0.0,0.0,0.0,0.0,0.0,0.0,0.0,0.0,0.0,0.0,0.0,0.0,0.0,1.325,0.0,0.0,0.0,0.0,0.0,0.0,0.0,0.0,0.0,0.0,0.0,0.0,0.0,0.0,2.1981,2.2988,2.3613,2.3984,0.0,0.0,2.3945,2.3945,2.4401,2.4386,0.0,0.0,0.0,0.0,0.0,0.0,0.0,0.0,0.0,0.0,0.0,0.0,0.0,0.0,0.0,0.0,0.0,0.0,0.0,0.0,0.0,0.0,0.0,0.0,0.0,0.0,0.0,0.0,0.0,0.0,0.0,0.0,0.0,0.0,0.0,0.0,0.0,0.0,0.0,0.0,0.0,0.0,0.0,0.0,0.0,0.0,0.0,0.0,0.0,0.0,0.0,0.0,0.0,0.0,2.0781,2.25,2.4199,2.5293,2.5703,2.5723,2.5723,2.5723,2.5215,2.416,0.0,0.0,0.0,0.0,0.0,0.0,0.0,0.0,0.0,0.0,0.0,0.0,0.0,0.0,0.0,0.0,0.0,0.0,0.0,0.0,0.0,0.0,0.0,0.0,0.0,0.0,0.0,0.0,0.0,0.0,0.0,0.0,0.0,0.0,0.0,0.0,0.0,0.0,0.0,0.0,0.0,2.2399,2.3008,2.3848,2.4512,0.0,2.4629,2.4375,2.4375,2.4394,2.4394,2.4115,0.0,0.0,0.0,0.0,0.0,0.0,0.0,0.0,0.0,0.0,0.0,0.0,0.0,0.0,0.0,0.0,0.0,0.0,0.0,0.0,0.0,0.0,0.0,0.0,0.0,0.0,0.0,0.0,0.0,0.0,0.0,0.0,0.0,0.0,0.0,0.0,0.0,0.0,0.0,0.0,0.0,0.0,0.0,0.0,0.0,0.0,0.0,0.0,0.0,0.0,0.0,0.0,0.0,2.1445,2.2891,2.459,2.5566,2.5723,2.5723,2.5723,2.5723,2.5293,2.4512,0.0,0.0,0.0,0.0,0.0,0.0,0.0,0.0,0.0,0.0,0.0,0.0,0.0,0.0,0.0,0.0,0.0,0.0,0.0,0.0,0.0,0.0,0.0,0.0,0.0,0.0,0.0,0.0,1.957,1.9922,1.9285,0.0,0.0,0.0,0.0,0.0,0.0,0.0,0.0,0.0,0.0,2.3083,2.3769,2.4434,0.0,0.0,2.5285,2.5643,2.5272,2.6072,2.63,2.5502,2.5186,0.0,0.0,0.0,0.0,0.0,0.0,0.0,0.0,0.0,0.0,0.0,0.0,0.0,0.0,0.0,0.0,0.0,0.0,0.0,0.0,0.0,0.0,0.0,0.0,0.0,0.0,0.0,0.0,0.0,0.0,0.0,0.0,0.0,0.0,0.0,0.0,0.0,0.0,0.0,0.0,0.0,0.0,0.0,0.0,0.0,0.0,0.0,0.0,0.0,0.0,0.0,0.0,2.1914,2.332,2.5039,2.5996,2.6113,2.6113,2.6113,2.6113,2.582,2.5254,0.0,0.0,0.0,0.0,0.0,0.0,0.0,0.0,0.0,0.0,0.0,0.0,0.0,0.0,0.0,0.0,0.0,0.0,0.0,0.0,0.0,0.0,0.0,0.0,0.0,0.0,0.0,0.0,2.0781,2.0741,1.98,0.0,0.0,0.0,0.0,0.0,0.0,0.0,0.0,0.0,0.0,2.3879,2.4657,2.5169,2.5441,2.5218,2.6166,2.6744,2.639,2.7317,2.7721,2.7024,0.0,0.0,0.0,0.0,0.0,0.0,0.0,0.0,0.0,0.0,0.0,0.0,0.0,0.0,0.0,0.0,0.0,0.0,0.0,0.0,0.0,0.0,0.0,0.0,0.0,0.0,0.0,1.2102,0.0,0.0,1.0859,0.0,0.0,0.0,0.0,0.0,0.0,0.0,0.0,0.0,0.0,0.0,0.0,0.0,0.0,0.0,0.0,0.0,0.0,0.0,0.0,0.0,0.0,2.209,2.3769,2.5488,2.6562,2.6953,2.6973,2.6953,2.6953,2.6973,2.6562,2.5684,0.0,0.0,0.0,0.0,0.0,0.0,0.0,0.0,0.0,0.0,0.0,0.0,0.0,0.0,0.0,0.0,0.0,0.0,0.0,0.0,0.0,0.0,0.0,0.0,0.0,0.0,1.9394,2.0249,2.0579,0.0,0.0,0.0,0.0,0.0,0.0,0.0,0.0,0.0,2.2832,2.3998,2.4901,2.5397,2.6024,2.6572,2.6839,2.7295,2.7579,2.76,2.7904,2.8107,0.0,0.0,0.0,0.0,0.0,0.0,0.0,0.0,0.0,0.0,0.0,0.0,0.0,0.0,0.0,0.0,0.0,0.0,0.0,0.0,0.0,0.0,0.0,0.0,0.0,0.0,0.0,1.3787,1.39,0.0,0.0,0.0,0.0,0.0,0.0,0.0,0.0,0.0,0.0,0.0,2.0419,2.0652,0.0,0.0,0.0,0.0,0.0,0.0,0.0,0.0,0.0,0.0,0.0,0.0,2.3066,2.4219,2.5918,2.6875,2.7012,2.7012,2.7012,2.7012,2.7012,2.6621,2.5762,0.0,0.0,0.0,0.0,0.0,0.0,0.0,0.0,0.0,0.0,0.0,0.0,0.0,0.0,0.0,0.0,0.0,0.0,0.0,0.0,0.0,0.0,0.0,0.0,0.0,2.0448,0.0,0.0,0.0,0.0,0.0,0.0,0.0,0.0,0.0,0.0,2.1784,2.3072,2.4058,2.4595,2.5345,2.646,2.6915,2.7508,0.0,0.0,0.0,0.0,0.0,0.0,0.0,0.0,0.0,0.0,0.0,0.0,0.0,0.0,2.7255,2.4885,2.4722,2.5028,2.4955,0.0,0.0,0.0,0.0,0.0,0.0,0.0,0.0,0.0,0.0,0.0,0.0,0.0,0.0,1.6206,1.6075,1.6225,0.0,0.0,0.0,0.0,0.0,0.0,0.0,0.0,2.0323,2.1532,2.2372,2.2259,2.2334,2.256,2.2054,2.1058,0.0,0.0,0.0,0.0,0.0,0.0,0.0,0.0,2.3867,2.4883,2.6326,2.7201,2.7338,2.7253,2.7253,2.7357,2.7357,2.7207,2.6641,2.5644,2.4302,0.0,0.0,0.0,0.0,0.0,0.0,0.0,0.0,0.0,0.0,0.0,0.0,0.0,0.0,0.0,0.0,0.0,0.0,0.0,0.0,0.0,0.0,0.0,2.184,0.0,0.0,0.0,0.0,0.0,0.0,0.0,0.0,0.0,2.2147,2.3503,2.4686,2.5451,2.5784,2.6396,2.7557,0.0,0.0,0.0,0.0,0.0,0.0,0.0,3.2299,3.1622,3.1576,3.1619,3.138,3.1258,3.1205,3.1205,0.0,0.0,2.7938,2.7749,2.7985,2.7985,2.7844,2.7985,2.8857,2.8964,2.9332,0.0,0.0,0.0,0.0,1.6703,0.0,0.0,0.0,1.9388,1.8995,0.0,1.9051,0.0,0.0,0.0,0.0,1.5631,1.8138,0.0,0.0,2.3335,2.4409,2.3768,2.4088,2.4277,2.422,2.307,2.2881,2.3504,2.2592,0.0,0.0,0.0,0.0,0.0,0.0,2.4473,2.5664,2.6705,2.7429,2.7814,2.753,2.753,2.7833,2.8174,2.8262,2.8242,2.709,2.6131,2.5333,2.3163,0.0,0.0,0.0,0.0,0.0,0.0,0.0,0.0,0.0,0.0,0.0,0.0,0.0,0.0,0.0,0.0,0.0,0.0,0.0,0.0,2.2168,0.0,0.0,0.0,0.0,0.0,0.0,0.0,0.0,0.0,2.4243,2.3649,2.4916,2.6099,2.6941,0.0,0.0,0.0,0.0,2.9543,3.0666,3.1462,3.1965,3.2274,3.2957,3.3266,3.3078,0.0,0.0,3.2779,3.2178,3.1913,3.1841,3.2394,3.2261,3.1352,3.1003,3.0979,3.0979,3.0714,3.0555,3.0956,3.0992,3.1192,1.9519,0.0,0.0,0.0,0.0,1.8709,1.985,2.1563,2.1747,2.1599,2.1231,2.1636,0.0,0.0,0.0,0.0,0.0,0.0,2.0784,2.2116,2.3198,2.4141,2.4886,2.4997,2.5053,2.5034,2.4902,2.4964,2.517,2.5301,2.4393,2.2301,0.0,0.0,0.0,0.0,2.5061,2.5933,2.6864,2.7416,2.753,2.7422,2.753,2.7853,2.796,2.8067,2.796,2.7612,2.6833,2.5515,2.4699,0.0,0.0,0.0,0.0,0.0,0.0,0.0,0.0,0.0,0.0,0.0,0.0,0.0,0.0,0.0,0.0,0.0,0.0,0.0,2.1816,2.3496,2.4291,0.0,0.0,0.0,0.0,0.0,0.0,0.0,0.0,0.0,2.6207,2.6428,2.6843,0.0,0.0,2.8532,3.0011,3.0788,3.1838,3.365,3.4093,0.0,3.4799,3.5118,3.5165,3.5123,3.5418,3.5397,3.4823,3.4895,3.504,3.504,3.5184,3.5134,3.482,3.36,3.2739,3.2644,3.2787,3.3122,3.36,3.3959,3.4318,2.2116,2.1126,2.0026,1.9916,2.0503,2.0594,2.1658,2.3308,2.3565,2.3345,2.285,2.3584,2.2245,1.9439,1.9597,0.0,0.0,0.0,2.2335,2.3914,2.4053,2.4546,2.5344,2.5362,2.5454,2.5582,2.5496,2.5693,2.6069,2.6039,2.5451,2.4193,0.0,2.3994,2.4334,2.4994,2.5673,2.6333,2.6974,2.7206,2.7206,2.7206,2.7314,2.753,2.7638,2.7745,2.7745,2.7745,2.7275,2.6324,2.5939,2.5179,0.0,0.0,0.0,0.0,0.0,0.0,0.0,0.0,0.0,0.0,0.0,1.8359,1.9219,0.0,0.0,0.0,2.2129,2.2793,2.416,2.5234,0.0,0.0,0.0,0.0,0.0,0.0,0.0,2.63,2.6904,2.7416,2.8009,2.7878,2.7878,2.8192,2.9042,3.0078,3.1379,0.0,3.3912,3.5468,3.5957,3.6308,3.6725,3.6996,3.714,3.714,3.7052,3.694,3.6627,3.6819,3.7012,3.7036,3.7036,3.7036,3.7036,3.5978,3.4992,3.4631,3.4751,3.5088,3.54,3.5713,3.6026,2.4244,2.4024,2.1456,2.1218,2.2465,2.2171,2.3107,2.4849,2.4904,2.4482,2.384,2.4959,2.3804,2.1016,2.0757,0.0,2.3121,2.3372,2.4236,2.5417,2.5417,2.5436,2.5472,2.5472,2.5656,2.5986,2.5271,2.5509,2.6499,2.5472,2.5289,2.6092,2.6057,2.5975,2.5597,2.5937,2.6352,2.6748,2.691,2.7008,2.7027,2.7045,2.7064,2.7101,2.73,2.7427,2.7427,2.7427,2.7427,2.7389,2.7008,2.6461,2.5925,0.0,0.0,0.0,0.0,0.0,0.0,0.0,0.0,0.0,0.0,0.0,0.0,0.0,0.0,0.0,2.5,0.0,2.6914,2.709,0.0,0.0,0.0,2.6309,2.6483,2.6883,2.7482,2.8301,0.0,0.0,2.9213,2.9113,2.9153,2.9689,3.0956,3.2166,3.2922,3.4504,3.5787,3.6744,3.7418,3.7917,3.8251,3.8719,3.8984,3.8984,3.8575,3.831,3.8262,3.8286,3.8262,3.8214,3.819,3.8166,3.8118,3.8022,3.7805,3.6819,3.6627,3.6603,3.6651,3.6723,3.6819,2.5087,2.5032,2.4354,2.4134,2.4207,2.4427,2.4959,2.5693,2.6023,2.5876,2.5436,2.6023,2.5876,2.5142,2.5142,2.5179,2.5252,2.5344,2.5546,2.5821,2.5821,2.5986,2.6298,2.6298,2.6353,2.6426,2.6243,2.6298,2.6573,2.6298,2.6243,2.6426,2.6442,2.631,2.5903,2.5977,2.6236,2.6643,2.6645,2.6829,2.7124,2.7142,2.7401,2.7921,2.7921,2.8052,2.8052,2.8052,2.794,2.7697,2.7753,2.7266,2.6218,2.5614,0.0,0.0,0.0,0.0,0.0,0.0,0.0,0.0,0.0,2.2402,2.3574,0.0,2.5391,0.0,2.7344,2.7734,2.666,2.7695,0.0,0.0,2.7663,2.7663,2.7452,2.8081,2.8506,2.8702,2.9015,2.9309,2.9505,2.9687,3.0591,3.2354,3.2637,3.3615,3.6251,3.7349,3.8413,3.9433,4.0033,4.0314,4.0379,4.0523,4.0595,4.0619,4.0499,4.0427,4.0427,4.0427,4.0282,3.9922,3.9826,3.9681,3.932,3.9224,3.9176,3.8864,3.8527,3.8238,3.8238,3.8551,3.8839,2.5362,2.5362,2.5362,2.5344,2.5307,2.5362,2.5491,2.5711,2.5949,2.5913,2.5711,2.5949,2.6151,2.6316,2.6298,2.6279,2.6243,2.6243,2.6243,2.6243,2.6243,2.6371,2.6591,2.6591,2.6591,2.6591,2.6591,2.6591,2.6591,2.6591,2.6683,2.6848,2.6848,2.6811,2.6756,2.6408,2.6444,2.6848,2.7013,2.7215,2.7416,2.7435,2.7658,2.7992,2.7992,2.7992,2.7992,2.7992,2.7992,2.7992,2.8106,2.7828,2.706,2.6674,2.5657,0.0,0.0,0.0,0.0,0.0,0.0,0.0,0.0,0.0,0.0,0.0,2.707,2.7559,2.8574,2.875,2.7617,2.8535,2.9023,2.8555,2.8887,2.9043,2.8809,2.9394,2.9805,2.9805,3.0019,3.0384,3.093,3.1425,3.2683,3.5439,3.5883,3.6521,3.8229,3.9565,4.0516,4.1181,4.1609,4.1894,4.187,4.1894,4.1894,4.1894,4.1894,4.1894,4.1894,4.187,4.1774,4.1509,4.1461,4.1365,4.1052,4.1004,4.1004,4.098,4.0787,4.0234,3.9369,3.9585,3.9946,2.5527,2.5527,2.5527,2.5729,2.6004,2.5674,2.5527,2.5527,2.5527,2.5527,2.5527,2.5527,2.5711,2.6041,2.6096,2.6279,2.6591,2.6646,2.6646,2.6591,2.6591,2.6591,2.6591,2.6591,2.6591,2.6591,2.6646,2.6664,2.6664,2.6719,2.6921,2.7233,2.7251,2.7416,2.7728,2.7086,2.6903,2.7251,2.7581,2.7801,2.7838,2.7856,2.7875,2.7911,2.793,2.793,2.7911,2.7911,2.8026,2.8273,2.8273,2.8182,2.8106,2.7587,2.6845,0.0,2.545,0.0,0.0,0.0,0.0,0.0,0.0,0.0,0.0,2.7988,2.8457,2.8457,2.9238,2.9551,2.9121,2.9531,2.9805,2.9746,3.0059,3.0312,3.0371,3.0723,3.0996,3.1035,3.1055,3.1503,3.2642,3.3203,3.4795,3.7995,3.8964,3.9403,4.0127,4.1306,4.2182,4.2254,4.2663,4.2976,4.2976,4.2952,4.2976,4.2976,4.2952,4.2952,4.2952,4.2976,4.2928,4.2832,4.2784,4.276,4.2784,4.2687,4.2687,4.2591,4.2543,4.2014,4.0619,4.0475,4.0691,2.6353,2.6353,2.6353,2.6408,2.6463,2.6389,2.6353,2.6353,2.6353,2.6353,2.6371,2.6353,2.6389,2.6499,2.6811,2.6811,2.6609,2.6921,2.6885,2.6591,2.6591,2.6591,2.6591,2.6591,2.6591,2.6609,2.6903,2.7068,2.7068,2.7398,2.7581,2.7655,2.7655,2.7691,2.7746,0.0,0.0,0.0,2.7728,2.793,2.826,2.8278,2.8425,2.8737,2.8755,0.0,2.8755,2.8755,2.8755,2.8873,2.8873,0.0,0.0,0.0,0.0,0.0,0.0,0.0,0.0,0.0,0.0,0.0,2.8359,2.8769,2.8594,2.9043,2.9336,2.9355,3.0137,3.0449,3.0019,3.0684,3.1016,3.0684,3.0723,3.0898,3.1211,3.1348,3.1523,3.1875,3.1914,3.2375,3.3623,3.3962,3.5553,3.9163,4.0029,4.0991,4.3017,4.324,4.3385,4.3794,4.389,4.401,4.4058,4.401,4.3938,4.4034,4.4034,4.4034,4.401,4.401,4.3842,4.3529,4.3385,4.3265,4.2904,4.276,4.288,4.2784,4.2784,4.2639,4.2254,4.223,4.2303,2.6591,2.6591,2.6591,2.6591,0.0,2.6591,2.6591,2.6591,2.6591,2.6591,2.6591,2.6591,2.6591,2.6591,2.6793,2.6774,2.6609,2.6793,2.6774,2.6591,2.6591,2.6701,2.6885,2.6885,2.6976,2.7178,2.7361,2.7471,2.7471,2.7673,2.7875,2.8077,2.8077,2.8168,2.837,2.8553,2.848,2.8077,2.826,2.8553,2.8957,2.8975,2.9177,2.9562,2.958,0.0,0.0,0.0,0.0,0.0,0.0,0.0,0.0,2.9498,0.0,2.8649,2.9036,2.916,2.8965,2.9316,2.9668,2.9883,3.0488,3.0664,3.0234,3.0605,3.0859,3.0859,3.1269,3.1426,3.1211,3.1582,3.1758,3.1543,3.1523,3.1621,3.1797,3.1836,3.2155,3.2935,3.2653,3.3095,3.5656,3.5854,3.7176,4.0455,4.1542,4.2347,4.3812,4.4106,4.4058,4.4299,4.4347,4.4347,4.4347,4.4347,4.4347,4.4347,4.4347,4.4443,4.4708,4.4732,4.4708,4.4683,4.4708,4.4611,4.4395,4.4323,4.4323,4.4323,4.4323,4.4323,4.4275,4.3697,4.312,2.6591,2.6591,2.6591,2.6591,2.6591,2.6591,2.6591,2.6591,2.6591,0.0,0.0,2.6591,2.6591,2.6591,2.6591,2.6628,2.6701,2.6701,2.6738,2.6793,2.6866,2.705,2.7288,2.7361,2.7526,2.7765,2.7838,2.7875,2.7875,2.7948,2.815,2.848,2.8572,2.8792,2.9195,2.9525,2.936,2.8773,2.903,2.936,2.9672,2.969,2.9855,3.0204,3.0204,3.0204,3.0204,3.0204,3.0204,3.0204,3.0204,3.0162,3.0214,3.054,3.0477,3.018,3.0801,3.1113,3.1113,3.1426,3.1816,3.2266,3.2344,3.2168,3.168,3.1973,3.2168,3.2168,3.2246,3.2285,3.2285,3.2344,3.2363,3.2305,3.2285,3.2266,3.2285,3.2285,3.2772,3.3899,3.3579,3.4283,3.7653,3.8118,3.91,4.1591,4.2832,4.3721,4.4202,4.4323,4.4299,4.4347,4.4347,4.4371,4.4491,4.4515,4.4515,4.4683,4.4683,4.478,4.514,4.5285,4.5453,4.5718,4.591,4.5862,4.5886,4.5766,4.5934,4.5934,4.5934,4.5934,4.5814,4.4876,4.4034,2.6591,2.6591,2.6591,2.6591,2.6591,2.6591,2.6591,2.6591,2.6591,2.6591,2.6591,2.6591,2.6591,2.6591,2.6591,2.6774,2.7086,2.7105,2.727,2.7618,2.7967,2.7967,2.771,2.8058,2.8058,2.782,2.8132,2.8315,2.8352,2.8645,2.8847,2.8938,2.9232,2.9617,3.0002,3.0094,3.0057,2.9947,3.0002,3.0057,3.0112,3.0112,3.013,3.0204,3.0222,3.0204,3.0204,3.0204,3.0204,3.0204,3.0204,3.0291,3.0605,3.0992,3.1161,3.143,3.1832,3.1992,3.1992,3.2051,3.2266,3.2676,3.3047,3.291,3.2168,3.2129,3.2168,3.2187,3.2559,3.2695,3.2734,3.3027,3.3086,3.2773,3.2715,3.2715,3.2878,3.2878,3.349,3.5148,3.5542,3.6597,3.9129,3.9991,4.0907,4.2758,4.3481,4.377,4.4299,4.4347,4.4347,4.4347,4.4347,4.4539,4.49,4.502,4.5164,4.5645,4.5645,4.5621,4.579,4.5814,4.5886,4.5934,4.6054,4.6006,4.6006,4.5934,4.603,4.6054,4.6054,4.603,4.6054,4.5718,4.5549,2.6591,2.6591,2.6591,2.6719,2.6921,2.7141,2.7233,2.7233,2.7233,2.7105,2.6921,2.6903,2.7031,2.7233,2.7471,2.7655,2.7856,2.8058,2.826,2.8425,2.8627,2.8608,2.848,2.8847,2.892,2.8755,2.8938,2.903,2.9048,2.9232,2.9305,2.9324,2.9709,3.013,3.0497,3.0516,3.0626,3.0809,3.0424,3.0314,3.0516,3.0516,3.0626,3.0827,3.0846,3.0846,3.0846,3.0827,3.0846,3.0827,3.1066,3.1431,3.1941,3.2403,3.2772,3.3301,3.3408,3.3535,3.3535,3.3535,3.3613,3.3828,3.4004,3.3965,3.3574,3.3535,3.3535,3.3555,3.373,3.373,3.3516,3.3652,3.3691,3.3516,3.3476,3.3954,3.4765,3.4932,3.5873,3.7805,3.7898,3.8649,4.1278,4.1312,4.1807,4.3262,4.3938,4.4563,4.5092,4.5188,4.5092,4.4876,4.502,4.5261,4.5525,4.5573,4.5669,4.5886,4.5934,4.6054,4.6247,4.6343,4.6463,4.6704,4.6776,4.6776,4.6752,4.6776,4.6776,4.6776,4.6776,4.6776,4.6776,4.6776,4.6583,2.6848,2.6848,2.6866,2.7086,2.7453,2.7673,2.7856,2.8022,2.7948,2.7838,2.771,2.7545,2.7673,2.8058,2.8388,2.8572,2.87,2.8975,2.9159,2.925,2.9342,2.9342,2.9305,2.9672,2.98,2.9727,2.9709,2.9709,2.9709,2.9709,2.9709,2.9764,3.013,3.0497,3.0772,3.0882,3.1066,3.1322,3.0864,3.0717,3.0919,3.0919,3.1102,3.1488,3.1506,3.1561,3.1653,3.1653,3.1653,3.1671,3.2095,3.2543,3.3198,3.3614,3.4049,3.4576,3.4687,3.4687,3.4687,3.4687,3.4687,3.4707,3.4805,3.4844,3.4863,3.4941,3.4902,3.4746,3.4629,3.457,3.4414,3.4375,3.4505,3.4744,3.4854,3.5557,3.6915,3.7339,3.81,4.0218,4.0062,4.0445,4.2394,4.2673,4.2926,4.3979,4.4804,4.5453,4.5838,4.6006,4.591,4.5694,4.5742,4.5934,4.6054,4.6102,4.6175,4.6223,4.6319,4.6511,4.68,4.6896,4.7016,4.7329,4.7449,4.7401,4.7449,4.7449,4.7425,4.7377,4.7353,4.7425,4.7401,4.7401,4.7257,2.7636,2.7655,2.7618,2.7911,2.8223,2.7948,2.8205,2.8773,2.8498,2.8737,2.9195,2.8608,2.8517,2.8847,2.8938,2.9159,2.9452,2.9507,2.9745,3.0094,3.0461,3.0442,3.013,3.0479,3.0497,3.0204,3.0167,3.0185,3.0204,3.0185,3.0167,3.0185,3.0534,3.0772,3.0846,3.1157,3.1341,3.1377,3.1689,3.1671,3.1341,3.1322,3.1524,3.1946,3.1946,3.2129,3.2404,3.2496,3.2478,3.2496,3.2914,3.3217,3.3615,3.403,3.4313,3.4726,3.4726,3.4687,3.4707,3.4687,3.4726,3.4726,3.5117,3.5332,3.5351,3.5664,3.5547,3.4961,3.4726,3.4902,3.5215,3.5234,3.5818,3.6807,3.6958,3.7545,3.8503,3.8728,3.9228,4.0609,4.1237,4.2102,4.376,4.4362,4.4864,4.535,4.5669,4.591,4.6102,4.6391,4.6631,4.6487,4.6271,4.6199,4.6511,4.6655,4.68,4.7161,4.7305,4.7281,4.7305,4.7353,4.7473,4.7425,4.7497,4.7497,4.7497,4.7497,4.7497,4.7497,4.7497,4.7497,4.7497,4.7497,4.7377,2.7765,2.7765,2.7765,2.815,2.87,2.8792,2.903,2.9324,2.9434,2.9654,2.991,2.9837,2.9782,2.9727,2.9947,3.0149,3.0314,3.0534,3.0736,3.0901,3.1066,3.1047,3.0937,3.1047,3.1157,3.1231,3.1011,3.1029,3.1231,3.1267,3.1377,3.1616,3.1781,3.1744,3.1561,3.1909,3.1983,3.1763,3.2148,3.2276,3.2129,3.2093,3.2166,3.2331,3.2349,3.2423,3.257,3.2606,3.274,3.3025,3.3382,3.3782,3.4432,3.4797,3.5085,3.5488,3.5469,3.5488,3.5469,3.5488,3.5469,3.5488,3.5644,3.5762,3.5762,3.5937,3.584,3.5566,3.5488,3.5488,3.5544,3.617,3.6922,3.7425,3.8077,3.9237,4.077,4.0874,4.1491,4.3067,4.3576,4.401,4.5038,4.5453,4.5814,4.6271,4.6391,4.6463,4.6776,4.704,4.7161,4.7161,4.6968,4.6944,4.7112,4.7185,4.7281,4.7425,4.7497,4.7497,4.7497,4.7497,4.7497,4.7497,4.7497,4.7497,4.7497,4.7497,4.7497,4.7497,4.7497,4.7497,4.7497,4.7497,4.7497,2.8352,2.8278,2.837,2.8828,2.9489,2.9654,2.9874,3.0075,3.0277,3.0424,3.0552,3.0827,3.0864,3.0736,3.0882,3.0937,3.1011,3.1359,3.1543,3.1561,3.1653,3.1708,3.1708,3.1708,3.1873,3.2074,3.1854,3.1873,3.2148,3.2166,3.2276,3.2423,3.2533,3.2404,3.2093,3.2404,3.2459,3.2239,3.257,3.2771,3.2771,3.2881,3.2881,3.2771,3.2771,3.2808,3.3071,3.3053,3.3341,3.3629,3.4045,3.4486,3.5008,3.5452,3.5743,3.6016,3.6035,3.6035,3.6035,3.6035,3.6035,3.6035,3.6035,3.6035,3.6035,3.6035,3.6035,3.5996,3.6035,3.5975,3.6276,3.7105,3.7874,3.8657,3.9884,4.1197,4.2812,4.3101,4.3739,4.5007,4.5158,4.5549,4.6006,4.6271,4.6559,4.6848,4.6944,4.704,4.7401,4.7473,4.7473,4.7497,4.7473,4.7473,4.7497,4.7449,4.7497,4.7497,4.7497,4.7497,4.7497,4.7497,4.7497,4.7497,4.7497,4.7497,4.7497,4.7497,4.7545,4.7545,4.7617,4.7738,4.7786,4.781,4.793,2.9874,2.9562,2.991,3.0241,3.0662,3.0314,3.0589,3.1102,3.0901,3.0956,3.1249,3.1341,3.1561,3.1854,3.1543,3.1359,3.1414,3.1799,3.1983,3.2019,3.2331,3.2533,3.2551,3.2551,3.2551,3.2606,3.2533,3.2533,3.2606,3.2588,3.2386,3.2129,3.2496,3.2441,3.2184,3.2478,3.2606,3.2625,3.2973,3.3193,3.323,3.3541,3.3541,3.323,3.3193,3.3495,3.4084,3.4296,3.4433,3.4846,3.512,3.5431,3.5431,3.5724,3.6016,3.6035,3.6035,3.6035,3.6035,3.6035,3.6035,3.6035,3.6035,3.6035,3.6094,3.6094,3.6113,3.6055,3.6133,3.6598,3.8017,3.8374,3.9277,4.155,4.2555,4.345,4.4714,4.5071,4.5686,4.5886,4.5934,4.6175,4.6631,4.7112,4.7281,4.7377,4.7425,4.7449,4.7473,4.7497,4.7497,4.7497,4.7497,4.7497,4.7497,4.7497,4.7497,4.7497,4.7497,4.7497,4.7497,4.7497,4.7497,4.7497,4.7497,4.7497,4.7497,4.7545,4.7617,4.7762,4.8074,4.8195,4.8267,4.8676,4.8772,3.0112,2.9984,3.013,3.0424,3.0754,3.0644,3.0754,3.1011,3.1139,3.1249,3.1433,3.1671,3.2001,3.2386,3.2221,3.2166,3.2166,3.2331,3.2386,3.2404,3.2533,3.2735,3.2955,3.2735,3.29,3.3285,3.312,3.3138,3.3358,3.3376,3.3303,3.3211,3.3303,3.3175,3.2918,3.3175,3.3248,3.3065,3.3395,3.3596,3.3596,3.3743,3.3882,3.389,3.3734,3.367,3.3955,3.4232,3.4508,3.4921,3.5333,3.5606,3.5743,3.5879,3.6035,3.6035,3.6035,3.6035,3.6035,3.6035,3.6035,3.6035,3.6035,3.6152,3.6367,3.6445,3.6937,3.7823,3.7233,3.8158,4.0756,4.0715,4.0782,4.2929,4.4196,4.4982,4.5542,4.5814,4.6054,4.6391,4.668,4.704,4.7161,4.7401,4.7497,4.7497,4.7497,4.7521,4.7521,4.7497,4.7569,4.7497,4.7497,4.7497,4.7497,4.7497,4.7497,4.7497,4.7497,4.7497,4.7497,4.7569,4.7569,4.7714,4.7666,4.769,4.7762,4.7954,4.8002,4.8363,4.8676,4.8748,4.8796,4.9133,4.9181,3.0461,3.0571,3.0589,3.0736,3.0974,3.1139,3.1176,3.1231,3.1598,3.1781,3.1854,3.2074,3.2423,3.2753,3.2808,3.2881,3.2955,3.2863,3.279,3.2826,3.2918,3.3138,3.3321,3.312,3.3266,3.3707,3.356,3.356,3.378,3.3817,3.3817,3.3798,3.3817,3.3688,3.3505,3.3688,3.367,3.3505,3.367,3.3817,3.3955,3.3955,3.4232,3.4508,3.437,3.4232,3.437,3.4646,3.4921,3.5196,3.547,3.5743,3.6016,3.6035,3.6035,3.6035,3.6035,3.6035,3.6035,3.6035,3.6035,3.6035,3.6172,3.6367,3.666,3.7193,3.8223,3.8979,3.9316,4.0298,4.2839,4.288,4.279,4.431,4.5538,4.6175,4.6199,4.6343,4.6607,4.6968,4.7401,4.769,4.7786,4.793,4.8026,4.8002,4.8002,4.8002,4.8026,4.8002,4.8002,4.8026,4.8074,4.8098,4.8147,4.8219,4.7786,4.769,4.7642,4.7617,4.7738,4.7762,4.781,4.793,4.7978,4.8002,4.8122,4.8339,4.8652,4.9036,4.9229,4.9325,4.9421,4.9541,4.9638,3.1047,3.1359,3.1377,3.1396,3.1488,3.1799,3.1983,3.2019,3.2349,3.2496,3.2533,3.2606,3.2845,3.3175,3.323,3.3413,3.3596,3.3358,3.323,3.3266,3.356,3.3725,3.3762,3.3707,3.3688,3.3817,3.3798,3.3798,3.3817,3.3817,3.3817,3.3835,3.3872,3.389,3.3853,3.3927,3.389,3.389,3.3945,3.4029,3.4389,3.4426,3.4546,3.4921,3.4921,3.5059,3.547,3.547,3.547,3.5879,3.5879,3.6035,3.6016,3.6035,3.6035,3.6035,3.6035,3.6035,3.6035,3.6035,3.6035,3.6133,3.6426,3.6799,3.7253,3.8462,3.9495,4.0288,4.0972,4.2549,4.4161,4.4474,4.4712,4.5715,4.6463,4.6728,4.6848,4.7209,4.7521,4.7642,4.8002,4.8267,4.8387,4.8603,4.882,4.8868,4.8868,4.8868,4.882,4.882,4.8988,4.8988,4.882,4.8676,4.8868,4.8988,4.8387,4.7906,4.7882,4.7858,4.8195,4.8315,4.8411,4.8531,4.8579,4.8603,4.882,4.9036,4.9157,4.9445,4.9662,4.9878,4.995,5.007,5.0311,3.2111,3.2221,3.2221,3.2221,3.2221,3.2368,3.2404,3.2423,3.2551,3.2771,3.2991,3.3028,3.3248,3.356,3.3633,3.3688,3.3798,3.3688,3.3633,3.3633,3.3762,3.3817,3.3817,3.3817,3.3817,3.3817,3.3817,3.3817,3.3817,3.3835,3.3927,3.4165,3.422,3.4385,3.4605,3.466,3.4784,3.4907,3.4784,3.4815,3.5116,3.4939,3.4928,3.5234,3.5333,3.547,3.5743,3.5606,3.5626,3.5606,3.5899,3.6035,3.6035,3.6035,3.6035,3.6035,3.6035,3.6035,3.6035,3.6055,3.6172,3.6406,3.6601,3.751,3.8807,3.9708,4.1146,4.2782,4.3144,4.3643,4.5832,4.5587,4.5786,4.6885,4.7161,4.7425,4.7738,4.8219,4.8531,4.8603,4.8724,4.882,4.8844,4.906,4.9157,4.9181,4.9157,4.9157,4.9133,4.9205,4.9084,4.9084,4.9084,4.9229,4.9349,4.9421,4.9109,4.8652,4.8483,4.8411,4.8676,4.8868,4.8988,4.9133,4.9205,4.9301,4.9517,4.9662,4.9758,4.9974,5.0263,5.0407,5.0455,5.0551,5.0672,3.2606,3.2606,3.2606,3.2606,3.2625,3.2753,3.2826,3.2845,3.2991,3.3211,3.3413,3.345,3.356,3.378,3.3817,3.3817,3.3817,3.3817,3.3817,3.3817,3.3817,3.3817,3.3817,3.3817,3.3817,3.3853,3.3963,3.4037,3.4037,3.4202,3.4385,3.4729,3.4907,3.5018,3.5277,3.5457,3.5582,3.5582,3.5439,3.5612,3.5793,3.5622,3.5553,3.5858,3.584,3.5762,3.6016,3.5743,3.5743,3.5743,3.5879,3.6035,3.6035,3.6035,3.6035,3.6035,3.6035,3.6074,3.623,3.6289,3.6445,3.6955,3.7589,3.8566,4.0194,4.108,4.3321,4.4641,4.496,4.5391,4.6941,4.6997,4.6934,4.7652,4.7786,4.8026,4.8507,4.8868,4.9036,4.906,4.9229,4.9325,4.9373,4.9614,4.9662,4.9686,4.9686,4.9686,4.9686,4.9734,4.9662,4.9662,4.9806,4.9854,4.9758,4.9758,4.9734,4.9493,4.9253,4.9181,4.9277,4.9349,4.9445,4.9782,4.995,4.9998,5.0167,5.0191,5.0263,5.0576,5.0696,5.0648,5.06,5.0624,5.0696,3.268,3.2661,3.2661,3.2735,3.2771,3.3101,3.3248,3.3321,3.3596,3.3743,3.378,3.3817,3.3853,3.3853,3.3908,3.3945,3.389,3.4047,3.4103,3.4121,3.4121,3.4121,3.3927,3.3927,3.3963,3.4176,3.4434,3.4563,3.46,3.4876,3.5314,3.5582,3.56,3.5638,3.5893,3.6123,3.618,3.6055,3.6161,3.6428,3.6739,3.6355,3.6263,3.6621,3.623,3.6016,3.6016,3.6016,3.6035,3.6016,3.6016,3.6035,3.6035,3.6035,3.6035,3.6094,3.6074,3.6328,3.6601,3.6956,3.7292,3.7707,3.9269,4.0438,4.1219,4.3321,4.4914,4.5685,4.654,4.7232,4.7569,4.7796,4.8084,4.8387,4.8483,4.8676,4.9036,4.9181,4.9349,4.9373,4.9614,4.9902,4.9926,5.0311,5.0503,5.0551,5.0527,5.0479,5.0503,5.0431,5.0624,5.0576,5.0383,5.0335,5.0191,5.0191,5.0191,5.0095,4.9878,4.9854,4.983,4.9878,4.995,5.0287,5.0479,5.0576,5.0624,5.0551,5.0551,5.0648,5.0696,5.0696,5.072,5.072,5.084,3.3486,3.3505,3.3486,3.3486,3.3505,3.3633,3.3651,3.367,3.3762,3.3853,3.3872,3.4128,3.4238,3.4238,3.4257,3.4403,3.4692,3.4667,3.4863,3.5086,3.5407,3.5079,3.4434,3.4257,3.4544,3.5067,3.5179,3.5414,3.5717,3.5867,3.6055,3.6444,3.6463,3.6614,3.6878,3.7042,3.7245,3.7372,3.7061,3.7181,3.7429,3.69,3.6553,3.6641,3.625,3.6035,3.6035,3.6035,3.6035,3.6035,3.6035,3.6035,3.6055,3.6074,3.6211,3.6465,3.6504,3.668,3.7291,3.8205,3.8963,3.9491,4.0911,4.2485,4.3937,4.4778,4.582,4.665,4.7364,4.7497,4.7593,4.8026,4.8579,4.9301,4.9397,4.9469,4.9686,5.0022,5.0263,5.0311,5.0383,5.0407,5.0479,5.0551,5.0696,5.0696,5.0744,5.072,5.072,5.0792,5.084,5.072,5.0624,5.0648,5.0648,5.0648,5.0624,5.0576,5.0479,5.0431,5.0407,5.0407,5.0479,5.0648,5.06,5.0672,5.0672,5.0648,5.0696,5.0696,5.0696,5.0696,5.072,5.0744,5.1032,3.3817,3.3817,3.3817,3.3817,3.3817,3.3817,3.3817,3.3853,3.4139,3.4334,3.4427,3.4759,3.4926,3.5086,3.4944,3.5055,3.5526,3.5481,3.5642,3.5792,3.5972,3.5717,3.5265,3.5228,3.5358,3.5849,3.6036,3.6255,3.6455,3.6588,3.696,3.7276,3.7334,3.7467,3.7639,3.7843,3.7862,3.799,3.7843,3.7924,3.7786,3.7216,3.695,3.668,3.6269,3.6035,3.6035,3.6191,3.623,3.6113,3.6191,3.6309,3.6328,3.6484,3.666,3.6934,3.7471,3.7788,3.8006,3.9466,4.0486,4.0864,4.2224,4.4006,4.5073,4.5843,4.6808,4.7364,4.7497,4.7593,4.793,4.8483,4.9301,5.0022,5.0215,5.0215,5.0215,5.0479,5.0672,5.0696,5.0696,5.0696,5.0696,5.0696,5.0696,5.0768,5.096,5.0864,5.0792,5.0888,5.0936,5.084,5.072,5.0696,5.0696,5.0696,5.0696,5.0696,5.0696,5.0696,5.0696,5.0696,5.0696,5.0696,5.0696,5.0696,5.0696,5.0696,5.0696,5.0696,5.0696,5.0792,5.0864,5.0816,5.1105,3.3817,3.3817,3.3817,3.3817,3.3817,3.3817,3.3992,3.4084,3.4659,3.5107,3.5257,3.5612,3.5905,3.6209,3.5781,3.5961,3.6323,3.6266,3.6428,3.6504,3.6685,3.6504,3.6504,3.6247,3.6304,3.658,3.6827,3.6941,3.7181,3.734,3.7658,3.7932,3.797,3.799,3.8155,3.8428,3.8428,3.8136,3.8185,3.8136,3.7871,3.7441,3.6992,3.668,3.625,3.6035,3.6113,3.6309,3.6406,3.6113,3.6504,3.6719,3.6777,3.7249,3.7426,3.7626,3.8606,3.9048,3.8868,4.0759,4.2137,4.2064,4.4094,4.5414,4.5843,4.6674,4.7364,4.7497,4.7497,4.7786,4.8387,4.9253,4.995,5.0455,5.0648,5.0696,5.0696,5.0696,5.0696,5.0696,5.0696,5.0696,5.0696,5.072,5.072,5.1008,5.1201,5.1249,5.1177,5.1249,5.1177,5.096,5.084,5.0696,5.0696,5.0696,5.0696,5.0696,5.0696,5.0696,5.0696,5.0696,5.0696,5.0696,5.0696,5.0696,5.0696,5.0696,5.0696,5.0696,5.0696,5.0936,5.1153,5.1008,5.1105,3.3955,3.4232,3.3955,3.3955,3.4232,3.4232,3.4418,3.4836,3.5229,3.5595,3.5916,3.6312,3.6626,3.677,3.6645,3.6796,3.715,3.7249,3.7374,3.8011,3.8156,3.8156,3.7769,3.723,3.7105,3.7479,3.7651,3.7855,3.8185,3.8205,3.8428,3.8448,3.8448,3.8448,3.8428,3.8574,3.8574,3.837,3.8262,3.8027,3.7754,3.7187,3.6777,3.6601,3.623,3.6055,3.6035,3.6113,3.6269,3.6562,3.7073,3.7347,3.7608,3.8366,3.8728,3.8688,3.9453,4.0179,4.0551,4.1882,4.3316,4.4253,4.5549,4.7074,4.7074,4.7208,4.7497,4.7497,4.7521,4.7954,4.882,4.9469,5.0095,5.0576,5.0696,5.0696,5.0696,5.0696,5.0696,5.0696,5.0696,5.0696,5.072,5.0744,5.0912,5.1225,5.1441,5.1634,5.1586,5.1513,5.1321,5.1032,5.0864,5.072,5.0696,5.0696,5.0696,5.0696,5.0696,5.0696,5.0696,5.0696,5.0696,5.0696,5.0696,5.0696,5.0696,5.0696,5.0696,5.0696,5.0744,5.0984,5.1129,5.1056,5.1369,3.4508,3.4646,3.437,3.4508,3.4646,3.4646,3.4872,3.5387,3.5895,3.6341,3.6761,3.7181,3.7498,3.7643,3.7517,3.7651,3.7893,3.7924,3.8195,3.8535,3.8555,3.8574,3.8555,3.8088,3.7943,3.8282,3.8282,3.8428,3.8574,3.8574,3.8574,3.8574,3.8574,3.8574,3.8574,3.8574,3.8437,3.8262,3.8047,3.7773,3.7305,3.6934,3.6523,3.6387,3.6152,3.6035,3.6035,3.6465,3.6719,3.7171,3.8206,3.8889,3.8769,3.9552,4.0059,4.0646,4.1689,4.2193,4.2408,4.3725,4.5232,4.5278,4.6674,4.7208,4.7497,4.7497,4.7497,4.7569,4.7786,4.8291,4.9325,4.995,5.0407,5.0576,5.0696,5.0696,5.0696,5.0696,5.0696,5.0696,5.0696,5.0696,5.072,5.0816,5.0888,5.1153,5.1754,5.1874,5.1273,5.1201,5.1225,5.1032,5.084,5.072,5.072,5.0696,5.0696,5.0696,5.0696,5.0696,5.0696,5.0696,5.0696,5.0696,5.0696,5.0696,5.0696,5.0696,5.0696,5.0696,5.0792,5.0984,5.1177,5.1321,5.1802,3.4921,3.4921,3.4921,3.4921,3.5059,3.5135,3.542,3.5819,3.6483,3.719,3.7595,3.8001,3.8224,3.8409,3.8263,3.8282,3.8428,3.8574,3.8555,3.8574,3.8574,3.8574,3.8555,3.8535,3.837,3.8574,3.8574,3.8574,3.8574,3.8574,3.8574,3.8574,3.8574,3.8574,3.8574,3.8555,3.8379,3.8047,3.7832,3.7461,3.6855,3.6621,3.6348,3.6152,3.6055,3.6035,3.6172,3.6641,3.7308,3.7746,3.9556,4.061,4.1151,4.1376,4.1771,4.301,4.3956,4.4253,4.3841,4.5255,4.6382,4.5549,4.6674,4.7364,4.7497,4.7521,4.7569,4.7858,4.8219,4.8916,4.9782,5.0287,5.06,5.0696,5.0696,5.0696,5.0696,5.0696,5.0696,5.0696,5.0696,5.0696,5.0816,5.0912,5.096,5.1129,5.173,5.2018,5.1417,5.1032,5.1153,5.1081,5.0888,5.0744,5.0696,5.0768,5.0768,5.0816,5.0792,5.0792,5.0768,5.0696,5.0696,5.0696,5.0696,5.072,5.072,5.0696,5.0696,5.0696,5.0768,5.0888,5.1201,5.1562,5.2091,3.5059,3.5333,3.5059,3.5059,3.539,3.5697,3.608,3.6643,3.7332,3.7903,3.8292,3.8389,3.8428,3.8574,3.8574,3.8574,3.8574,3.8574,3.8555,3.8535,3.8555,3.8574,3.8496,3.8496,3.8535,3.8574,3.8516,3.8476,3.8574,3.8574,3.8574,3.8574,3.8574,3.8574,3.8574,3.8555,3.8301,3.7851,3.7559,3.7109,3.668,3.6348,3.6289,3.6152,3.6152,3.6055,3.6289,3.6642,3.7471,3.904,3.9832,4.1743,4.3503,4.4253,4.4001,4.3863,4.4709,4.5278,4.5278,4.5414,4.6382,4.6808,4.7364,4.7497,4.7497,4.7521,4.7714,4.8291,4.894,4.9662,4.983,5.0524,5.0648,5.0696,5.0696,5.0696,5.0696,5.0696,5.0696,5.0696,5.0696,5.072,5.0816,5.096,5.1105,5.1201,5.1562,5.1994,5.1874,5.1489,5.1321,5.1177,5.0984,5.084,5.0696,5.0792,5.0864,5.096,5.0984,5.0984,5.0936,5.0768,5.072,5.0984,5.0936,5.0816,5.0792,5.0816,5.0912,5.1081,5.096,5.084,5.1321,5.1802,5.1826,3.5606,3.5743,3.5606,3.5742,3.6092,3.6286,3.6751,3.7313,3.7689,3.8164,3.8476,3.8574,3.8574,3.8574,3.8574,3.8574,3.8574,3.8574,3.8457,3.834,3.8457,3.8418,3.8262,3.8242,3.8242,3.8164,3.8047,3.8203,3.8535,3.8574,3.8535,3.8574,3.8574,3.8574,3.8516,3.832,3.8027,3.7598,3.7207,3.6777,3.6387,3.6094,3.6287,3.6809,3.6578,3.6522,3.7461,3.7823,3.8682,3.9924,4.1774,4.3596,4.4914,4.5955,4.609,4.5549,4.5978,4.6382,4.6516,4.6516,4.7074,4.734,4.763,4.763,4.7497,4.7569,4.7906,4.8652,4.9576,5.0277,5.0543,5.095,5.1236,5.126,5.1119,5.0978,5.0954,5.0837,5.0696,5.072,5.0744,5.0744,5.0768,5.0936,5.1177,5.1345,5.1513,5.1802,5.2163,5.1826,5.1465,5.1489,5.1393,5.1417,5.1273,5.1273,5.1249,5.1297,5.1321,5.1321,5.1369,5.1345,5.1465,5.1658,5.1465,5.1225,5.1249,5.1393,5.1417,5.1465,5.1537,5.161,5.1802,5.197,5.2018,3.6035,3.6035,3.6035,3.6269,3.6641,3.6777,3.7226,3.7832,3.8027,3.8262,3.8535,3.8574,3.8574,3.8574,3.8555,3.8535,3.8476,3.8437,3.8184,3.791,3.8086,3.8086,3.7891,3.7793,3.7793,3.7754,3.7578,3.7656,3.8086,3.8203,3.8281,3.8223,3.8281,3.832,3.8184,3.793,3.7559,3.7187,3.6875,3.6465,3.6133,3.6287,3.6944,3.815,3.7408,3.7901,3.9,3.9699,4.051,4.174,4.3529,4.5414,4.582,4.6808,4.7497,4.763,4.7497,4.7497,4.763,4.7762,4.7762,4.7894,4.8026,4.7894,4.804,4.8234,4.856,4.9358,5.0149,5.0888,5.123,5.1516,5.1681,5.1681,5.1376,5.1211,5.1095,5.0954,5.0696,5.072,5.0768,5.0912,5.1008,5.1153,5.1441,5.1874,5.2043,5.1994,5.2235,5.1826,5.1586,5.1778,5.1874,5.2067,5.2043,5.197,5.1922,5.1874,5.1898,5.1898,5.2018,5.2115,5.2187,5.2139,5.2187,5.1994,5.1994,5.1922,5.1898,5.197,5.2187,5.2235,5.2163,5.2211,5.2307,3.6035,3.6035,3.6035,3.6269,3.6719,3.707,3.748,3.7949,3.832,3.8516,3.8574,3.8574,3.8574,3.8555,3.8516,3.832,3.8125,3.7988,3.7773,3.7441,3.7519,3.7539,3.7363,3.7363,3.7363,3.7324,3.7266,3.7344,3.748,3.75,3.7519,3.7539,3.7598,3.748,3.7617,3.7461,3.7168,3.6816,3.6838,3.6583,3.6346,3.7193,3.7975,3.8591,3.9332,4.0296,4.0778,4.1521,4.2452,4.3759,4.4754,4.5955,4.6941,4.7364,4.763,4.7762,4.7762,4.763,4.7894,4.8026,4.8158,4.8313,4.8445,4.8469,4.8582,4.9169,4.9805,5.0651,5.1353,5.1509,5.1771,5.182,5.182,5.1796,5.1656,5.1352,5.1236,5.1236,5.0978,5.1124,5.122,5.1368,5.1585,5.1562,5.1754,5.2211,5.2524,5.2451,5.2379,5.2043,5.1922,5.2187,5.2451,5.2644,5.274,5.2668,5.262,5.2524,5.2524,5.2524,5.2596,5.2668,5.2475,5.2475,5.2596,5.2668,5.2548,5.2451,5.2355,5.2451,5.2668,5.2524,5.2283,5.2403,5.2668,3.6035,3.6035,3.6289,3.6641,3.7051,3.748,3.7891,3.8262,3.8476,3.8574,3.8574,3.8574,3.8574,3.8476,3.8125,3.7891,3.7851,3.7676,3.7344,3.709,3.7129,3.7148,3.6992,3.6934,3.6934,3.6875,3.6719,3.6523,3.668,3.707,3.7305,3.7266,3.7285,3.7344,3.7187,3.7051,3.6875,3.6917,3.7092,3.7395,3.7636,3.8486,3.967,4.0344,4.0563,4.133,4.2368,4.2815,4.3736,4.4907,4.5908,4.6917,4.7497,4.7762,4.7894,4.8313,4.8182,4.8182,4.8313,4.8551,4.8576,4.8576,4.8756,4.896,4.9199,4.9731,5.0444,5.0911,5.1753,5.205,5.2213,5.2377,5.2377,5.2377,5.1935,5.1935,5.1656,5.1516,5.1425,5.162,5.1698,5.1895,5.2115,5.2212,5.2332,5.2379,5.2596,5.2524,5.2572,5.2572,5.2548,5.2692,5.3004,5.3269,5.3317,5.3317,5.3317,5.3245,5.3269,5.3245,5.3245,5.3197,5.3004,5.3053,5.3293,5.3269,5.3101,5.3101,5.3101,5.3125,5.3149,5.3029,5.2932,5.3125,5.3341,3.6035,3.6055,3.6484,3.6914,3.7324,3.7754,3.8086,3.8379,3.8516,3.8457,3.8281,3.8223,3.8223,3.8144,3.7637,3.7461,3.7539,3.7285,3.6894,3.6758,3.6758,3.6738,3.6582,3.6504,3.6504,3.6504,3.6289,3.6133,3.6289,3.6562,3.6875,3.6973,3.6855,3.6894,3.6875,3.668,3.6602,3.7228,3.8161,3.8681,3.9014,4.0192,4.1354,4.1956,4.229,4.2723,4.4193,4.4944,4.5638,4.628,4.7051,4.7894,4.8182,4.8182,4.8289,4.8576,4.8706,4.8706,4.8837,4.8942,4.8967,4.8992,4.919,4.9569,4.9958,5.0369,5.0913,5.1619,5.2079,5.2466,5.2515,5.2792,5.2792,5.2654,5.2515,5.2515,5.2377,5.196,5.173,5.1736,5.2079,5.2665,5.2864,5.2962,5.2961,5.2692,5.2668,5.262,5.2788,5.3004,5.3101,5.3197,5.3341,5.3582,5.363,5.3726,5.3798,5.3822,5.3822,5.3774,5.363,5.363,5.3558,5.3702,5.3822,5.3726,5.3461,5.3654,5.3822,5.363,5.351,5.3654,5.3702,5.3822,5.3822,3.6035,3.6055,3.6504,3.6914,3.7324,3.7734,3.7949,3.8008,3.8398,3.8105,3.7559,3.7422,3.7461,3.7383,3.7285,3.7031,3.6816,3.6738,3.6484,3.623,3.6094,3.6191,3.6152,3.6152,3.6113,3.6113,3.6171,3.6171,3.6171,3.6677,3.6484,3.6113,3.6583,3.6328,3.6445,3.7029,3.7489,3.8387,3.9561,4.0322,4.0817,4.1715,4.2776,4.3616,4.5164,4.6499,4.6724,4.7199,4.7627,4.7894,4.8182,4.8445,4.8576,4.8576,4.8706,4.8967,4.9097,4.9202,4.9332,4.9202,4.9202,4.9611,4.9887,5.0362,5.0755,5.154,5.2116,5.2379,5.2717,5.2767,5.2792,5.2929,5.2929,5.2792,5.2654,5.2654,5.2515,5.2238,5.2034,5.2017,5.246,5.3242,5.364,5.3863,5.3765,5.3518,5.3269,5.3221,5.3341,5.351,5.3582,5.3654,5.3678,5.3774,5.3774,5.3822,5.3822,5.3822,5.3822,5.3822,5.3774,5.3822,5.3822,5.3822,5.3822,5.3822,5.3822,5.3822,5.3822,5.3822,5.3822,5.3822,5.3822,5.3822,5.3822,3.6172,3.6465,3.6875,3.7012,3.6992,3.793,3.8027,3.7656,3.7988,3.7851,3.7285,3.7051,3.7051,3.7109,3.6699,3.6601,3.6601,3.6367,3.6191,3.6094,3.6035,3.6152,3.6132,3.6268,3.6152,3.6403,3.6403,3.6924,3.7575,3.7688,3.8597,3.8465,3.7193,3.7059,3.7327,3.8465,3.9387,4.0018,4.1203,4.2097,4.2477,4.3553,4.4567,4.5078,4.5497,4.683,4.7346,4.7789,4.8231,4.8502,4.8576,4.8706,4.8837,4.8967,4.9097,4.9332,4.9332,4.9461,4.959,4.9461,4.9461,4.9586,5.0092,5.067,5.1247,5.18,5.2327,5.2703,5.2929,5.2929,5.2929,5.2929,5.2929,5.2929,5.2792,5.2654,5.2654,5.2377,5.2476,5.2511,5.3222,5.4035,5.4414,5.462,5.4525,5.4348,5.4098,5.3822,5.3822,5.3822,5.3822,5.3822,5.3822,5.3822,5.3822,5.3822,5.3822,5.3822,5.3822,5.3822,5.3822,5.3822,5.3822,5.3822,5.3822,5.3822,5.3822,5.3822,5.3822,5.3822,5.3822,5.3822,5.3822,5.3822,5.3822,3.6269,3.668,3.6992,3.709,3.7168,3.8008,3.7969,3.7441,3.7617,3.75,3.709,3.6818,3.674,3.6799,3.6642,3.6581,3.6739,3.6581,3.6714,3.6674,3.6674,3.6789,3.7038,3.7173,3.7307,3.7287,3.7955,3.8618,3.9387,3.9627,4.0018,3.9888,3.8993,3.8861,3.9366,4.0924,4.182,4.2074,4.2981,4.3879,4.4151,4.4816,4.5699,4.6266,4.6662,4.7208,4.7902,4.8372,4.862,4.8868,4.8967,4.9072,4.9202,4.9332,4.9332,4.9461,4.959,4.959,4.959,4.959,4.959,4.9665,5.0368,5.0845,5.1297,5.19,5.2628,5.2829,5.2929,5.2929,5.2929,5.2929,5.2929,5.2929,5.2929,5.2792,5.2792,5.2654,5.2967,5.3142,5.3818,5.4495,5.4877,5.5085,5.477,5.457,5.4272,5.3972,5.3822,5.3822,5.3822,5.3822,5.3822,5.3822,5.3822,5.3822,5.3822,5.3822,5.3822,5.3822,5.3822,5.3822,5.3822,5.3822,5.3822,5.3822,5.3822,5.3822,5.3822,5.3822,5.3822,5.3822,5.3822,5.3822,5.3822,3.6269,3.666,3.6699,3.7148,3.7734,3.791,3.7656,3.7328,3.7347,3.7191,3.6779,3.664,3.6598,3.6638,3.6849,3.7139,3.7274,3.7233,3.7709,3.8465,3.8088,3.8088,3.8597,3.8972,3.884,3.9366,3.9888,4.0537,4.1181,4.1309,4.1437,4.1693,4.1437,4.1052,4.1309,4.2454,4.3107,4.3357,4.4669,4.5184,4.5453,4.5746,4.6362,4.6959,4.7433,4.8008,4.8582,4.8982,4.9207,4.9307,4.9357,4.9461,4.9461,4.9461,4.959,4.959,4.959,4.959,4.959,4.959,4.959,4.9741,5.0444,5.1147,5.1473,5.2151,5.2829,5.2929,5.2929,5.2929,5.2929,5.2929,5.2929,5.2929,5.2929,5.2929,5.2929,5.2929,5.308,5.3306,5.4034,5.4762,5.5171,5.5355,5.5164,5.4868,5.4546,5.4272,5.3972,5.3822,5.3822,5.3822,5.3822,5.3822,5.3822,5.3822,5.3822,5.3822,5.3822,5.3822,5.3822,5.3822,5.3822,5.3822,5.3822,5.3822,5.3822,5.3822,5.3822,5.3822,5.3822,5.3822,5.3822,5.3822,5.3822,3.6406,3.7095,3.7095,3.755,3.8186,3.7924,3.7529,3.7211,3.7112,3.6896,3.6757,3.6829,3.6924,3.6944,3.7193,3.7595,3.8353,3.8465,3.9103,4.0278,3.9888,4.0256,4.0644,4.0644,4.0644,4.0902,4.1542,4.2328,4.2832,4.3083,4.3879,4.4374,4.4003,4.3879,4.3606,4.4251,4.5281,4.5281,4.5817,4.6084,4.6109,4.6409,4.6957,4.7606,4.8134,4.8686,4.9213,4.9515,4.959,4.959,4.959,4.959,4.959,4.959,4.959,4.959,4.959,4.959,4.959,4.959,4.959,4.9941,5.0569,5.1247,5.1398,5.2327,5.2779,5.2929,5.2929,5.2929,5.2929,5.2929,5.2929,5.2929,5.2929,5.2929,5.2929,5.2929,5.303,5.3306,5.3884,5.4938,5.5691,5.5772,5.5532,5.5164,5.4868,5.457,5.4272,5.3972,5.3822,5.3822,5.3822,5.3822,5.3822,5.3822,5.3822,5.3822,5.3822,5.3822,5.3822,5.3822,5.3822,5.3822,5.3822,5.3822,5.3822,5.3822,5.3822,5.3822,5.3822,5.3822,5.3822,5.3822,5.3822,3.6816,3.7311,3.7191,3.7646,3.8304,3.7908,3.7468,3.7159,3.7079,3.6944,3.6809,3.7079,3.7213,3.7482,3.7996,3.8507,3.9518,4.0018,4.0902,4.2074,4.1693,4.1947,4.2201,4.2328,4.2454,4.2706,4.3208,4.3855,4.462,4.489,4.5281,4.5793,4.6301,4.5403,4.5159,4.5671,4.618,4.6059,4.6205,4.6205,4.6451,4.6803,4.7355,4.7883,4.8435,4.9012,4.9414,4.959,4.959,4.959,4.959,4.959,4.959,4.959,4.959,4.959,4.959,4.959,4.959,4.959,4.969,4.9992,5.0795,5.1222,5.1473,5.2302,5.2754,5.2929,5.2929,5.2929,5.2929,5.2929,5.2929,5.2929,5.2929,5.2929,5.2929,5.2929,5.308,5.3381,5.3984,5.5039,5.5942,5.6043,5.5901,5.5607,5.5312,5.5016,5.4719,5.4421,5.4122,5.4122,5.4122,5.4122,5.3972,5.3822,5.3822,5.3822,5.3822,5.3822,5.3822,5.3822,5.3822,5.3822,5.3822,5.3822,5.3822,5.3822,5.3822,5.3822,5.3822,5.3822,5.3822,5.3822,5.3822,3.732,3.7602,3.726,3.7611,3.8092,3.7976,3.7597,3.7233,3.7213,3.7213,3.7213,3.7729,3.8129,3.8262,3.943,4.0322,4.071,4.1693,4.2981,4.3606,4.3232,4.3606,4.4003,4.4251,4.4251,4.4645,4.5159,4.5403,4.618,4.5914,4.6059,4.6301,4.6301,4.6059,4.6059,4.6059,4.6326,4.6326,4.6326,4.6376,4.6577,4.6979,4.7556,4.8109,4.8636,4.9138,4.9464,4.959,4.959,4.959,4.959,4.959,4.959,4.959,4.959,4.959,4.959,4.959,4.9615,4.9615,4.9891,5.0268,5.0971,5.1222,5.1649,5.2327,5.2779,5.2929,5.2929,5.2929,5.2929,5.2929,5.2929,5.2929,5.2929,5.2929,5.2929,5.303,5.3231,5.3632,5.426,5.5114,5.5917,5.6219,5.6219,5.6072,5.5607,5.546,5.5164,5.4892,5.4744,5.4744,5.457,5.4421,5.4272,5.4122,5.3972,5.3972,5.3822,5.3822,5.3822,5.3822,5.3822,5.3822,5.3822,5.3822,5.3822,5.3822,5.3822,5.3822,5.3822,5.3822,5.3822,5.3822,5.3822,3.7294,3.7644,3.7543,3.7697,3.8357,3.9115,3.8765,3.775,3.8639,3.8772,3.7616,3.991,4.017,3.967,4.0946,4.2097,4.2855,4.3606,4.4521,4.489,4.4915,4.5281,4.555,4.555,4.5671,4.5793,4.6059,4.6326,4.6301,4.6326,4.6326,4.6301,4.6326,4.6326,4.6326,4.6326,4.6326,4.6351,4.6351,4.6552,4.6928,4.738,4.7933,4.846,4.8987,4.9414,4.954,4.959,4.959,4.959,4.959,4.959,4.959,4.959,4.959,4.959,4.959,4.9615,4.9665,4.9967,5.0268,5.0619,5.1297,5.1749,5.2076,5.2427,5.2904,5.2929,5.2929,5.2929,5.2929,5.2929,5.2929,5.2929,5.2929,5.2929,5.2929,5.298,5.3206,5.3858,5.4486,5.5239,5.6018,5.6219,5.6219,5.6219,5.6072,5.5926,5.5754,5.5337,5.5189,5.5189,5.5041,5.4868,5.4719,5.457,5.4421,5.4248,5.4122,5.3972,5.3972,5.3972,5.3822,5.3822,5.3822,5.3822,5.3822,5.3822,5.3822,5.3822,5.3822,5.3822,5.3822,5.3822,5.3822,3.7636,3.7883,3.8395,3.9057,3.9823,4.0581,4.03,3.967,4.0559,4.03,3.9649,4.1309,4.1715,4.1332,4.2328,4.3482,4.4127,4.4767,4.555,4.5914,4.6326,4.618,4.6301,4.6326,4.618,4.6326,4.6326,4.6326,4.6326,4.6326,4.6326,4.6326,4.6326,4.6326,4.6326,4.6326,4.6326,4.6401,4.6552,4.6828,4.7255,4.7832,4.841,4.8812,4.9339,4.954,4.959,4.959,4.959,4.959,4.959,4.959,4.959,4.959,4.959,4.959,4.959,4.959,4.969,5.0117,5.0444,5.0921,5.1599,5.2076,5.2427,5.2729,5.2879,5.2929,5.2929,5.2929,5.2929,5.2929,5.2929,5.2929,5.2929,5.2929,5.2929,5.2929,5.3406,5.4059,5.4737,5.5465,5.5942,5.6093,5.6219,5.6219,5.6219,5.6072,5.6072,5.5926,5.5779,5.5632,5.5485,5.5164,5.5016,5.4868,5.4719,5.457,5.457,5.4421,5.4272,5.4122,5.4122,5.3972,5.3822,5.3822,5.3972,5.3822,5.3822,5.3822,5.3822,5.3822,5.3822,5.3822,5.3822,3.8304,3.857,3.9823,4.1075,4.2224,4.2328,4.2454,4.2454,4.2603,4.2328,4.2201,4.2454,4.273,4.273,4.3855,4.4374,4.5013,4.5671,4.5939,4.6326,4.6326,4.6326,4.6326,4.6326,4.6326,4.6326,4.6326,4.6326,4.6326,4.6326,4.6326,4.6326,4.6326,4.6326,4.6326,4.6326,4.6376,4.6602,4.6928,4.728,4.7506,4.8109,4.8812,4.8937,4.9289,4.959,4.959,4.959,4.959,4.959,4.959,4.959,4.959,4.959,4.959,4.959,4.959,4.9715,4.9891,5.0318,5.0845,5.1322,5.185,5.2352,5.2703,5.2829,5.2904,5.2929,5.2929,5.2929,5.2929,5.2929,5.2929,5.2929,5.2929,5.2929,5.2929,5.3181,5.3808,5.4436,5.5114,5.5767,5.6043,5.6219,5.6219,5.6219,5.6219,5.6219,5.6485,5.634,5.6194,5.6194,5.5926,5.5632,5.5485,5.5337,5.5189,5.5041,5.5041,5.4892,5.4595,5.4421,5.4272,5.4272,5.4272,5.4122,5.4122,5.4122,5.4122,5.4122,5.4122,5.3972,5.3972,5.3972,5.3822,3.9692,3.9823,4.1203,4.2477,4.3731,4.3731,4.4374,4.5281,4.5281,4.4127,4.2832,4.4127,4.4645,4.4127,4.5037,4.5671,4.5793,4.5914,4.618,4.6326,4.6326,4.6326,4.6326,4.6326,4.6326,4.6326,4.6326,4.6326,4.6326,4.6326,4.6326,4.6326,4.6351,4.6401,4.6401,4.6401,4.6627,4.6928,4.7431,4.7732,4.7883,4.836,4.8912,4.9238,4.959,4.959,4.959,4.959,4.959,4.959,4.959,4.959,4.959,4.959,4.959,4.959,4.9615,4.9791,5.0193,5.0645,5.1197,5.18,5.2327,5.2653,5.2879,5.2904,5.2929,5.2929,5.2929,5.2929,5.2929,5.2929,5.2929,5.2929,5.2929,5.2929,5.2955,5.3557,5.416,5.493,5.5584,5.5842,5.6118,5.6219,5.6219,5.6219,5.6219,5.634,5.704,5.7184,5.675,5.6631,5.6219,5.6072,5.5926,5.5779,5.5485,5.5337,5.5337,5.5189,5.5041,5.4868,5.4719,5.4744,5.4744,5.4595,5.4595,5.4744,5.4744,5.457,5.457,5.4421,5.457,5.457,5.4272,4.0963,4.0912,4.2511,4.3855,4.5013,4.5159,4.5671,4.618,4.6326,4.5403,4.4251,4.5525,4.5793,4.5159,4.6059,4.6326,4.6326,4.6301,4.6326,4.6326,4.6326,4.6326,4.6326,4.6326,4.6326,4.6326,4.6326,4.6326,4.6326,4.6326,4.6326,4.6351,4.6451,4.6652,4.6677,4.6853,4.7104,4.7481,4.8008,4.8234,4.8335,4.8837,4.9213,4.9565,4.959,4.959,4.959,4.959,4.959,4.959,4.959,4.959,4.959,4.959,4.959,4.959,4.9665,4.9841,5.0393,5.0971,5.1548,5.2101,5.2603,5.2879,5.2904,5.2929,5.2929,5.2929,5.2929,5.2929,5.2929,5.2929,5.2929,5.2929,5.3067,5.3042,5.3619,5.429,5.5,5.5802,5.6264,5.6573,5.6631,5.6485,5.6631,5.7446,5.7184,5.7328,5.7876,5.8302,5.7733,5.7184,5.6895,5.6485,5.6047,5.6072,5.5926,5.5779,5.5632,5.5485,5.5485,5.5337,5.5189,5.5189,5.5041,5.4892,5.4892,5.5041,5.5041,5.4892,5.4892,5.4892,5.5041,5.5041,5.4744,4.2349,4.2273,4.3812,4.5159,4.618,4.6301,4.6301,4.6326,4.6326,4.6326,4.6059,4.618,4.6326,4.6326,4.6326,4.6326,4.6326,4.6326,4.6326,4.6326,4.6326,4.6326,4.6326,4.6326,4.6326,4.6326,4.6326,4.6326,4.6326,4.6326,4.6351,4.6451,4.6753,4.7129,4.728,4.7581,4.7857,4.8083,4.8435,4.8736,4.9038,4.9314,4.949,4.959,4.959,4.959,4.959,4.959,4.959,4.959,4.959,4.959,4.959,4.959,4.959,4.959,4.959,4.9967,5.0519,5.1021,5.1624,5.2176,5.279,5.3154,5.3179,5.3179,5.3179,5.3067,5.3067,5.2929,5.2929,5.3067,5.3067,5.3179,5.3316,5.3835,5.4569,5.5083,5.5857,5.6719,5.7058,5.7318,5.7446,5.7184,5.759,5.8418,5.8701,5.8841,5.9122,5.9515,5.9375,5.8701,5.7992,5.7446,5.6485,5.6194,5.6072,5.6072,5.5926,5.5926,5.5779,5.5779,5.5632,5.5337,5.5312,5.5337,5.5337,5.5485,5.5337,5.5189,5.5337,5.5485,5.5485,5.5485,5.5337,4.4449,4.5401,4.5768,4.6035,4.6301,4.6326,4.6326,4.6326,4.6326,4.6326,4.6326,4.6326,4.6326,4.6326,4.6326,4.6326,4.6326,4.6326,4.6326,4.6326,4.6326,4.6326,4.6326,4.6326,4.6326,4.6326,4.6326,4.6326,4.6326,4.6326,4.6326,4.6351,4.6903,4.7179,4.7255,4.7682,4.8259,4.8535,4.8736,4.8987,4.9339,4.9515,4.9565,4.959,4.959,4.959,4.959,4.959,4.959,4.959,4.959,4.959,4.959,4.959,4.959,4.964,4.964,5.0218,5.0745,5.1463,5.2177,5.2936,5.3563,5.4081,5.4216,5.435,5.4081,5.3427,5.3427,5.3316,5.3316,5.3452,5.3452,5.37,5.3971,5.5313,5.6345,5.6528,5.6999,5.7747,5.8355,5.8997,5.9793,5.9515,5.9515,6.007,6.0208,6.0345,6.1002,6.1165,6.1029,6.0208,5.9375,5.7733,5.6485,5.6194,5.6219,5.6219,5.6219,5.6072,5.6072,5.6072,5.5926,5.5779,5.5779,5.5926,5.5926,5.5779,5.5779,5.5779,5.5926,5.6072,5.5926,5.5779,5.5779]},{"header":{"parameterUnit":"m.s-1","parameterCategory":1,"la1":31.0,"la2":29.5877,"lo1":-88.7671,"lo2":-86.6584,"dx":0.0162,"dy":0.0185,"nx":115,"ny":88,"refTime":"2023-01-03T06:00:00:Z","depth":0,"parameterNumber":3,"parameterNumberName":"V-component_of_WINDS"},"data":[0.0,0.0,0.0,0.0,0.0,0.0,0.0,0.0,0.0,0.0,0.0,0.0,0.0,0.0,0.0,0.0,0.0,0.0,0.0,0.0,0.0,0.0,0.0,0.0,0.0,0.0,0.0,0.0,0.0,0.0,0.0,0.0,0.0,0.0,0.0,0.0,0.0,0.0,0.0,0.0,0.0,0.0,0.0,0.0,0.0,0.0,0.0,0.0,0.0,0.0,0.0,0.0,0.0,0.0,0.0,0.0,0.0,0.0,0.0,0.0,0.0,0.0,0.0,0.0,0.0,0.0,0.0,0.0,0.0,0.0,0.0,0.0,0.0,0.0,0.0,0.0,0.0,0.0,0.0,0.0,0.0,0.0,0.0,0.0,0.0,0.0,0.0,0.0,0.0,0.0,0.0,0.0,0.0,0.0,0.0,0.0,0.0,0.0,0.0,0.0,0.0,0.0,0.0,0.0,0.0,0.0,0.0,0.0,0.0,0.0,0.0,0.0,0.0,0.0,0.0,0.0,0.0,0.0,0.0,0.0,0.0,0.0,0.0,0.0,0.0,0.0,0.0,0.0,0.0,0.0,0.0,0.0,0.0,0.0,0.0,0.0,0.0,0.0,0.0,0.0,0.0,0.0,0.0,0.0,0.0,0.0,0.0,0.0,0.0,0.0,0.0,0.0,0.0,0.0,0.0,0.0,0.0,0.0,0.0,0.0,0.0,0.0,0.0,0.0,0.0,0.0,0.0,0.0,0.0,0.0,0.0,0.0,0.0,0.0,0.0,0.0,0.0,0.0,0.0,0.0,0.0,0.0,0.0,0.0,0.0,0.0,0.0,0.0,0.0,0.0,0.0,0.0,0.0,0.0,0.0,0.0,0.0,0.0,0.0,0.0,0.0,0.0,0.0,0.0,0.0,0.0,0.0,0.0,0.0,0.0,0.0,0.0,0.0,0.0,0.0,0.0,0.0,0.0,0.0,0.0,0.0,0.0,0.0,0.0,0.0,0.0,0.0,0.0,0.0,0.0,0.0,0.0,0.0,0.0,0.0,0.0,0.0,0.0,0.0,0.0,0.0,0.0,0.0,0.0,0.0,0.0,0.0,0.0,0.0,0.0,0.0,0.0,0.0,0.0,0.0,0.0,0.0,0.0,0.0,0.0,0.0,0.0,0.0,0.0,0.0,0.0,0.0,0.0,0.0,0.0,0.0,0.0,0.0,0.0,0.0,0.0,0.0,0.0,0.0,0.0,0.0,0.0,0.0,0.0,0.0,0.0,0.0,0.0,0.0,0.0,0.0,0.0,0.0,0.0,0.0,0.0,0.0,0.0,0.0,0.0,0.0,0.0,0.0,0.0,0.0,0.0,0.0,0.0,0.0,0.0,0.0,0.0,0.0,0.0,0.0,0.0,0.0,0.0,0.0,0.0,0.0,0.0,0.0,0.0,0.0,0.0,0.0,0.0,0.0,0.0,0.0,0.0,0.0,0.0,0.0,0.0,0.0,0.0,0.0,0.0,0.0,0.0,0.0,0.0,0.0,0.0,0.0,0.0,0.0,0.0,0.0,0.0,0.0,0.0,0.0,0.0,0.0,0.0,0.0,0.0,0.0,0.0,0.0,0.0,0.0,0.0,0.0,0.0,0.0,0.0,0.0,0.0,0.0,0.0,0.0,0.0,0.0,0.0,0.0,0.0,0.0,0.0,0.0,0.0,0.0,0.0,0.0,0.0,0.0,0.0,0.0,0.0,0.0,0.0,0.0,0.0,0.0,0.0,0.0,0.0,0.0,0.0,0.0,0.0,0.0,0.0,0.0,0.0,0.0,0.0,0.0,0.0,0.0,0.0,0.0,0.0,0.0,0.0,0.0,0.0,0.0,0.0,0.0,0.0,0.0,0.0,0.0,0.0,0.0,0.0,0.0,0.0,0.0,0.0,0.0,0.0,0.0,0.0,0.0,0.0,0.0,0.0,0.0,0.0,0.0,0.0,0.0,0.0,0.0,0.0,0.0,0.0,0.0,0.0,0.0,0.0,0.0,0.0,0.0,0.0,0.0,0.0,0.0,0.0,0.0,0.0,0.0,0.0,0.0,0.0,0.0,0.0,0.0,0.0,0.0,0.0,0.0,0.0,0.0,0.0,0.0,0.0,0.0,0.0,0.0,0.0,0.0,0.0,0.0,0.0,0.0,0.0,0.0,0.0,0.0,0.0,0.0,0.0,0.0,0.0,0.0,0.0,0.0,0.0,0.0,0.0,0.0,0.0,0.0,0.0,0.0,0.0,0.0,0.0,0.0,0.0,0.0,0.0,0.0,0.0,0.0,0.0,0.0,0.0,0.0,0.0,0.0,0.0,0.0,0.0,0.0,0.0,0.0,0.0,0.0,0.0,0.0,0.0,0.0,0.0,0.0,0.0,0.0,0.0,0.0,0.0,0.0,0.0,0.0,0.0,0.0,0.0,0.0,0.0,0.0,0.0,0.0,0.0,0.0,0.0,0.0,0.0,0.0,0.0,0.0,0.0,0.0,0.0,0.0,0.0,0.0,0.0,0.0,0.0,0.0,0.0,0.0,0.0,0.0,0.0,0.0,0.0,0.0,0.0,0.0,0.0,0.0,0.0,0.0,0.0,0.0,0.0,0.0,0.0,0.0,0.0,0.0,0.0,0.0,0.0,0.0,0.0,0.0,0.0,0.0,0.0,0.0,0.0,0.0,0.0,0.0,0.0,0.0,0.0,0.0,0.0,0.0,0.0,0.0,0.0,0.0,0.0,0.0,0.0,0.0,0.0,0.0,0.0,0.0,0.0,0.0,0.0,0.0,0.0,0.0,0.0,0.0,0.0,0.0,0.0,0.0,0.0,0.0,0.0,0.0,0.0,0.0,0.0,0.0,0.0,0.0,0.0,0.0,0.0,0.0,0.0,0.0,0.0,0.0,0.0,0.0,0.0,0.0,0.0,0.0,0.0,0.0,0.0,0.0,0.0,0.0,0.0,0.0,0.0,0.0,0.0,0.0,0.0,0.0,0.0,0.0,0.0,0.0,0.0,0.0,0.0,0.0,0.0,0.0,0.0,0.0,0.0,0.0,0.0,0.0,0.0,0.0,0.0,0.0,0.0,0.0,0.0,0.0,0.0,0.0,0.0,0.0,0.0,0.0,0.0,0.0,0.0,0.0,0.0,0.0,0.0,0.0,0.0,0.0,0.0,0.0,0.0,0.0,0.0,0.0,0.0,0.0,0.0,0.0,0.0,0.0,0.0,0.0,0.0,0.0,0.0,0.0,0.0,0.0,0.0,0.0,0.0,0.0,0.0,0.0,0.0,0.0,0.0,0.0,0.0,0.0,0.0,0.0,0.0,0.0,0.0,0.0,0.0,0.0,0.0,0.0,0.0,0.0,0.0,0.0,0.0,0.0,0.0,0.0,0.0,0.0,0.0,0.0,0.0,0.0,0.0,0.0,0.0,0.0,0.0,0.0,0.0,0.0,0.0,0.0,0.0,0.0,0.0,0.0,0.0,0.0,0.0,0.0,0.0,0.0,0.0,0.0,0.0,0.0,0.0,0.0,0.0,0.0,0.0,0.0,0.0,0.0,0.0,0.0,0.0,0.0,0.0,0.0,0.0,0.0,0.0,0.0,0.0,0.0,0.0,0.0,0.0,0.0,0.0,0.0,0.0,0.0,0.0,0.0,0.0,0.0,0.0,0.0,0.0,0.0,0.0,0.0,0.0,0.0,0.0,0.0,0.0,0.0,0.0,0.0,0.0,0.0,0.0,0.0,0.0,0.0,0.0,0.0,0.0,0.0,0.0,0.0,0.0,0.0,0.0,0.0,0.0,0.0,0.0,0.0,0.0,0.0,0.0,0.0,0.0,0.0,0.0,0.0,0.0,0.0,0.0,0.0,0.0,0.0,0.0,0.0,0.0,0.0,0.0,0.0,0.0,0.0,0.0,0.0,0.0,0.0,0.0,0.0,0.0,0.0,0.0,0.0,0.0,0.0,0.0,0.0,0.0,0.0,0.0,0.0,0.0,0.0,0.0,0.0,0.0,0.0,0.0,0.0,0.0,0.0,0.0,0.0,0.0,0.0,0.0,0.0,0.0,0.0,0.0,0.0,0.0,0.0,0.0,0.0,0.0,0.0,0.0,0.0,0.0,0.0,0.0,0.0,0.0,0.0,0.0,0.0,0.0,0.0,0.0,0.0,0.0,0.0,0.0,0.0,0.0,0.0,0.0,0.0,0.0,0.0,0.0,0.0,0.0,0.0,0.0,0.0,0.0,-2.2583,0.0,0.0,0.0,-2.1923,0.0,0.0,0.0,0.0,0.0,0.0,0.0,0.0,0.0,0.0,0.0,0.0,0.0,0.0,0.0,0.0,0.0,0.0,0.0,0.0,0.0,0.0,0.0,0.0,0.0,0.0,0.0,0.0,0.0,0.0,0.0,0.0,0.0,0.0,0.0,0.0,0.0,0.0,0.0,0.0,0.0,0.0,0.0,0.0,0.0,0.0,0.0,0.0,0.0,0.0,0.0,0.0,0.0,0.0,0.0,0.0,0.0,0.0,0.0,0.0,0.0,0.0,0.0,0.0,0.0,0.0,0.0,0.0,0.0,0.0,0.0,0.0,0.0,0.0,0.0,0.0,0.0,0.0,0.0,0.0,0.0,0.0,0.0,0.0,0.0,0.0,0.0,0.0,0.0,0.0,0.0,0.0,0.0,0.0,0.0,0.0,0.0,0.0,0.0,0.0,0.0,0.0,0.0,0.0,0.0,0.0,0.0,0.0,0.0,0.0,-2.2694,-2.2694,-2.2721,-2.2436,-2.1725,0.0,0.0,0.0,0.0,0.0,0.0,0.0,0.0,0.0,0.0,0.0,0.0,0.0,0.0,0.0,0.0,0.0,0.0,0.0,0.0,0.0,0.0,0.0,0.0,0.0,0.0,0.0,0.0,0.0,0.0,0.0,0.0,0.0,0.0,0.0,0.0,0.0,0.0,0.0,0.0,0.0,0.0,0.0,0.0,0.0,0.0,0.0,0.0,0.0,0.0,0.0,0.0,0.0,0.0,0.0,0.0,0.0,0.0,0.0,0.0,0.0,0.0,0.0,0.0,0.0,0.0,0.0,0.0,0.0,0.0,0.0,0.0,0.0,0.0,0.0,0.0,0.0,0.0,0.0,0.0,0.0,0.0,0.0,0.0,0.0,0.0,0.0,0.0,0.0,0.0,0.0,0.0,0.0,0.0,0.0,0.0,0.0,0.0,0.0,0.0,0.0,0.0,0.0,0.0,0.0,0.0,0.0,0.0,0.0,0.0,0.0,0.0,-2.2668,-2.2324,-2.166,0.0,0.0,0.0,0.0,0.0,0.0,0.0,0.0,0.0,0.0,0.0,0.0,0.0,0.0,0.0,0.0,0.0,0.0,0.0,0.0,0.0,0.0,0.0,0.0,0.0,0.0,0.0,0.0,0.0,0.0,0.0,0.0,0.0,0.0,0.0,0.0,0.0,0.0,0.0,0.0,0.0,0.0,0.0,0.0,0.0,0.0,0.0,0.0,0.0,0.0,0.0,0.0,0.0,0.0,0.0,0.0,0.0,0.0,0.0,0.0,0.0,0.0,0.0,0.0,0.0,0.0,0.0,0.0,0.0,0.0,0.0,0.0,0.0,0.0,0.0,0.0,0.0,0.0,0.0,0.0,0.0,0.0,0.0,0.0,0.0,0.0,0.0,0.0,0.0,0.0,0.0,0.0,0.0,0.0,0.0,0.0,0.0,0.0,0.0,0.0,0.0,0.0,0.0,0.0,0.0,0.0,0.0,0.0,0.0,0.0,-2.2615,-2.2703,-2.2649,0.0,-2.1464,0.0,0.0,0.0,0.0,0.0,0.0,0.0,0.0,0.0,0.0,0.0,0.0,0.0,0.0,0.0,0.0,0.0,0.0,0.0,0.0,0.0,0.0,0.0,0.0,0.0,0.0,0.0,0.0,0.0,0.0,0.0,0.0,0.0,0.0,0.0,0.0,0.0,0.0,0.0,0.0,0.0,0.0,0.0,0.0,0.0,0.0,0.0,0.0,0.0,0.0,0.0,0.0,0.0,0.0,0.0,0.0,0.0,0.0,0.0,0.0,0.0,0.0,0.0,0.0,0.0,0.0,0.0,0.0,0.0,0.0,0.0,0.0,0.0,0.0,0.0,0.0,0.0,0.0,0.0,0.0,0.0,0.0,0.0,0.0,0.0,0.0,0.0,0.0,0.0,0.0,0.0,0.0,0.0,0.0,0.0,0.0,0.0,0.0,0.0,0.0,0.0,0.0,0.0,0.0,0.0,0.0,0.0,0.0,0.0,0.0,-2.2569,-2.2561,-2.2569,-2.2139,0.0,0.0,0.0,0.0,0.0,0.0,0.0,0.0,0.0,0.0,0.0,0.0,0.0,0.0,0.0,0.0,0.0,0.0,0.0,0.0,0.0,0.0,0.0,0.0,0.0,0.0,0.0,0.0,0.0,0.0,0.0,0.0,0.0,0.0,0.0,0.0,0.0,0.0,0.0,0.0,0.0,0.0,0.0,0.0,0.0,0.0,0.0,0.0,0.0,0.0,0.0,0.0,0.0,0.0,0.0,0.0,0.0,0.0,0.0,0.0,0.0,0.0,0.0,0.0,0.0,0.0,0.0,0.0,0.0,0.0,0.0,0.0,0.0,0.0,0.0,0.0,0.0,0.0,0.0,0.0,0.0,0.0,0.0,0.0,0.0,0.0,0.0,0.0,0.0,0.0,0.0,0.0,0.0,0.0,0.0,0.0,0.0,0.0,0.0,0.0,0.0,0.0,0.0,0.0,0.0,0.0,0.0,0.0,0.0,0.0,-2.2692,-2.2794,-2.2767,-2.2794,-2.2194,-2.0985,0.0,0.0,0.0,0.0,0.0,0.0,0.0,0.0,0.0,0.0,0.0,0.0,0.0,0.0,0.0,0.0,0.0,0.0,0.0,0.0,0.0,0.0,0.0,0.0,0.0,0.0,0.0,0.0,0.0,0.0,0.0,0.0,0.0,0.0,0.0,0.0,0.0,0.0,0.0,0.0,0.0,0.0,0.0,0.0,0.0,0.0,0.0,0.0,0.0,0.0,0.0,0.0,0.0,0.0,0.0,0.0,0.0,0.0,0.0,0.0,0.0,0.0,0.0,0.0,0.0,0.0,0.0,0.0,0.0,0.0,0.0,0.0,0.0,0.0,0.0,0.0,0.0,0.0,0.0,0.0,0.0,0.0,0.0,0.0,0.0,0.0,0.0,0.0,0.0,0.0,0.0,0.0,0.0,0.0,0.0,0.0,0.0,0.0,0.0,0.0,0.0,0.0,0.0,0.0,0.0,0.0,0.0,0.0,-2.2439,-2.3085,-2.3459,-2.3459,-2.3425,-2.2411,0.0,0.0,0.0,0.0,0.0,0.0,0.0,0.0,0.0,0.0,0.0,0.0,0.0,0.0,0.0,0.0,0.0,0.0,0.0,0.0,0.0,0.0,0.0,0.0,0.0,0.0,0.0,0.0,0.0,0.0,0.0,0.0,0.0,0.0,0.0,0.0,0.0,0.0,0.0,0.0,0.0,0.0,0.0,0.0,0.0,0.0,0.0,0.0,0.0,0.0,0.0,0.0,0.0,0.0,0.0,0.0,0.0,0.0,0.0,0.0,0.0,0.0,0.0,0.0,0.0,0.0,0.0,0.0,0.0,0.0,0.0,0.0,0.0,0.0,0.0,0.0,0.0,0.0,0.0,0.0,0.0,0.0,0.0,0.0,0.0,0.0,0.0,0.0,0.0,0.0,0.0,0.0,0.0,0.0,0.0,0.0,0.0,0.0,0.0,0.0,0.0,0.0,0.0,0.0,0.0,0.0,0.0,0.0,0.0,-2.3033,-2.3774,-2.4147,-2.4147,-2.3706,-2.2592,0.0,0.0,0.0,0.0,0.0,0.0,0.0,0.0,0.0,0.0,0.0,0.0,0.0,0.0,0.0,0.0,0.0,0.0,0.0,0.0,0.0,0.0,0.0,0.0,0.0,0.0,0.0,0.0,0.0,0.0,0.0,0.0,0.0,0.0,0.0,0.0,0.0,0.0,0.0,0.0,0.0,0.0,0.0,0.0,0.0,0.0,0.0,0.0,0.0,0.0,0.0,0.0,0.0,0.0,0.0,0.0,0.0,0.0,0.0,0.0,0.0,0.0,0.0,0.0,0.0,0.0,0.0,0.0,0.0,0.0,0.0,0.0,0.0,0.0,0.0,0.0,0.0,0.0,0.0,0.0,0.0,0.0,0.0,0.0,0.0,0.0,0.0,0.0,0.0,0.0,0.0,0.0,0.0,0.0,0.0,0.0,0.0,0.0,0.0,0.0,0.0,0.0,0.0,0.0,0.0,0.0,0.0,0.0,0.0,-2.4086,-2.4594,-2.4831,-2.4831,-2.4154,-2.3071,0.0,0.0,0.0,0.0,0.0,0.0,0.0,0.0,0.0,0.0,0.0,0.0,0.0,0.0,0.0,0.0,0.0,0.0,0.0,0.0,0.0,0.0,0.0,0.0,0.0,0.0,0.0,0.0,0.0,0.0,0.0,0.0,0.0,0.0,0.0,0.0,0.0,0.0,0.0,0.0,0.0,0.0,0.0,0.0,0.0,0.0,0.0,0.0,0.0,0.0,0.0,0.0,0.0,0.0,0.0,0.0,0.0,0.0,0.0,0.0,0.0,0.0,0.0,0.0,0.0,0.0,0.0,0.0,0.0,0.0,0.0,0.0,0.0,0.0,0.0,0.0,0.0,0.0,0.0,0.0,0.0,0.0,0.0,0.0,0.0,0.0,0.0,0.0,0.0,0.0,0.0,0.0,0.0,0.0,0.0,0.0,0.0,0.0,0.0,0.0,0.0,0.0,0.0,0.0,0.0,0.0,0.0,0.0,-2.4188,-2.5541,-2.5642,-2.5744,-2.5642,-2.4932,-2.3849,0.0,0.0,0.0,0.0,0.0,0.0,0.0,0.0,0.0,0.0,0.0,0.0,0.0,0.0,0.0,0.0,0.0,0.0,0.0,0.0,0.0,0.0,0.0,0.0,0.0,0.0,0.0,0.0,0.0,0.0,0.0,0.0,0.0,0.0,0.0,0.0,0.0,0.0,0.0,0.0,0.0,0.0,0.0,0.0,0.0,0.0,0.0,0.0,0.0,0.0,0.0,0.0,0.0,0.0,0.0,0.0,0.0,0.0,0.0,0.0,0.0,0.0,0.0,0.0,0.0,0.0,0.0,0.0,0.0,0.0,0.0,0.0,0.0,0.0,0.0,0.0,0.0,0.0,0.0,0.0,0.0,0.0,0.0,0.0,0.0,0.0,0.0,0.0,0.0,0.0,0.0,0.0,0.0,0.0,0.0,0.0,0.0,0.0,0.0,0.0,0.0,0.0,0.0,0.0,0.0,0.0,0.0,0.0,0.0,-2.6353,-2.7402,-2.7943,-2.7909,-2.6691,-2.5304,0.0,0.0,0.0,0.0,0.0,0.0,0.0,0.0,0.0,0.0,0.0,0.0,0.0,0.0,0.0,0.0,0.0,0.0,0.0,0.0,0.0,0.0,0.0,0.0,0.0,0.0,0.0,0.0,0.0,0.0,0.0,0.0,0.0,0.0,0.0,0.0,0.0,0.0,0.0,0.0,0.0,0.0,0.0,0.0,0.0,0.0,0.0,0.0,0.0,0.0,0.0,0.0,0.0,0.0,0.0,0.0,0.0,0.0,0.0,0.0,0.0,0.0,0.0,0.0,0.0,0.0,0.0,0.0,0.0,0.0,0.0,0.0,0.0,0.0,0.0,0.0,0.0,0.0,0.0,0.0,0.0,0.0,0.0,0.0,0.0,0.0,0.0,0.0,0.0,0.0,0.0,0.0,0.0,0.0,0.0,0.0,0.0,0.0,0.0,0.0,0.0,0.0,0.0,0.0,0.0,0.0,0.0,0.0,0.0,-2.8789,-2.9702,-3.0074,-2.9803,-2.8349,-2.686,-2.5338,0.0,0.0,0.0,0.0,0.0,0.0,0.0,0.0,0.0,0.0,0.0,0.0,0.0,0.0,0.0,0.0,0.0,0.0,0.0,0.0,0.0,0.0,0.0,0.0,0.0,0.0,0.0,0.0,0.0,0.0,0.0,0.0,0.0,0.0,0.0,0.0,0.0,0.0,0.0,0.0,0.0,0.0,0.0,0.0,0.0,0.0,0.0,0.0,0.0,0.0,0.0,0.0,0.0,0.0,0.0,0.0,0.0,0.0,0.0,0.0,0.0,0.0,0.0,0.0,0.0,0.0,0.0,0.0,0.0,0.0,0.0,0.0,0.0,0.0,0.0,0.0,0.0,0.0,0.0,0.0,0.0,0.0,0.0,0.0,0.0,0.0,0.0,0.0,0.0,0.0,0.0,0.0,0.0,0.0,0.0,0.0,0.0,0.0,0.0,0.0,0.0,0.0,0.0,0.0,0.0,0.0,0.0,0.0,-3.2551,-3.2611,-3.2307,-3.1461,-2.9973,-2.845,0.0,0.0,0.0,0.0,0.0,0.0,0.0,0.0,0.0,0.0,0.0,0.0,0.0,0.0,0.0,0.0,0.0,0.0,0.0,0.0,0.0,0.0,0.0,0.0,0.0,0.0,0.0,0.0,0.0,0.0,0.0,0.0,0.0,0.0,0.0,0.0,0.0,0.0,0.0,0.0,0.0,0.0,0.0,0.0,0.0,0.0,0.0,0.0,0.0,0.0,0.0,0.0,0.0,0.0,0.0,0.0,0.0,0.0,0.0,0.0,0.0,0.0,0.0,0.0,0.0,0.0,0.0,0.0,0.0,0.0,0.0,0.0,0.0,0.0,0.0,0.0,0.0,0.0,0.0,0.0,0.0,0.0,0.0,0.0,0.0,0.0,0.0,0.0,0.0,0.0,0.0,0.0,0.0,0.0,0.0,0.0,0.0,0.0,0.0,0.0,0.0,0.0,0.0,0.0,0.0,0.0,0.0,0.0,0.0,-3.552,-3.6671,-3.6366,-3.4506,-3.2476,-3.0717,0.0,0.0,0.0,0.0,0.0,0.0,0.0,0.0,0.0,0.0,0.0,0.0,0.0,0.0,0.0,0.0,0.0,0.0,0.0,0.0,0.0,0.0,0.0,0.0,0.0,0.0,0.0,0.0,0.0,0.0,0.0,0.0,0.0,0.0,0.0,0.0,0.0,0.0,0.0,0.0,0.0,0.0,0.0,0.0,0.0,0.0,0.0,0.0,0.0,0.0,0.0,0.0,0.0,0.0,0.0,0.0,0.0,0.0,0.0,0.0,0.0,0.0,0.0,0.0,0.0,0.0,0.0,0.0,0.0,0.0,0.0,0.0,0.0,0.0,0.0,0.0,0.0,0.0,0.0,0.0,0.0,0.0,0.0,0.0,0.0,0.0,0.0,0.0,0.0,0.0,0.0,0.0,0.0,0.0,0.0,0.0,0.0,0.0,0.0,0.0,0.0,0.0,0.0,0.0,0.0,0.0,0.0,0.0,-3.481,-3.6738,-3.8531,-3.8836,-3.7516,-3.5013,-3.2713,0.0,0.0,0.0,0.0,0.0,0.0,0.0,0.0,0.0,0.0,0.0,0.0,0.0,0.0,0.0,0.0,0.0,0.0,0.0,0.0,0.0,0.0,0.0,0.0,0.0,0.0,0.0,0.0,0.0,0.0,0.0,0.0,0.0,0.0,0.0,0.0,0.0,0.0,0.0,0.0,0.0,0.0,0.0,0.0,0.0,0.0,0.0,0.0,0.0,0.0,0.0,0.0,0.0,0.0,0.0,0.0,0.0,0.0,0.0,0.0,0.0,0.0,0.0,0.0,0.0,0.0,0.0,0.0,0.0,0.0,0.0,0.0,0.0,0.0,0.0,0.0,0.0,0.0,0.0,0.0,0.0,0.0,0.0,0.0,0.0,0.0,0.0,0.0,0.0,0.0,0.0,0.0,0.0,0.0,0.0,0.0,0.0,0.0,0.0,0.0,0.0,0.0,0.0,0.0,0.0,0.0,0.0,0.0,-3.5453,-3.711,-3.9122,-4.0121,-4.0121,-3.7313,-3.4438,0.0,0.0,0.0,0.0,0.0,0.0,0.0,0.0,0.0,0.0,0.0,0.0,0.0,0.0,0.0,0.0,0.0,0.0,0.0,0.0,0.0,0.0,0.0,0.0,0.0,0.0,0.0,0.0,0.0,0.0,0.0,0.0,0.0,0.0,0.0,0.0,0.0,0.0,0.0,0.0,0.0,0.0,0.0,0.0,0.0,0.0,0.0,0.0,0.0,0.0,0.0,0.0,0.0,0.0,0.0,0.0,0.0,0.0,0.0,0.0,0.0,0.0,0.0,0.0,0.0,0.0,0.0,0.0,0.0,0.0,0.0,0.0,0.0,0.0,0.0,0.0,0.0,0.0,0.0,0.0,0.0,0.0,0.0,0.0,0.0,0.0,0.0,0.0,0.0,0.0,0.0,0.0,0.0,0.0,0.0,0.0,0.0,0.0,0.0,0.0,0.0,0.0,0.0,0.0,0.0,0.0,0.0,0.0,-3.6671,-3.9309,-3.9851,-4.0358,-4.0933,-3.8091,-3.569,0.0,0.0,0.0,0.0,0.0,0.0,0.0,0.0,0.0,0.0,0.0,0.0,0.0,0.0,0.0,0.0,0.0,0.0,0.0,0.0,0.0,0.0,0.0,0.0,0.0,0.0,0.0,0.0,0.0,0.0,0.0,0.0,0.0,0.0,0.0,0.0,0.0,0.0,0.0,0.0,0.0,0.0,0.0,0.0,0.0,0.0,0.0,0.0,-2.7801,0.0,0.0,0.0,0.0,0.0,0.0,0.0,0.0,0.0,0.0,0.0,0.0,0.0,0.0,0.0,0.0,0.0,0.0,0.0,0.0,0.0,0.0,0.0,0.0,0.0,0.0,0.0,0.0,0.0,0.0,0.0,0.0,0.0,0.0,0.0,0.0,0.0,0.0,0.0,0.0,0.0,0.0,0.0,0.0,0.0,0.0,0.0,0.0,0.0,0.0,0.0,0.0,0.0,0.0,0.0,0.0,0.0,0.0,0.0,-3.7787,-4.007,-4.0764,-4.1305,-4.1644,-3.9851,-3.7483,0.0,0.0,0.0,0.0,0.0,0.0,0.0,0.0,0.0,0.0,0.0,0.0,0.0,0.0,0.0,0.0,0.0,0.0,0.0,0.0,0.0,0.0,0.0,0.0,0.0,0.0,0.0,0.0,0.0,0.0,0.0,0.0,0.0,0.0,0.0,0.0,0.0,0.0,0.0,0.0,0.0,0.0,0.0,0.0,0.0,0.0,0.0,0.0,0.0,0.0,0.0,0.0,0.0,0.0,0.0,0.0,0.0,0.0,0.0,0.0,0.0,0.0,0.0,0.0,0.0,0.0,0.0,0.0,0.0,0.0,0.0,0.0,0.0,0.0,0.0,0.0,0.0,0.0,0.0,0.0,0.0,0.0,0.0,0.0,0.0,0.0,0.0,0.0,0.0,0.0,0.0,0.0,0.0,0.0,0.0,0.0,0.0,0.0,0.0,0.0,0.0,0.0,0.0,0.0,0.0,0.0,0.0,-3.6096,-3.8734,-4.0392,-4.1644,-4.2354,-4.2455,-4.1745,-3.9309,-3.5013,0.0,0.0,0.0,0.0,0.0,0.0,0.0,0.0,0.0,0.0,0.0,0.0,0.0,0.0,0.0,0.0,0.0,0.0,0.0,0.0,0.0,0.0,0.0,0.0,0.0,0.0,0.0,0.0,0.0,0.0,0.0,0.0,0.0,0.0,0.0,0.0,0.0,0.0,-2.5033,-2.6996,0.0,0.0,0.0,0.0,0.0,0.0,0.0,0.0,-3.1926,0.0,0.0,0.0,0.0,0.0,0.0,0.0,0.0,0.0,0.0,0.0,0.0,0.0,0.0,0.0,0.0,0.0,0.0,0.0,0.0,0.0,0.0,0.0,0.0,0.0,0.0,0.0,0.0,0.0,0.0,0.0,0.0,0.0,0.0,0.0,0.0,0.0,0.0,0.0,0.0,0.0,0.0,0.0,0.0,0.0,0.0,0.0,0.0,0.0,0.0,0.0,0.0,0.0,0.0,0.0,0.0,-3.41,-3.6637,-3.9208,-4.1847,-4.2151,-4.2591,-4.3166,-4.2489,-4.0324,-3.6569,0.0,0.0,0.0,0.0,0.0,0.0,0.0,0.0,0.0,0.0,0.0,0.0,0.0,0.0,0.0,0.0,0.0,0.0,0.0,0.0,0.0,0.0,0.0,0.0,0.0,0.0,0.0,0.0,0.0,0.0,0.0,0.0,0.0,0.0,0.0,0.0,0.0,0.0,0.0,-2.9634,-3.0915,0.0,0.0,0.0,0.0,0.0,0.0,0.0,0.0,-3.3594,0.0,0.0,0.0,0.0,0.0,0.0,0.0,0.0,0.0,0.0,0.0,0.0,0.0,0.0,0.0,0.0,0.0,0.0,0.0,0.0,0.0,0.0,0.0,0.0,0.0,0.0,0.0,0.0,0.0,0.0,0.0,0.0,0.0,0.0,0.0,0.0,0.0,0.0,0.0,0.0,0.0,0.0,0.0,0.0,0.0,0.0,0.0,0.0,0.0,0.0,0.0,0.0,0.0,0.0,0.0,-3.5081,-3.8058,-4.0696,-4.2794,-4.3267,-4.3639,-4.3978,-4.2557,-4.0358,0.0,0.0,0.0,0.0,0.0,0.0,0.0,0.0,0.0,0.0,0.0,0.0,0.0,0.0,0.0,0.0,0.0,0.0,0.0,0.0,0.0,0.0,0.0,0.0,0.0,0.0,0.0,0.0,0.0,0.0,0.0,0.0,0.0,0.0,0.0,0.0,0.0,0.0,0.0,0.0,-3.1664,-3.2975,-3.4779,0.0,0.0,0.0,0.0,0.0,0.0,-3.6189,-3.5538,0.0,0.0,0.0,0.0,0.0,0.0,0.0,0.0,0.0,0.0,0.0,0.0,0.0,0.0,0.0,0.0,0.0,0.0,0.0,0.0,0.0,0.0,0.0,0.0,0.0,0.0,0.0,0.0,0.0,0.0,0.0,0.0,0.0,0.0,0.0,0.0,0.0,0.0,0.0,0.0,0.0,0.0,0.0,0.0,0.0,0.0,0.0,0.0,0.0,0.0,0.0,0.0,0.0,0.0,0.0,-3.5859,-3.9377,-4.1914,-4.3369,-4.4181,-4.4553,-4.4519,-4.2523,-4.0324,0.0,0.0,0.0,0.0,0.0,0.0,0.0,0.0,0.0,0.0,0.0,0.0,0.0,0.0,0.0,0.0,0.0,0.0,0.0,0.0,0.0,0.0,0.0,0.0,0.0,0.0,0.0,0.0,0.0,0.0,0.0,0.0,0.0,0.0,0.0,0.0,0.0,0.0,0.0,0.0,0.0,-3.4766,-3.7354,-3.6835,0.0,0.0,0.0,0.0,-3.7894,-3.7849,0.0,0.0,0.0,0.0,0.0,0.0,0.0,0.0,0.0,0.0,0.0,0.0,0.0,0.0,0.0,0.0,0.0,0.0,0.0,0.0,0.0,0.0,0.0,0.0,0.0,0.0,0.0,0.0,0.0,0.0,0.0,0.0,0.0,0.0,0.0,0.0,0.0,0.0,0.0,0.0,0.0,0.0,0.0,0.0,0.0,0.0,0.0,0.0,0.0,0.0,0.0,0.0,0.0,0.0,0.0,0.0,-3.6637,-3.9648,-4.1914,-4.3369,-4.4181,-4.4553,-4.4553,-4.2997,-4.0832,0.0,0.0,0.0,0.0,0.0,0.0,0.0,0.0,0.0,0.0,0.0,0.0,0.0,0.0,0.0,0.0,0.0,0.0,0.0,0.0,0.0,0.0,0.0,0.0,0.0,0.0,0.0,0.0,0.0,0.0,0.0,0.0,0.0,0.0,0.0,0.0,0.0,0.0,0.0,0.0,0.0,-3.5915,-3.7686,-3.8198,-3.8486,0.0,0.0,-3.8587,-3.8821,-3.8771,0.0,0.0,0.0,0.0,0.0,0.0,0.0,0.0,0.0,0.0,0.0,0.0,0.0,0.0,0.0,0.0,0.0,0.0,0.0,0.0,0.0,0.0,0.0,0.0,0.0,0.0,0.0,0.0,0.0,0.0,0.0,0.0,0.0,0.0,0.0,0.0,0.0,0.0,0.0,0.0,0.0,0.0,0.0,0.0,0.0,0.0,0.0,0.0,0.0,0.0,0.0,0.0,0.0,0.0,0.0,-3.5013,-3.8024,-4.0933,-4.2997,-4.4045,-4.4418,-4.4553,-4.4553,-4.2286,-4.0257,0.0,0.0,0.0,0.0,0.0,0.0,0.0,0.0,0.0,0.0,0.0,0.0,0.0,0.0,0.0,0.0,0.0,0.0,0.0,0.0,0.0,0.0,0.0,0.0,0.0,0.0,0.0,0.0,0.0,0.0,0.0,0.0,0.0,0.0,0.0,0.0,0.0,0.0,0.0,0.0,0.0,0.0,-3.887,-3.9733,0.0,0.0,0.0,-4.0206,-4.0257,0.0,0.0,0.0,0.0,0.0,0.0,0.0,0.0,0.0,0.0,0.0,0.0,0.0,0.0,0.0,0.0,0.0,0.0,0.0,0.0,0.0,0.0,0.0,0.0,0.0,0.0,0.0,0.0,0.0,0.0,0.0,0.0,0.0,0.0,0.0,0.0,0.0,0.0,0.0,0.0,0.0,0.0,0.0,0.0,0.0,0.0,0.0,0.0,0.0,0.0,0.0,0.0,0.0,0.0,0.0,0.0,0.0,-3.8971,-4.1914,-4.3809,-4.4553,-4.4553,-4.4553,-4.4519,-4.2185,0.0,0.0,0.0,0.0,0.0,0.0,0.0,0.0,0.0,0.0,0.0,0.0,0.0,0.0,0.0,0.0,0.0,0.0,0.0,0.0,0.0,0.0,0.0,0.0,0.0,0.0,0.0,-2.3067,0.0,0.0,0.0,0.0,0.0,0.0,0.0,0.0,0.0,0.0,0.0,0.0,0.0,0.0,-3.7691,-3.9817,-4.0899,-4.1542,0.0,0.0,-4.1474,-4.1474,-4.1842,-4.1398,0.0,0.0,0.0,0.0,0.0,0.0,0.0,0.0,0.0,0.0,0.0,0.0,0.0,0.0,0.0,0.0,0.0,0.0,0.0,0.0,0.0,0.0,0.0,0.0,0.0,0.0,0.0,0.0,0.0,0.0,0.0,0.0,0.0,0.0,0.0,0.0,0.0,0.0,0.0,0.0,0.0,0.0,0.0,0.0,0.0,0.0,0.0,0.0,0.0,0.0,0.0,0.0,0.0,0.0,-3.5994,-3.8971,-4.1914,-4.3809,-4.4519,-4.4553,-4.4553,-4.4553,-4.3673,-4.1847,0.0,0.0,0.0,0.0,0.0,0.0,0.0,0.0,0.0,0.0,0.0,0.0,0.0,0.0,0.0,0.0,0.0,0.0,0.0,0.0,0.0,0.0,0.0,0.0,0.0,0.0,0.0,0.0,0.0,0.0,0.0,0.0,0.0,0.0,0.0,0.0,0.0,0.0,0.0,0.0,0.0,-3.8216,-3.9851,-4.1305,-4.2455,0.0,-4.2658,-4.2219,-4.2219,-4.2252,-4.162,-3.974,0.0,0.0,0.0,0.0,0.0,0.0,0.0,0.0,0.0,0.0,0.0,0.0,0.0,0.0,0.0,0.0,0.0,0.0,0.0,0.0,0.0,0.0,0.0,0.0,0.0,0.0,0.0,0.0,0.0,0.0,0.0,0.0,0.0,0.0,0.0,0.0,0.0,0.0,0.0,0.0,0.0,0.0,0.0,0.0,0.0,0.0,0.0,0.0,0.0,0.0,0.0,0.0,0.0,-3.7144,-3.9648,-4.2591,-4.4282,-4.4553,-4.4553,-4.4553,-4.4553,-4.3809,-4.2455,0.0,0.0,0.0,0.0,0.0,0.0,0.0,0.0,0.0,0.0,0.0,0.0,0.0,0.0,0.0,0.0,0.0,0.0,0.0,0.0,0.0,0.0,0.0,0.0,0.0,0.0,0.0,0.0,-3.3897,-3.4506,-3.3069,0.0,0.0,0.0,0.0,0.0,0.0,0.0,0.0,0.0,0.0,-3.8992,-4.117,-4.232,0.0,0.0,-4.25,-4.2468,-4.269,-4.2756,-4.2294,-4.0812,-3.9534,0.0,0.0,0.0,0.0,0.0,0.0,0.0,0.0,0.0,0.0,0.0,0.0,0.0,0.0,0.0,0.0,0.0,0.0,0.0,0.0,0.0,0.0,0.0,0.0,0.0,0.0,0.0,0.0,0.0,0.0,0.0,0.0,0.0,0.0,0.0,0.0,0.0,0.0,0.0,0.0,0.0,0.0,0.0,0.0,0.0,0.0,0.0,0.0,0.0,0.0,0.0,0.0,-3.7956,-4.0392,-4.3369,-4.5026,-4.5229,-4.5229,-4.5229,-4.5229,-4.4722,-4.3741,0.0,0.0,0.0,0.0,0.0,0.0,0.0,0.0,0.0,0.0,0.0,0.0,0.0,0.0,0.0,0.0,0.0,0.0,0.0,0.0,0.0,0.0,0.0,0.0,0.0,0.0,0.0,0.0,-3.5814,-3.5566,-3.3446,0.0,0.0,0.0,0.0,0.0,0.0,0.0,0.0,0.0,0.0,-4.0337,-4.2281,-4.3158,-4.3406,-4.2812,-4.2699,-4.28,-4.3065,-4.3086,-4.2687,-4.1416,0.0,0.0,0.0,0.0,0.0,0.0,0.0,0.0,0.0,0.0,0.0,0.0,0.0,0.0,0.0,0.0,0.0,0.0,0.0,0.0,0.0,0.0,0.0,0.0,0.0,0.0,0.0,-2.1068,0.0,0.0,-1.8809,0.0,0.0,0.0,0.0,0.0,0.0,0.0,0.0,0.0,0.0,0.0,0.0,0.0,0.0,0.0,0.0,0.0,0.0,0.0,0.0,0.0,0.0,-3.8261,-4.117,-4.4147,-4.6007,-4.6684,-4.6718,-4.6684,-4.6684,-4.6718,-4.6007,-4.4485,0.0,0.0,0.0,0.0,0.0,0.0,0.0,0.0,0.0,0.0,0.0,0.0,0.0,0.0,0.0,0.0,0.0,0.0,0.0,0.0,0.0,0.0,0.0,0.0,0.0,0.0,-3.3592,-3.4722,-3.4936,0.0,0.0,0.0,0.0,0.0,0.0,0.0,0.0,0.0,-3.8187,-4.0538,-4.2274,-4.3115,-4.3742,-4.4006,-4.3798,-4.3469,-4.329,-4.3323,-4.3174,-4.2668,0.0,0.0,0.0,0.0,0.0,0.0,0.0,0.0,0.0,0.0,0.0,0.0,0.0,0.0,0.0,0.0,0.0,0.0,0.0,0.0,0.0,0.0,0.0,0.0,0.0,0.0,0.0,-2.4872,-2.5077,0.0,0.0,0.0,0.0,0.0,0.0,0.0,0.0,0.0,0.0,0.0,-3.6648,-3.6877,0.0,0.0,0.0,0.0,0.0,0.0,0.0,0.0,0.0,0.0,0.0,0.0,-3.9952,-4.1948,-4.4891,-4.6549,-4.6786,-4.6786,-4.6786,-4.6786,-4.6786,-4.6109,-4.4621,0.0,0.0,0.0,0.0,0.0,0.0,0.0,0.0,0.0,0.0,0.0,0.0,0.0,0.0,0.0,0.0,0.0,0.0,0.0,0.0,0.0,0.0,0.0,0.0,0.0,-3.5239,0.0,0.0,0.0,0.0,0.0,0.0,0.0,0.0,0.0,0.0,-3.59,-3.8589,-4.0639,-4.1547,-4.2601,-4.4255,-4.4574,-4.467,0.0,0.0,0.0,0.0,0.0,0.0,0.0,0.0,0.0,0.0,0.0,0.0,0.0,0.0,-3.6833,-3.363,-3.341,-3.367,-3.3724,0.0,0.0,0.0,0.0,0.0,0.0,0.0,0.0,0.0,0.0,0.0,0.0,0.0,0.0,-2.9693,-2.9453,-2.9728,0.0,0.0,0.0,0.0,0.0,0.0,0.0,0.0,-3.7237,-3.9247,-4.0568,-4.0363,-4.05,-4.091,-3.9583,-3.741,0.0,0.0,0.0,0.0,0.0,0.0,0.0,0.0,-4.1339,-4.3098,-4.5828,-4.7352,-4.759,-4.7683,-4.7683,-4.7623,-4.7623,-4.7124,-4.6143,-4.4418,-4.2306,0.0,0.0,0.0,0.0,0.0,0.0,0.0,0.0,0.0,0.0,0.0,0.0,0.0,0.0,0.0,0.0,0.0,0.0,0.0,0.0,0.0,0.0,0.0,-3.7638,0.0,0.0,0.0,0.0,0.0,0.0,0.0,0.0,0.0,-3.6319,-3.8923,-4.1493,-4.2992,-4.3339,-4.393,-4.519,0.0,0.0,0.0,0.0,0.0,0.0,0.0,-4.3451,-4.2931,-4.2479,-4.1959,-4.1454,-4.1106,-4.0851,-4.0851,0.0,0.0,-3.6907,-3.6658,-3.6969,-3.6969,-3.6783,-3.6969,-3.8122,-3.809,-3.8399,0.0,0.0,0.0,0.0,-3.0446,0.0,0.0,0.0,-3.5522,-3.4802,0.0,-3.4905,0.0,0.0,0.0,0.0,-2.8939,-3.3933,0.0,0.0,-4.2535,-4.4263,-4.31,-4.3681,-4.4023,-4.392,-4.1834,-4.1492,-4.2621,-3.9729,0.0,0.0,0.0,0.0,0.0,0.0,-4.2388,-4.4677,-4.6961,-4.8481,-4.9161,-4.9411,-4.9411,-4.9195,-4.9046,-4.8951,-4.8917,-4.6921,-4.549,-4.4776,-4.0527,0.0,0.0,0.0,0.0,0.0,0.0,0.0,0.0,0.0,0.0,0.0,0.0,0.0,0.0,0.0,0.0,0.0,0.0,0.0,0.0,-3.8396,0.0,0.0,0.0,0.0,0.0,0.0,0.0,0.0,0.0,-4.0347,-3.8972,-4.1264,-4.3652,-4.506,0.0,0.0,0.0,0.0,-4.5276,-4.4619,-4.4108,-4.3794,-4.3615,-4.3934,-4.3946,-4.3107,0.0,0.0,-4.1955,-4.1186,-4.0847,-4.0755,-4.1463,-4.1666,-4.123,-4.0956,-4.0925,-4.0925,-4.0391,-4.0364,-4.0894,-4.0572,-4.0467,-3.6517,0.0,0.0,0.0,0.0,-3.5001,-3.7137,-4.0341,-4.0685,-4.041,-3.9721,-4.0479,0.0,0.0,0.0,0.0,0.0,0.0,-3.9295,-4.1595,-4.363,-4.5164,-4.6315,-4.6522,-4.6625,-4.6591,-4.5863,-4.574,-4.6117,-4.5644,-4.3557,-4.0027,0.0,0.0,0.0,0.0,-4.4749,-4.6544,-4.8216,-4.9206,-4.9411,-4.9471,-4.9411,-4.9229,-4.9168,-4.9107,-4.9168,-4.8557,-4.7427,-4.5794,-4.3878,0.0,0.0,0.0,0.0,0.0,0.0,0.0,0.0,0.0,0.0,0.0,0.0,0.0,0.0,0.0,0.0,0.0,0.0,0.0,-3.7787,-4.0696,-4.1861,0.0,0.0,0.0,0.0,0.0,0.0,0.0,0.0,0.0,-4.427,-4.5091,-4.5799,0.0,0.0,-4.6333,-4.6881,-4.6515,-4.6325,-4.6529,-4.6496,0.0,-4.597,-4.5973,-4.6035,-4.5773,-4.5743,-4.5511,-4.4572,-4.4664,-4.4849,-4.4849,-4.5033,-4.5172,-4.497,-4.3395,-4.2283,-4.216,-4.2345,-4.2777,-4.3395,-4.3661,-4.4123,-4.1595,-3.9733,-3.7663,-3.7456,-3.856,-3.8732,-4.0733,-4.3837,-4.432,-4.3906,-4.2975,-4.4354,-4.1836,-3.6559,-3.7051,0.0,0.0,0.0,-4.2452,-4.4975,-4.5476,-4.6408,-4.7665,-4.77,-4.7872,-4.8114,-4.7451,-4.7567,-4.8518,-4.7957,-4.6632,-4.4559,0.0,-4.351,-4.4126,-4.5323,-4.6554,-4.7752,-4.8915,-4.959,-4.959,-4.959,-4.953,-4.9411,-4.935,-4.929,-4.929,-4.929,-4.8703,-4.7489,-4.6317,-4.4504,0.0,0.0,0.0,0.0,0.0,0.0,0.0,0.0,0.0,0.0,0.0,-3.1799,-3.3288,0.0,0.0,0.0,-3.8328,-3.9478,-4.1847,-4.3707,0.0,0.0,0.0,0.0,0.0,0.0,0.0,-4.3987,-4.5446,-4.6776,-4.7787,-4.8044,-4.8044,-4.7861,-4.7625,-4.7671,-4.809,0.0,-4.7543,-4.7714,-4.7934,-4.7964,-4.7645,-4.7781,-4.7966,-4.7966,-4.7639,-4.7281,-4.688,-4.7127,-4.7373,-4.7404,-4.7404,-4.7404,-4.7404,-4.6049,-4.4787,-4.4326,-4.4479,-4.491,-4.5311,-4.5711,-4.6111,-4.5596,-4.5182,-4.0353,-3.9905,-4.225,-4.1698,-4.3457,-4.6734,-4.6837,-4.6044,-4.4837,-4.6941,-4.4768,-3.9526,-3.9662,0.0,-4.3715,-4.4422,-4.5821,-4.7803,-4.7803,-4.7838,-4.7907,-4.7907,-4.8252,-4.8872,-4.7527,-4.7976,-4.9838,-4.7907,-4.7562,-4.8816,-4.7992,-4.7102,-4.6418,-4.7033,-4.7786,-4.8504,-4.9306,-4.9742,-4.9777,-4.9811,-4.9845,-4.9914,-4.9761,-4.9736,-4.9736,-4.9736,-4.9736,-4.9667,-4.8226,-4.7009,-4.6056,0.0,0.0,0.0,0.0,0.0,0.0,0.0,0.0,0.0,0.0,0.0,0.0,0.0,0.0,0.0,-4.3301,0.0,-4.6616,-4.6921,0.0,0.0,0.0,-4.4663,-4.4514,-4.5186,-4.6193,-4.7569,0.0,0.0,-4.9843,-5.0173,-5.024,-5.0152,-5.0025,-4.9768,-4.9505,-4.9277,-4.9032,-4.876,-4.8984,-4.9192,-4.918,-4.9558,-4.9897,-4.9897,-4.9374,-4.9035,-4.8974,-4.9004,-4.8974,-4.8912,-4.8881,-4.885,-4.8789,-4.8666,-4.8389,-4.7127,-4.688,-4.685,-4.6911,-4.7004,-4.7127,-4.7182,-4.7079,-4.5803,-4.5389,-4.5527,-4.5941,-4.6941,-4.8321,-4.8941,-4.8665,-4.7838,-4.8941,-4.8665,-4.7286,-4.7286,-4.7355,-4.7493,-4.7665,-4.8045,-4.8562,-4.8562,-4.8872,-4.9459,-4.9459,-4.9562,-4.97,-4.9355,-4.9459,-4.9976,-4.9459,-4.9355,-4.97,-4.947,-4.8965,-4.8208,-4.8346,-4.8827,-4.9584,-4.9849,-5.0194,-5.0745,-5.0779,-5.0995,-5.1424,-5.1424,-5.1398,-5.1398,-5.1398,-5.1459,-5.1546,-5.1115,-4.9958,-4.8037,-4.5738,0.0,0.0,0.0,0.0,0.0,0.0,0.0,0.0,0.0,-3.8802,-4.0832,0.0,-4.3978,0.0,-4.7361,-4.8037,-4.6177,-4.797,0.0,0.0,-4.7673,-4.7673,-4.7072,-4.8152,-4.9125,-4.9463,-5.0004,-5.0511,-5.0848,-5.142,-5.1933,-5.2283,-5.1229,-5.0546,-5.1057,-5.0938,-5.0975,-5.1623,-5.1704,-5.1832,-5.1682,-5.1867,-5.1959,-5.199,-5.1836,-5.1744,-5.1744,-5.1744,-5.1559,-5.1097,-5.0974,-5.079,-5.0328,-5.0205,-5.0143,-4.9743,-4.9312,-4.8943,-4.8943,-4.9343,-4.9712,-4.77,-4.77,-4.77,-4.7665,-4.7596,-4.77,-4.7941,-4.8355,-4.8803,-4.8734,-4.8355,-4.8803,-4.9183,-4.9493,-4.9459,-4.9424,-4.9355,-4.9355,-4.9355,-4.9355,-4.9355,-4.9597,-5.0011,-5.0011,-5.0011,-5.0011,-5.0011,-5.0011,-5.0011,-5.0011,-5.0183,-5.0493,-5.0493,-5.0424,-5.0321,-4.9666,-4.9735,-5.0493,-5.0804,-5.1183,-5.1563,-5.1597,-5.1744,-5.2096,-5.2096,-5.2096,-5.2096,-5.2096,-5.2096,-5.2096,-5.2035,-5.1253,-4.958,-4.7875,-4.558,0.0,0.0,0.0,0.0,0.0,0.0,0.0,0.0,0.0,0.0,0.0,-4.6887,-4.7733,-4.9492,-4.9796,-4.7834,-4.9424,-5.027,-4.9458,-5.0033,-5.0304,-4.9898,-5.0913,-5.1623,-5.1623,-5.1995,-5.21,-5.1732,-5.23,-5.2815,-5.3039,-5.2455,-5.2157,-5.2618,-5.2504,-5.2564,-5.3186,-5.3497,-5.3622,-5.3591,-5.3622,-5.3622,-5.3622,-5.3622,-5.3622,-5.3622,-5.3591,-5.3468,-5.3129,-5.3067,-5.2944,-5.2544,-5.2483,-5.2483,-5.2452,-5.2206,-5.1498,-5.0389,-5.0667,-5.1128,-4.801,-4.801,-4.801,-4.839,-4.8907,-4.8286,-4.801,-4.801,-4.801,-4.801,-4.801,-4.801,-4.8355,-4.8976,-4.9079,-4.9424,-5.0011,-5.0114,-5.0114,-5.0011,-5.0011,-5.0011,-5.0011,-5.0011,-5.0011,-5.0011,-5.0114,-5.0149,-5.0149,-5.0252,-5.0631,-5.1218,-5.1252,-5.1563,-5.2149,-5.0942,-5.0597,-5.1252,-5.1873,-5.2287,-5.2356,-5.239,-5.2425,-5.2494,-5.2528,-5.2528,-5.2494,-5.2494,-5.2433,-5.2344,-5.2344,-5.1905,-5.0967,-4.9513,-4.769,0.0,-4.4529,0.0,0.0,0.0,0.0,0.0,0.0,0.0,0.0,-4.8477,-4.9289,-4.9289,-5.0642,-5.1183,-5.0439,-5.115,-5.1623,-5.1522,-5.2063,-5.2503,-5.2604,-5.3213,-5.3687,-5.3754,-5.3788,-5.3481,-5.2748,-5.3135,-5.3324,-5.3267,-5.3629,-5.3985,-5.4229,-5.4075,-5.3991,-5.4083,-5.4607,-5.5007,-5.5007,-5.4976,-5.5007,-5.5007,-5.4976,-5.4976,-5.4976,-5.5007,-5.4945,-5.4822,-5.476,-5.473,-5.476,-5.4637,-5.4637,-5.4514,-5.4453,-5.3775,-5.199,-5.1805,-5.2082,-4.9562,-4.9562,-4.9562,-4.9666,-4.9769,-4.9631,-4.9562,-4.9562,-4.9562,-4.9562,-4.9597,-4.9562,-4.9631,-4.9838,-5.0424,-5.0424,-5.0045,-5.0631,-5.0562,-5.0011,-5.0011,-5.0011,-5.0011,-5.0011,-5.0011,-5.0045,-5.0597,-5.0907,-5.0907,-5.1528,-5.1873,-5.2011,-5.2011,-5.208,-5.2183,0.0,0.0,0.0,-5.2149,-5.2528,-5.3149,-5.3184,-5.346,-5.4046,-5.408,0.0,-5.408,-5.408,-5.408,-5.4018,-5.4018,0.0,0.0,0.0,0.0,0.0,0.0,0.0,0.0,0.0,0.0,0.0,-4.912,-4.983,-4.9526,-5.0304,-5.0811,-5.0845,-5.2198,-5.2739,-5.1995,-5.3145,-5.3721,-5.3145,-5.3213,-5.3518,-5.4059,-5.4296,-5.46,-5.5209,-5.5277,-5.4962,-5.407,-5.4088,-5.4228,-5.4401,-5.4592,-5.5144,-5.6061,-5.5594,-5.553,-5.6053,-5.6176,-5.633,-5.6392,-5.633,-5.6238,-5.6361,-5.6361,-5.6361,-5.633,-5.633,-5.6115,-5.5715,-5.553,-5.5376,-5.4914,-5.473,-5.4884,-5.476,-5.476,-5.4576,-5.4083,-5.4052,-5.4145,-5.0011,-5.0011,-5.0011,-5.0011,0.0,-5.0011,-5.0011,-5.0011,-5.0011,-5.0011,-5.0011,-5.0011,-5.0011,-5.0011,-5.039,-5.0355,-5.0045,-5.039,-5.0355,-5.0011,-5.0011,-5.0218,-5.0562,-5.0562,-5.0735,-5.1114,-5.1459,-5.1666,-5.1666,-5.2046,-5.2425,-5.2804,-5.2804,-5.2977,-5.3356,-5.3701,-5.3563,-5.2804,-5.3149,-5.3701,-5.446,-5.4494,-5.4874,-5.5598,-5.5632,0.0,0.0,0.0,0.0,0.0,0.0,0.0,0.0,-5.3768,0.0,-5.1157,-5.0803,-5.0507,-5.0168,-5.0777,-5.1386,-5.1758,-5.2807,-5.3112,-5.2367,-5.301,-5.345,-5.345,-5.416,-5.4431,-5.4059,-5.4702,-5.5006,-5.4634,-5.46,-5.4769,-5.5074,-5.5141,-5.5137,-5.5085,-5.5434,-5.508,-5.3363,-5.417,-5.46,-5.4423,-5.4878,-5.5689,-5.6584,-5.6453,-5.6392,-5.67,-5.6761,-5.6761,-5.6761,-5.6761,-5.6761,-5.6761,-5.6761,-5.6884,-5.7223,-5.7254,-5.7223,-5.7192,-5.7223,-5.71,-5.6823,-5.673,-5.673,-5.673,-5.673,-5.673,-5.6669,-5.593,-5.5191,-5.0011,-5.0011,-5.0011,-5.0011,-5.0011,-5.0011,-5.0011,-5.0011,-5.0011,0.0,0.0,-5.0011,-5.0011,-5.0011,-5.0011,-5.008,-5.0218,-5.0218,-5.0287,-5.039,-5.0528,-5.0873,-5.1321,-5.1459,-5.177,-5.2218,-5.2356,-5.2425,-5.2425,-5.2563,-5.2942,-5.3563,-5.3736,-5.4149,-5.4908,-5.5529,-5.5219,-5.4115,-5.4598,-5.5219,-5.5805,-5.5839,-5.615,-5.6805,-5.6805,-5.6805,-5.6805,-5.6805,-5.6805,-5.6805,-5.6805,-5.6429,-5.5647,-5.5379,-5.47,-5.3343,-5.3619,-5.389,-5.389,-5.4431,-5.5108,-5.5886,-5.6021,-5.5716,-5.4871,-5.5378,-5.5716,-5.5716,-5.5852,-5.5919,-5.5919,-5.6021,-5.6055,-5.5953,-5.5919,-5.5886,-5.5919,-5.5919,-5.5636,-5.5048,-5.5609,-5.5132,-5.3031,-5.4186,-5.507,-5.4448,-5.507,-5.5961,-5.6577,-5.673,-5.67,-5.6761,-5.6761,-5.6792,-5.6946,-5.6977,-5.6977,-5.7192,-5.7192,-5.7315,-5.7777,-5.7962,-5.8177,-5.8516,-5.8762,-5.8701,-5.8731,-5.8577,-5.8793,-5.8793,-5.8793,-5.8793,-5.8639,-5.7438,-5.6361,-5.0011,-5.0011,-5.0011,-5.0011,-5.0011,-5.0011,-5.0011,-5.0011,-5.0011,-5.0011,-5.0011,-5.0011,-5.0011,-5.0011,-5.0011,-5.0355,-5.0942,-5.0976,-5.1287,-5.1942,-5.2597,-5.2597,-5.2114,-5.277,-5.277,-5.2321,-5.2908,-5.3253,-5.3322,-5.3873,-5.4253,-5.4425,-5.4977,-5.5701,-5.6426,-5.6598,-5.6529,-5.6322,-5.6426,-5.6529,-5.6633,-5.6633,-5.6667,-5.6805,-5.684,-5.6805,-5.6805,-5.6805,-5.6805,-5.6805,-5.6805,-5.667,-5.6368,-5.62,-5.5928,-5.5553,-5.5414,-5.5412,-5.5412,-5.5513,-5.5886,-5.6596,-5.7239,-5.7002,-5.5716,-5.5649,-5.5716,-5.575,-5.6393,-5.663,-5.6697,-5.7205,-5.7306,-5.6765,-5.6664,-5.6664,-5.666,-5.666,-5.6572,-5.6249,-5.6879,-5.6625,-5.4857,-5.5296,-5.5789,-5.5472,-5.5653,-5.6023,-5.67,-5.6761,-5.6761,-5.6761,-5.6761,-5.7008,-5.7469,-5.7623,-5.7808,-5.8423,-5.8423,-5.8393,-5.8608,-5.8639,-5.8731,-5.8793,-5.8947,-5.8885,-5.8885,-5.8793,-5.8916,-5.8947,-5.8947,-5.8916,-5.8947,-5.8516,-5.83,-5.0011,-5.0011,-5.0011,-5.0252,-5.0631,-5.1045,-5.1218,-5.1218,-5.1218,-5.0976,-5.0631,-5.0597,-5.0838,-5.1218,-5.1666,-5.2011,-5.239,-5.277,-5.3149,-5.346,-5.3839,-5.3804,-5.3563,-5.4253,-5.4391,-5.408,-5.4425,-5.4598,-5.4632,-5.4977,-5.5115,-5.515,-5.5874,-5.6667,-5.7357,-5.7391,-5.7598,-5.7943,-5.7219,-5.7012,-5.7391,-5.7391,-5.7598,-5.7978,-5.8012,-5.8012,-5.8012,-5.7978,-5.8012,-5.7978,-5.8426,-5.8497,-5.822,-5.8456,-5.8518,-5.8264,-5.8157,-5.8084,-5.8084,-5.8084,-5.822,-5.8592,-5.8896,-5.8829,-5.8152,-5.8084,-5.8084,-5.8118,-5.8423,-5.8423,-5.8051,-5.8287,-5.8355,-5.8051,-5.7983,-5.7931,-5.7859,-5.785,-5.7409,-5.6579,-5.6986,-5.6763,-5.5027,-5.583,-5.6242,-5.5873,-5.6238,-5.7038,-5.7715,-5.7839,-5.7715,-5.7438,-5.7623,-5.7931,-5.827,-5.8331,-5.8454,-5.8731,-5.8793,-5.8947,-5.9193,-5.9316,-5.947,-5.9778,-5.987,-5.987,-5.9839,-5.987,-5.987,-5.987,-5.987,-5.987,-5.987,-5.987,-5.9624,-5.0493,-5.0493,-5.0528,-5.0942,-5.1632,-5.2046,-5.239,-5.2701,-5.2563,-5.2356,-5.2114,-5.1804,-5.2046,-5.277,-5.3391,-5.3736,-5.3977,-5.4494,-5.4839,-5.5012,-5.5184,-5.5184,-5.5115,-5.5805,-5.6046,-5.5908,-5.5874,-5.5874,-5.5874,-5.5874,-5.5874,-5.5977,-5.6667,-5.7357,-5.7874,-5.8081,-5.8426,-5.8909,-5.8047,-5.7771,-5.815,-5.815,-5.8495,-5.9219,-5.9254,-5.9357,-5.953,-5.953,-5.953,-5.9564,-6.0046,-6.0249,-5.9891,-6.033,-6.0489,-6.019,-6.008,-6.008,-6.008,-6.008,-6.008,-6.0114,-6.0283,-6.0351,-6.0385,-6.052,-6.0452,-6.0182,-5.9979,-5.9877,-5.9607,-5.9539,-5.9464,-5.9279,-5.917,-5.8886,-5.8507,-5.833,-5.7836,-5.6384,-5.6686,-5.6702,-5.5751,-5.6373,-5.6965,-5.68,-5.7346,-5.8177,-5.867,-5.8885,-5.8762,-5.8485,-5.8547,-5.8793,-5.8947,-5.9008,-5.9101,-5.9162,-5.9285,-5.9532,-5.9901,-6.0024,-6.0178,-6.0578,-6.0732,-6.0671,-6.0732,-6.0732,-6.0701,-6.064,-6.0609,-6.0701,-6.0671,-6.0671,-6.0486,-5.1977,-5.2011,-5.1942,-5.2494,-5.308,-5.2563,-5.3046,-5.4115,-5.3598,-5.4046,-5.4908,-5.3804,-5.3632,-5.4253,-5.4425,-5.4839,-5.5391,-5.5495,-5.5943,-5.6598,-5.7288,-5.7253,-5.6667,-5.7322,-5.7357,-5.6805,-5.6736,-5.6771,-5.6805,-5.6771,-5.6736,-5.6771,-5.7426,-5.7874,-5.8012,-5.8599,-5.8944,-5.9012,-5.9599,-5.9564,-5.8944,-5.8909,-5.9288,-6.0082,-6.0082,-6.0427,-6.0944,-6.1116,-6.1082,-6.1116,-6.0937,-6.0861,-6.0642,-6.0455,-6.034,-6.0148,-6.0148,-6.008,-6.0114,-6.008,-6.0148,-6.0148,-6.0825,-6.1197,-6.1231,-6.1772,-6.1569,-6.0554,-6.0148,-6.0452,-6.0994,-6.1028,-6.0505,-5.9771,-5.9724,-5.9218,-5.7897,-5.7417,-5.7077,-5.6151,-5.6757,-5.6898,-5.6772,-5.7294,-5.7943,-5.8307,-5.8454,-5.8762,-5.9008,-5.9378,-5.9686,-5.9501,-5.9224,-5.9131,-5.9532,-5.9716,-5.9901,-6.0363,-6.0547,-6.0517,-6.0547,-6.0609,-6.0763,-6.0701,-6.0794,-6.0794,-6.0794,-6.0794,-6.0794,-6.0794,-6.0794,-6.0794,-6.0794,-6.0794,-6.064,-5.2218,-5.2218,-5.2218,-5.2942,-5.3977,-5.4149,-5.4598,-5.515,-5.5357,-5.577,-5.6253,-5.6115,-5.6012,-5.5908,-5.6322,-5.6702,-5.7012,-5.7426,-5.7805,-5.8116,-5.8426,-5.8392,-5.8185,-5.8392,-5.8599,-5.8737,-5.8323,-5.8357,-5.8737,-5.8806,-5.9012,-5.9461,-5.9771,-5.9702,-5.9357,-6.0013,-6.0151,-5.9737,-6.0461,-6.0703,-6.0427,-6.0358,-6.0496,-6.0806,-6.084,-6.0978,-6.1254,-6.1323,-6.1252,-6.1143,-6.1483,-6.1576,-6.117,-6.1503,-6.1698,-6.1467,-6.1434,-6.1467,-6.1434,-6.1467,-6.1434,-6.1467,-6.1738,-6.1941,-6.1941,-6.2245,-6.2076,-6.1603,-6.1467,-6.1467,-6.1255,-6.0796,-6.0251,-5.9893,-5.9481,-5.8722,-5.7956,-5.7835,-5.7634,-5.7152,-5.7306,-5.7614,-5.7906,-5.8177,-5.8639,-5.9224,-5.9378,-5.947,-5.987,-6.0209,-6.0363,-6.0363,-6.0116,-6.0086,-6.0301,-6.0393,-6.0517,-6.0701,-6.0794,-6.0794,-6.0794,-6.0794,-6.0794,-6.0794,-6.0794,-6.0794,-6.0794,-6.0794,-6.0794,-6.0794,-6.0794,-6.0794,-6.0794,-6.0794,-6.0794,-5.3322,-5.3184,-5.3356,-5.4218,-5.546,-5.577,-5.6184,-5.6564,-5.6943,-5.7219,-5.746,-5.7978,-5.8047,-5.7805,-5.8081,-5.8185,-5.8323,-5.8978,-5.9323,-5.9357,-5.953,-5.9633,-5.9633,-5.9633,-5.9944,-6.0323,-5.9909,-5.9944,-6.0461,-6.0496,-6.0703,-6.0978,-6.1185,-6.0944,-6.0358,-6.0944,-6.1047,-6.0634,-6.1254,-6.1634,-6.1634,-6.1841,-6.1841,-6.1634,-6.1634,-6.1703,-6.1872,-6.1838,-6.1727,-6.1615,-6.2056,-6.2214,-6.1877,-6.2343,-6.2537,-6.2381,-6.2415,-6.2415,-6.2415,-6.2415,-6.2415,-6.2415,-6.2415,-6.2415,-6.2415,-6.2415,-6.2415,-6.2347,-6.2415,-6.1998,-6.1278,-6.0551,-6.0027,-5.9526,-5.8852,-5.8563,-5.8122,-5.8248,-5.8308,-5.8128,-5.806,-5.83,-5.8885,-5.9224,-5.9593,-5.9963,-6.0086,-6.0209,-6.0671,-6.0763,-6.0763,-6.0794,-6.0763,-6.0763,-6.0794,-6.0732,-6.0794,-6.0794,-6.0794,-6.0794,-6.0794,-6.0794,-6.0794,-6.0794,-6.0794,-6.0794,-6.0794,-6.0794,-6.0855,-6.0855,-6.0948,-6.1101,-6.1163,-6.1194,-6.1348,-5.6184,-5.5598,-5.6253,-5.6874,-5.7667,-5.7012,-5.7529,-5.8495,-5.8116,-5.8219,-5.8771,-5.8944,-5.9357,-5.9909,-5.9323,-5.8978,-5.9081,-5.9806,-6.0151,-6.022,-6.0806,-6.1185,-6.122,-6.122,-6.122,-6.1323,-6.1185,-6.1185,-6.1323,-6.1289,-6.0909,-6.0427,-6.1116,-6.1013,-6.053,-6.1082,-6.1323,-6.1358,-6.2013,-6.2427,-6.2496,-6.3082,-6.3082,-6.2496,-6.2427,-6.2664,-6.3102,-6.3165,-6.309,-6.2863,-6.2711,-6.2625,-6.2625,-6.2503,-6.2381,-6.2415,-6.2415,-6.2415,-6.2415,-6.2415,-6.2415,-6.2415,-6.2415,-6.2415,-6.2516,-6.2516,-6.255,-6.2448,-6.2584,-6.2131,-6.1136,-6.082,-6.0194,-5.8792,-5.8841,-5.8719,-5.8009,-5.8473,-5.8739,-5.8731,-5.8793,-5.9101,-5.9686,-6.0301,-6.0517,-6.064,-6.0701,-6.0732,-6.0763,-6.0794,-6.0794,-6.0794,-6.0794,-6.0794,-6.0794,-6.0794,-6.0794,-6.0794,-6.0794,-6.0794,-6.0794,-6.0794,-6.0794,-6.0794,-6.0794,-6.0794,-6.0794,-6.0855,-6.0948,-6.1132,-6.1532,-6.1686,-6.1779,-6.2302,-6.2425,-5.6633,-5.6391,-5.6667,-5.7219,-5.784,-5.7633,-5.784,-5.8323,-5.8564,-5.8771,-5.9116,-5.9564,-6.0185,-6.0909,-6.0599,-6.0496,-6.0496,-6.0806,-6.0909,-6.0944,-6.1185,-6.1565,-6.1979,-6.1565,-6.1875,-6.2599,-6.2289,-6.2324,-6.2737,-6.2772,-6.2634,-6.2461,-6.2634,-6.2393,-6.191,-6.2393,-6.253,-6.2186,-6.2806,-6.3186,-6.3186,-6.3462,-6.3388,-6.3073,-6.3112,-6.3324,-6.3526,-6.3377,-6.3227,-6.3,-6.277,-6.2615,-6.2537,-6.2459,-6.2415,-6.2415,-6.2415,-6.2415,-6.2415,-6.2415,-6.2415,-6.2415,-6.2415,-6.2618,-6.299,-6.3125,-6.302,-6.2948,-6.3525,-6.2883,-6.0996,-6.0647,-6.0461,-5.9632,-5.9186,-5.8887,-5.8554,-5.8639,-5.8947,-5.9378,-5.9747,-6.0209,-6.0363,-6.0671,-6.0794,-6.0794,-6.0794,-6.0824,-6.0824,-6.0794,-6.0886,-6.0794,-6.0794,-6.0794,-6.0794,-6.0794,-6.0794,-6.0794,-6.0794,-6.0794,-6.0794,-6.0886,-6.0886,-6.1071,-6.1009,-6.104,-6.1132,-6.1379,-6.144,-6.1902,-6.2302,-6.2394,-6.2456,-6.2887,-6.2948,-5.7288,-5.7495,-5.7529,-5.7805,-5.8254,-5.8564,-5.8633,-5.8737,-5.9426,-5.9771,-5.9909,-6.0323,-6.0978,-6.1599,-6.1703,-6.1841,-6.1979,-6.1806,-6.1668,-6.1737,-6.191,-6.2324,-6.2668,-6.2289,-6.2565,-6.3393,-6.3117,-6.3117,-6.3531,-6.36,-6.36,-6.3565,-6.36,-6.3358,-6.3013,-6.3358,-6.3324,-6.3013,-6.3324,-6.36,-6.3526,-6.3526,-6.3377,-6.3227,-6.3302,-6.3377,-6.3302,-6.3152,-6.3,-6.2847,-6.2693,-6.2537,-6.2381,-6.2415,-6.2415,-6.2415,-6.2415,-6.2415,-6.2415,-6.2415,-6.2415,-6.2415,-6.2651,-6.299,-6.3497,-6.3458,-6.33,-6.3297,-6.3226,-6.2651,-6.118,-6.0674,-6.0546,-5.9881,-5.9346,-5.9101,-5.9131,-5.9316,-5.9655,-6.0116,-6.0671,-6.104,-6.1163,-6.1348,-6.1471,-6.144,-6.144,-6.144,-6.1471,-6.144,-6.144,-6.1471,-6.1532,-6.1563,-6.1625,-6.1717,-6.1163,-6.104,-6.0978,-6.0948,-6.1101,-6.1132,-6.1194,-6.1348,-6.1409,-6.144,-6.1594,-6.1871,-6.2271,-6.2764,-6.301,-6.3133,-6.3256,-6.341,-6.3533,-5.8392,-5.8978,-5.9012,-5.9047,-5.9219,-5.9806,-6.0151,-6.022,-6.084,-6.1116,-6.1185,-6.1323,-6.1772,-6.2393,-6.2496,-6.2841,-6.3186,-6.2737,-6.2496,-6.2565,-6.3117,-6.3427,-6.3496,-6.3393,-6.3358,-6.36,-6.3565,-6.3565,-6.36,-6.36,-6.36,-6.3634,-6.3703,-6.3738,-6.3669,-6.3807,-6.3738,-6.3738,-6.3841,-6.3664,-6.3336,-6.3405,-6.3296,-6.3,-6.3,-6.2923,-6.2693,-6.2693,-6.2693,-6.2459,-6.2459,-6.2415,-6.2381,-6.2415,-6.2415,-6.2415,-6.2415,-6.2415,-6.2415,-6.2415,-6.2415,-6.2584,-6.3091,-6.3417,-6.3559,-6.3384,-6.3206,-6.2936,-6.2493,-6.162,-6.1343,-6.1213,-6.0701,-5.9309,-5.947,-5.9809,-5.9963,-6.0424,-6.0824,-6.0978,-6.144,-6.1779,-6.1933,-6.221,-6.2487,-6.2548,-6.2548,-6.2548,-6.2487,-6.2487,-6.2702,-6.2702,-6.2487,-6.2302,-6.2548,-6.2702,-6.1933,-6.1317,-6.1286,-6.1255,-6.1686,-6.184,-6.1963,-6.2117,-6.2179,-6.221,-6.2487,-6.2764,-6.2918,-6.3287,-6.3564,-6.3841,-6.3933,-6.4087,-6.4395,-6.0392,-6.0599,-6.0599,-6.0599,-6.0599,-6.0875,-6.0944,-6.0978,-6.122,-6.1634,-6.2048,-6.2117,-6.253,-6.3117,-6.3255,-6.3358,-6.3565,-6.3358,-6.3255,-6.3255,-6.3496,-6.36,-6.36,-6.36,-6.36,-6.36,-6.36,-6.36,-6.36,-6.3634,-6.3807,-6.4255,-6.4358,-6.4669,-6.5083,-6.5186,-6.5076,-6.4966,-6.5076,-6.4793,-6.4008,-6.4016,-6.3665,-6.2915,-6.277,-6.2693,-6.2537,-6.2615,-6.2649,-6.2615,-6.2493,-6.2415,-6.2415,-6.2415,-6.2415,-6.2415,-6.2415,-6.2415,-6.2415,-6.2448,-6.2651,-6.3057,-6.3396,-6.368,-6.3951,-6.3856,-6.3359,-6.2834,-6.2775,-6.262,-6.1377,-6.1608,-6.1315,-6.028,-6.0363,-6.0701,-6.1101,-6.1717,-6.2117,-6.221,-6.2364,-6.2487,-6.2517,-6.2794,-6.2918,-6.2948,-6.2918,-6.2918,-6.2887,-6.2979,-6.2825,-6.2825,-6.2825,-6.301,-6.3164,-6.3256,-6.2856,-6.2271,-6.2056,-6.1963,-6.2302,-6.2548,-6.2702,-6.2887,-6.2979,-6.3102,-6.3379,-6.3564,-6.3687,-6.3964,-6.4334,-6.4518,-6.458,-6.4703,-6.4857,-6.1323,-6.1323,-6.1323,-6.1323,-6.1358,-6.1599,-6.1737,-6.1772,-6.2048,-6.2461,-6.2841,-6.291,-6.3117,-6.3531,-6.36,-6.36,-6.36,-6.36,-6.36,-6.36,-6.36,-6.36,-6.36,-6.36,-6.36,-6.3669,-6.3876,-6.4014,-6.4014,-6.4324,-6.4669,-6.4973,-6.4966,-6.5172,-6.5654,-6.5645,-6.5534,-6.5534,-6.5611,-6.525,-6.4571,-6.4264,-6.3811,-6.3057,-6.2707,-6.2571,-6.2381,-6.2537,-6.2537,-6.2537,-6.2459,-6.2415,-6.2415,-6.2415,-6.2415,-6.2415,-6.2415,-6.2482,-6.2753,-6.2854,-6.3125,-6.3687,-6.3814,-6.3869,-6.4013,-6.3866,-6.3033,-6.2585,-6.2453,-6.2189,-6.1175,-6.1525,-6.1721,-6.1267,-6.1163,-6.1471,-6.2086,-6.2548,-6.2764,-6.2794,-6.301,-6.3133,-6.3195,-6.3502,-6.3564,-6.3595,-6.3595,-6.3595,-6.3595,-6.3656,-6.3564,-6.3564,-6.3749,-6.381,-6.3687,-6.3687,-6.3656,-6.3349,-6.3041,-6.2948,-6.3071,-6.3164,-6.3287,-6.3718,-6.3933,-6.3995,-6.421,-6.4241,-6.4334,-6.4734,-6.4888,-6.4826,-6.4764,-6.4795,-6.4888,-6.1461,-6.1427,-6.1427,-6.1565,-6.1634,-6.2255,-6.253,-6.2668,-6.3186,-6.3462,-6.3531,-6.36,-6.3669,-6.3669,-6.3772,-6.3841,-6.3738,-6.3698,-6.3801,-6.3836,-6.3836,-6.3836,-6.3807,-6.3807,-6.3876,-6.3939,-6.4421,-6.4663,-6.4731,-6.5248,-6.5723,-6.5534,-6.5568,-6.5637,-6.5764,-6.5504,-6.5607,-6.572,-6.5573,-6.538,-6.4937,-6.4257,-6.377,-6.3429,-6.2753,-6.2381,-6.2381,-6.2381,-6.2415,-6.2381,-6.2381,-6.2415,-6.2415,-6.2415,-6.2415,-6.2516,-6.2482,-6.2922,-6.3396,-6.337,-6.3627,-6.4334,-6.4081,-6.409,-6.3776,-6.3033,-6.239,-6.2022,-6.1481,-6.1,-6.0886,-6.1452,-6.1822,-6.1933,-6.2056,-6.2302,-6.2764,-6.2948,-6.3164,-6.3195,-6.3502,-6.3872,-6.3903,-6.4395,-6.4641,-6.4703,-6.4672,-6.4611,-6.4641,-6.4549,-6.4795,-6.4734,-6.4487,-6.4426,-6.4241,-6.4241,-6.4241,-6.4118,-6.3841,-6.381,-6.3779,-6.3841,-6.3933,-6.4364,-6.4611,-6.4734,-6.4795,-6.4703,-6.4703,-6.4826,-6.4888,-6.4888,-6.4918,-6.4918,-6.5072,-6.2979,-6.3013,-6.2979,-6.2979,-6.3013,-6.3255,-6.3289,-6.3324,-6.3496,-6.3669,-6.3703,-6.4186,-6.4393,-6.4393,-6.4427,-6.4703,-6.4904,-6.4518,-6.4546,-6.4958,-6.4873,-6.4607,-6.4421,-6.4427,-6.4628,-6.4924,-6.513,-6.5225,-6.5104,-6.5378,-6.572,-6.6086,-6.612,-6.6394,-6.6873,-6.6826,-6.6848,-6.6732,-6.686,-6.6391,-6.5488,-6.489,-6.4279,-6.3463,-6.2787,-6.2415,-6.2415,-6.2415,-6.2415,-6.2415,-6.2415,-6.2415,-6.2448,-6.2482,-6.2719,-6.3159,-6.3226,-6.3531,-6.3944,-6.3584,-6.3581,-6.4128,-6.3603,-6.2987,-6.2748,-6.2487,-6.1922,-6.1348,-6.0897,-6.0794,-6.0917,-6.1471,-6.2179,-6.3102,-6.3225,-6.3318,-6.3595,-6.4026,-6.4334,-6.4395,-6.4487,-6.4518,-6.4611,-6.4703,-6.4888,-6.4888,-6.4949,-6.4918,-6.4918,-6.5011,-6.5072,-6.4918,-6.4795,-6.4826,-6.4826,-6.4826,-6.4795,-6.4734,-6.4611,-6.4549,-6.4518,-6.4518,-6.4611,-6.4826,-6.4764,-6.4857,-6.4857,-6.4826,-6.4888,-6.4888,-6.4888,-6.4888,-6.4918,-6.4949,-6.5319,-6.36,-6.36,-6.36,-6.36,-6.36,-6.36,-6.36,-6.3669,-6.387,-6.3899,-6.4071,-6.469,-6.5,-6.4958,-6.5034,-6.5241,-6.5431,-6.501,-6.4967,-6.5241,-6.5231,-6.5104,-6.495,-6.4881,-6.5122,-6.5343,-6.5686,-6.5744,-6.5767,-6.6006,-6.6336,-6.6562,-6.6664,-6.6903,-6.7209,-6.7229,-6.7263,-6.7146,-6.7229,-6.669,-6.5779,-6.5115,-6.4322,-6.3531,-6.2821,-6.2415,-6.2415,-6.2685,-6.2753,-6.255,-6.2685,-6.2888,-6.2922,-6.3193,-6.3497,-6.3971,-6.3612,-6.3833,-6.4521,-6.3776,-6.3551,-6.4144,-6.3492,-6.2556,-6.2323,-6.1953,-6.1277,-6.0897,-6.0794,-6.0917,-6.1348,-6.2056,-6.3102,-6.4026,-6.4272,-6.4272,-6.4272,-6.4611,-6.4857,-6.4888,-6.4888,-6.4888,-6.4888,-6.4888,-6.4888,-6.498,-6.5226,-6.5103,-6.5011,-6.5134,-6.5195,-6.5072,-6.4918,-6.4888,-6.4888,-6.4888,-6.4888,-6.4888,-6.4888,-6.4888,-6.4888,-6.4888,-6.4888,-6.4888,-6.4888,-6.4888,-6.4888,-6.4888,-6.4888,-6.4888,-6.4888,-6.5011,-6.5103,-6.5042,-6.5411,-6.36,-6.36,-6.36,-6.36,-6.36,-6.36,-6.3595,-6.3767,-6.4167,-6.4324,-6.4599,-6.525,-6.5446,-6.5323,-6.5559,-6.5549,-6.5528,-6.5426,-6.538,-6.5517,-6.5505,-6.5517,-6.5517,-6.5391,-6.5494,-6.5653,-6.6097,-6.6302,-6.6391,-6.7018,-6.7243,-6.7044,-6.7112,-6.7146,-6.7097,-6.6896,-6.6896,-6.7063,-6.681,-6.6388,-6.5595,-6.485,-6.4072,-6.3531,-6.2787,-6.2415,-6.255,-6.2888,-6.3057,-6.255,-6.3226,-6.3599,-6.37,-6.4194,-6.4498,-6.4518,-6.3935,-6.4033,-6.5009,-6.3979,-6.3362,-6.4159,-6.2972,-6.2221,-6.1953,-6.1379,-6.0897,-6.0794,-6.0794,-6.1163,-6.1933,-6.3041,-6.3933,-6.458,-6.4826,-6.4888,-6.4888,-6.4888,-6.4888,-6.4888,-6.4888,-6.4888,-6.4888,-6.4918,-6.4918,-6.5288,-6.5534,-6.5596,-6.5503,-6.5596,-6.5503,-6.5226,-6.5072,-6.4888,-6.4888,-6.4888,-6.4888,-6.4888,-6.4888,-6.4888,-6.4888,-6.4888,-6.4888,-6.4888,-6.4888,-6.4888,-6.4888,-6.4888,-6.4888,-6.4888,-6.4888,-6.5195,-6.5472,-6.5288,-6.5411,-6.3526,-6.3377,-6.3526,-6.3526,-6.3377,-6.3377,-6.3721,-6.416,-6.4213,-6.4547,-6.5128,-6.5847,-6.6075,-6.5995,-6.6109,-6.6382,-6.6677,-6.6174,-6.6058,-6.6505,-6.6422,-6.6422,-6.6418,-6.614,-6.6255,-6.6582,-6.6889,-6.6908,-6.681,-6.6844,-6.6896,-6.693,-6.693,-6.693,-6.6896,-6.6812,-6.6812,-6.6795,-6.6271,-6.5865,-6.5392,-6.441,-6.37,-6.3396,-6.2753,-6.2448,-6.2415,-6.255,-6.2821,-6.3328,-6.389,-6.4363,-6.4166,-6.3852,-6.4136,-6.4707,-6.4381,-6.4299,-6.4895,-6.4185,-6.332,-6.2908,-6.2121,-6.1072,-6.1072,-6.0969,-6.0794,-6.0794,-6.0824,-6.1379,-6.2487,-6.3318,-6.4118,-6.4734,-6.4888,-6.4888,-6.4888,-6.4888,-6.4888,-6.4888,-6.4888,-6.4888,-6.4918,-6.4949,-6.5165,-6.5565,-6.5842,-6.6088,-6.6027,-6.5934,-6.5688,-6.5319,-6.5103,-6.4918,-6.4888,-6.4888,-6.4888,-6.4888,-6.4888,-6.4888,-6.4888,-6.4888,-6.4888,-6.4888,-6.4888,-6.4888,-6.4888,-6.4888,-6.4888,-6.4888,-6.4949,-6.5257,-6.5442,-6.5349,-6.575,-6.3227,-6.3152,-6.3302,-6.3227,-6.3152,-6.3152,-6.3563,-6.417,-6.4425,-6.4892,-6.5642,-6.6391,-6.6616,-6.6534,-6.665,-6.6889,-6.6976,-6.669,-6.649,-6.6745,-6.6779,-6.6812,-6.6779,-6.6641,-6.6724,-6.698,-6.698,-6.6896,-6.6812,-6.6812,-6.6812,-6.6812,-6.6812,-6.6812,-6.6812,-6.6812,-6.6576,-6.6271,-6.5899,-6.5425,-6.4613,-6.3971,-6.326,-6.3024,-6.2618,-6.2415,-6.2415,-6.3159,-6.3599,-6.4059,-6.4539,-6.4723,-6.4522,-6.4228,-6.442,-6.4421,-6.389,-6.3747,-6.4072,-6.3324,-6.2256,-6.2319,-6.1379,-6.0969,-6.0794,-6.0794,-6.0794,-6.0886,-6.1163,-6.1809,-6.3133,-6.3933,-6.4518,-6.4734,-6.4888,-6.4888,-6.4888,-6.4888,-6.4888,-6.4888,-6.4888,-6.4888,-6.4918,-6.5042,-6.5134,-6.5472,-6.6242,-6.6396,-6.5626,-6.5534,-6.5565,-6.5319,-6.5072,-6.4918,-6.4918,-6.4888,-6.4888,-6.4888,-6.4888,-6.4888,-6.4888,-6.4888,-6.4888,-6.4888,-6.4888,-6.4888,-6.4888,-6.4888,-6.4888,-6.4888,-6.5011,-6.5257,-6.5503,-6.5688,-6.6304,-6.3,-6.3,-6.3,-6.3,-6.2923,-6.306,-6.3572,-6.4288,-6.4812,-6.54,-6.6113,-6.6826,-6.6878,-6.6862,-6.6946,-6.698,-6.6896,-6.6812,-6.6779,-6.6812,-6.6812,-6.6812,-6.6779,-6.6745,-6.6795,-6.6812,-6.6812,-6.6812,-6.6812,-6.6812,-6.6812,-6.6812,-6.6812,-6.6812,-6.6812,-6.6779,-6.6474,-6.5899,-6.5527,-6.4884,-6.3835,-6.3429,-6.2956,-6.2618,-6.2448,-6.2415,-6.2651,-6.3463,-6.4295,-6.4402,-6.4867,-6.4674,-6.4285,-6.4326,-6.4629,-6.3764,-6.3068,-6.2908,-6.3196,-6.2288,-6.1551,-6.2121,-6.1379,-6.0897,-6.0794,-6.0824,-6.0886,-6.1255,-6.1717,-6.261,-6.3718,-6.4364,-6.4764,-6.4888,-6.4888,-6.4888,-6.4888,-6.4888,-6.4888,-6.4888,-6.4888,-6.4888,-6.5042,-6.5165,-6.5226,-6.5442,-6.6211,-6.6581,-6.5811,-6.5319,-6.5472,-6.538,-6.5134,-6.4949,-6.4888,-6.498,-6.498,-6.5042,-6.5011,-6.5011,-6.498,-6.4888,-6.4888,-6.4888,-6.4888,-6.4918,-6.4918,-6.4888,-6.4888,-6.4888,-6.498,-6.5134,-6.5534,-6.5996,-6.6673,-6.2923,-6.277,-6.2923,-6.2923,-6.2872,-6.3417,-6.4097,-6.4767,-6.5318,-6.5982,-6.6659,-6.6829,-6.6896,-6.6812,-6.6812,-6.6812,-6.6812,-6.6812,-6.6779,-6.6745,-6.6779,-6.6812,-6.6677,-6.6677,-6.6745,-6.6812,-6.6711,-6.6643,-6.6812,-6.6812,-6.6812,-6.6812,-6.6812,-6.6812,-6.6812,-6.6779,-6.6339,-6.5561,-6.5053,-6.4275,-6.3531,-6.2956,-6.2539,-6.2302,-6.2302,-6.2448,-6.2539,-6.3147,-6.3612,-6.3397,-6.4055,-6.3669,-6.3002,-6.2908,-6.3132,-6.3228,-6.268,-6.2319,-6.2319,-6.2221,-6.1551,-6.1277,-6.0897,-6.0794,-6.0794,-6.0824,-6.1071,-6.1809,-6.2641,-6.3564,-6.3779,-6.4377,-6.4826,-6.4888,-6.4888,-6.4888,-6.4888,-6.4888,-6.4888,-6.4888,-6.4888,-6.4918,-6.5042,-6.5226,-6.5411,-6.5534,-6.5996,-6.655,-6.6396,-6.5903,-6.5688,-6.5503,-6.5257,-6.5072,-6.4888,-6.5011,-6.5103,-6.5226,-6.5257,-6.5257,-6.5195,-6.498,-6.4918,-6.5257,-6.5195,-6.5042,-6.5011,-6.5042,-6.5165,-6.538,-6.5226,-6.5072,-6.5688,-6.6304,-6.6334,-6.2615,-6.2537,-6.2615,-6.2853,-6.3148,-6.3487,-6.4301,-6.5284,-6.5609,-6.6102,-6.6643,-6.6812,-6.6812,-6.6812,-6.6812,-6.6812,-6.6812,-6.6812,-6.6609,-6.6406,-6.6609,-6.6542,-6.6271,-6.6237,-6.6237,-6.6102,-6.5899,-6.617,-6.6745,-6.6812,-6.6745,-6.6812,-6.6812,-6.6812,-6.6711,-6.6373,-6.5865,-6.5121,-6.4444,-6.37,-6.3024,-6.2516,-6.2223,-6.187,-6.2098,-6.2312,-6.2345,-6.2948,-6.3433,-6.3583,-6.3414,-6.2843,-6.239,-6.1822,-6.1721,-6.2121,-6.1853,-6.1551,-6.145,-6.145,-6.1072,-6.0866,-6.069,-6.069,-6.0794,-6.0886,-6.1317,-6.2271,-6.2887,-6.3776,-6.4114,-6.434,-6.4412,-6.4443,-6.4554,-6.4666,-6.4635,-6.4777,-6.4888,-6.4918,-6.4949,-6.4949,-6.498,-6.5195,-6.5503,-6.5719,-6.5934,-6.6304,-6.6765,-6.6334,-6.5873,-6.5903,-6.578,-6.5811,-6.5626,-6.5626,-6.5596,-6.5657,-6.5688,-6.5688,-6.575,-6.5719,-6.5873,-6.6119,-6.5873,-6.5565,-6.5596,-6.578,-6.5811,-6.5873,-6.5965,-6.6057,-6.6304,-6.6519,-6.6581,-6.2415,-6.2415,-6.2415,-6.2821,-6.3463,-6.37,-6.4478,-6.5527,-6.5865,-6.6271,-6.6745,-6.6812,-6.6812,-6.6812,-6.6779,-6.6745,-6.6643,-6.6576,-6.6136,-6.5662,-6.5967,-6.5967,-6.5628,-6.5459,-6.5459,-6.5392,-6.5087,-6.5222,-6.5967,-6.617,-6.6305,-6.6203,-6.6305,-6.6373,-6.6136,-6.5696,-6.5053,-6.441,-6.3869,-6.3159,-6.2584,-6.2223,-6.179,-6.1053,-6.1647,-6.185,-6.1811,-6.2616,-6.2979,-6.3062,-6.2747,-6.2221,-6.1922,-6.1277,-6.0794,-6.069,-6.0794,-6.0794,-6.069,-6.0586,-6.0586,-6.0481,-6.0377,-6.0481,-6.0665,-6.091,-6.1598,-6.261,-6.3329,-6.369,-6.4117,-6.4188,-6.4106,-6.4106,-6.43,-6.4382,-6.4524,-6.4635,-6.4888,-6.4918,-6.498,-6.5165,-6.5288,-6.5472,-6.5842,-6.6396,-6.6611,-6.655,-6.6858,-6.6334,-6.6027,-6.6273,-6.6396,-6.6642,-6.6611,-6.6519,-6.6457,-6.6396,-6.6427,-6.6427,-6.6581,-6.6704,-6.6796,-6.6735,-6.6796,-6.655,-6.655,-6.6457,-6.6427,-6.6519,-6.6796,-6.6858,-6.6765,-6.6827,-6.695,-6.2415,-6.2415,-6.2415,-6.2821,-6.3599,-6.4208,-6.4918,-6.573,-6.6373,-6.6711,-6.6812,-6.6812,-6.6812,-6.6779,-6.6711,-6.6373,-6.6034,-6.5797,-6.5425,-6.485,-6.4986,-6.5019,-6.4715,-6.4715,-6.4715,-6.4647,-6.4546,-6.4681,-6.4918,-6.4952,-6.4986,-6.5019,-6.5121,-6.4918,-6.5155,-6.4884,-6.4377,-6.3768,-6.3485,-6.3045,-6.2324,-6.1595,-6.1069,-6.0868,-6.0857,-6.088,-6.1028,-6.1847,-6.2349,-6.1918,-6.2168,-6.1822,-6.1175,-6.0897,-6.069,-6.0586,-6.0586,-6.069,-6.0481,-6.0377,-6.0272,-6.0197,-6.0092,-6.0122,-6.0532,-6.1263,-6.2056,-6.2829,-6.3416,-6.3893,-6.3932,-6.3993,-6.3993,-6.3963,-6.4075,-6.427,-6.4412,-6.4412,-6.4666,-6.485,-6.4973,-6.5453,-6.5729,-6.5996,-6.6242,-6.6827,-6.7227,-6.7135,-6.7042,-6.6611,-6.6457,-6.6796,-6.7135,-6.7381,-6.7504,-6.7412,-6.735,-6.7227,-6.7227,-6.7227,-6.7319,-6.7412,-6.7165,-6.7165,-6.7319,-6.7412,-6.7258,-6.7135,-6.7012,-6.7135,-6.7412,-6.7227,-6.6919,-6.7073,-6.7412,-6.2415,-6.2415,-6.2854,-6.3463,-6.4174,-6.4918,-6.5628,-6.6271,-6.6643,-6.6812,-6.6812,-6.6812,-6.6812,-6.6643,-6.6034,-6.5628,-6.5561,-6.5256,-6.4681,-6.4241,-6.4309,-6.4343,-6.4072,-6.3971,-6.3971,-6.3869,-6.3599,-6.326,-6.3531,-6.4208,-6.4613,-6.4546,-6.458,-6.4681,-6.441,-6.4174,-6.3869,-6.3303,-6.2656,-6.1929,-6.1417,-6.0703,-5.9935,-5.9531,-5.9855,-6.0135,-6.0508,-6.0863,-6.1599,-6.1526,-6.1759,-6.1144,-6.0794,-6.0586,-6.0481,-6.0197,-6.0302,-6.0302,-6.0197,-5.9955,-5.9986,-5.9986,-5.994,-5.9925,-6.0486,-6.1413,-6.2293,-6.287,-6.3343,-6.3706,-6.3622,-6.3538,-6.3538,-6.3538,-6.3849,-6.3849,-6.4075,-6.4188,-6.4361,-6.4605,-6.4993,-6.5534,-6.6108,-6.6528,-6.6682,-6.7042,-6.7319,-6.7227,-6.7289,-6.7289,-6.7258,-6.7442,-6.7843,-6.8181,-6.8243,-6.8243,-6.8243,-6.815,-6.8181,-6.815,-6.815,-6.8089,-6.7843,-6.7904,-6.8212,-6.8181,-6.7966,-6.7966,-6.7966,-6.7997,-6.8027,-6.7873,-6.775,-6.7997,-6.8274,-6.2415,-6.2448,-6.3193,-6.3937,-6.4647,-6.5392,-6.5967,-6.6474,-6.6711,-6.6609,-6.6305,-6.6203,-6.6203,-6.6068,-6.5189,-6.4884,-6.5019,-6.458,-6.3903,-6.3666,-6.3666,-6.3632,-6.3362,-6.3226,-6.3226,-6.3226,-6.2854,-6.2584,-6.2854,-6.3328,-6.3869,-6.4038,-6.3835,-6.3903,-6.3869,-6.3531,-6.3079,-6.2575,-6.1368,-6.0717,-6.0365,-5.9587,-5.8786,-5.855,-5.8744,-5.9346,-5.9724,-6.0188,-6.084,-6.1138,-6.1041,-6.0481,-6.0302,-6.0302,-6.0167,-5.9986,-5.988,-5.988,-5.9773,-5.9636,-5.9667,-5.9697,-5.9938,-6.0132,-6.0874,-6.1649,-6.2314,-6.2898,-6.3177,-6.3364,-6.3424,-6.3194,-6.3194,-6.3309,-6.3424,-6.3424,-6.3538,-6.388,-6.4167,-6.4462,-6.4889,-6.562,-6.6162,-6.6882,-6.7181,-6.7442,-6.7412,-6.735,-6.7566,-6.7843,-6.7966,-6.8089,-6.8274,-6.8581,-6.8643,-6.8766,-6.8858,-6.8889,-6.8889,-6.8828,-6.8643,-6.8643,-6.8551,-6.8735,-6.8889,-6.8766,-6.8427,-6.8674,-6.8889,-6.8643,-6.8489,-6.8674,-6.8735,-6.8889,-6.8889,-6.2415,-6.2448,-6.3226,-6.3937,-6.4647,-6.5358,-6.573,-6.5831,-6.6508,-6.6,-6.5053,-6.4816,-6.4884,-6.4749,-6.458,-6.414,-6.3768,-6.3632,-6.3193,-6.2753,-6.2516,-6.2685,-6.2618,-6.2618,-6.255,-6.255,-6.2336,-6.2336,-6.2336,-6.2266,-6.256,-6.255,-6.2729,-6.2606,-6.2493,-6.224,-6.1781,-6.1135,-6.0054,-5.9499,-5.9113,-5.8483,-5.7808,-5.7619,-5.7808,-5.8197,-5.8217,-5.9337,-6.0145,-6.0481,-6.0302,-6.0092,-5.9986,-5.9986,-5.988,-5.9667,-5.956,-5.9422,-5.9315,-5.9422,-5.9422,-5.9387,-5.9717,-6.0286,-6.1027,-6.1695,-6.2385,-6.2979,-6.3104,-6.3164,-6.3194,-6.3079,-6.3079,-6.3194,-6.3309,-6.3309,-6.3424,-6.3652,-6.3971,-6.4236,-6.4782,-6.5456,-6.6239,-6.6812,-6.7592,-6.7887,-6.8181,-6.812,-6.8274,-6.8489,-6.8581,-6.8674,-6.8705,-6.8828,-6.8828,-6.8889,-6.8889,-6.8889,-6.8889,-6.8889,-6.8828,-6.8889,-6.8889,-6.8889,-6.8889,-6.8889,-6.8889,-6.8889,-6.8889,-6.8889,-6.8889,-6.8889,-6.8889,-6.8889,-6.8889,-6.2651,-6.3159,-6.3869,-6.4106,-6.4072,-6.5696,-6.5865,-6.5222,-6.5797,-6.5561,-6.458,-6.4174,-6.4174,-6.4275,-6.3565,-6.3396,-6.3396,-6.299,-6.2685,-6.2516,-6.2415,-6.2302,-6.2268,-6.2189,-6.2302,-6.211,-6.211,-6.1756,-6.1317,-6.1201,-6.0586,-6.067,-6.1595,-6.1676,-6.1513,-6.067,-6.0075,-5.961,-5.8844,-5.8208,-5.7932,-5.7275,-5.6787,-5.7181,-5.7198,-5.783,-5.8468,-5.9014,-5.9561,-5.9895,-5.9986,-5.988,-5.9773,-5.9667,-5.956,-5.9315,-5.9315,-5.9207,-5.9099,-5.9207,-5.9207,-5.9357,-5.9697,-6.0386,-6.1074,-6.1732,-6.2361,-6.281,-6.3079,-6.3079,-6.3079,-6.3079,-6.3079,-6.3079,-6.3194,-6.3309,-6.3309,-6.3538,-6.3659,-6.3985,-6.4563,-6.5259,-6.601,-6.6852,-6.7634,-6.8325,-6.8623,-6.8889,-6.8889,-6.8889,-6.8889,-6.8889,-6.8889,-6.8889,-6.8889,-6.8889,-6.8889,-6.8889,-6.8889,-6.8889,-6.8889,-6.8889,-6.8889,-6.8889,-6.8889,-6.8889,-6.8889,-6.8889,-6.8889,-6.8889,-6.8889,-6.8889,-6.8889,-6.8889,-6.8889,-6.2821,-6.3531,-6.4072,-6.4241,-6.4377,-6.5831,-6.5764,-6.485,-6.5155,-6.4952,-6.4241,-6.3451,-6.3316,-6.3417,-6.283,-6.2413,-6.2683,-6.2413,-6.2018,-6.1951,-6.1951,-6.1837,-6.1642,-6.1561,-6.148,-6.1447,-6.1036,-6.0619,-6.0075,-5.987,-5.961,-5.9697,-6.0332,-6.0417,-6.0043,-5.8992,-5.836,-5.8177,-5.7559,-5.6927,-5.6765,-5.6342,-5.6183,-5.6627,-5.6858,-5.7523,-5.8368,-5.8942,-5.9244,-5.9546,-5.9667,-5.9529,-5.9422,-5.9315,-5.9315,-5.9207,-5.9099,-5.9099,-5.9099,-5.9099,-5.9099,-5.9189,-6.0027,-6.0595,-6.1134,-6.1852,-6.272,-6.2959,-6.3079,-6.3079,-6.3079,-6.3079,-6.3079,-6.3079,-6.3079,-6.3194,-6.3194,-6.3309,-6.3404,-6.3614,-6.4423,-6.5233,-6.5982,-6.6824,-6.7636,-6.8298,-6.8535,-6.8772,-6.8889,-6.8889,-6.8889,-6.8889,-6.8889,-6.8889,-6.8889,-6.8889,-6.8889,-6.8889,-6.8889,-6.8889,-6.8889,-6.8889,-6.8889,-6.8889,-6.8889,-6.8889,-6.8889,-6.8889,-6.8889,-6.8889,-6.8889,-6.8889,-6.8889,-6.8889,-6.8889,-6.2821,-6.3497,-6.3565,-6.4343,-6.5358,-6.5662,-6.5222,-6.4329,-6.4363,-6.4093,-6.3383,-6.2514,-6.2131,-6.2199,-6.1938,-6.181,-6.1728,-6.1662,-6.1235,-6.067,-6.0953,-6.0953,-6.0586,-6.0299,-6.0384,-6.0043,-5.9697,-5.9258,-5.8812,-5.8722,-5.8632,-5.8451,-5.8632,-5.8902,-5.8722,-5.79,-5.7465,-5.7276,-5.6409,-5.6047,-5.588,-5.5741,-5.5992,-5.6462,-5.7032,-5.7723,-5.8414,-5.8894,-5.9165,-5.9285,-5.9345,-5.9207,-5.9207,-5.9207,-5.9099,-5.9099,-5.9099,-5.9099,-5.9099,-5.9099,-5.9099,-5.9279,-6.0116,-6.0954,-6.1343,-6.2151,-6.2959,-6.3079,-6.3079,-6.3079,-6.3079,-6.3079,-6.3079,-6.3079,-6.3079,-6.3079,-6.3079,-6.3079,-6.3258,-6.3528,-6.4395,-6.5263,-6.6042,-6.6854,-6.7517,-6.8059,-6.8268,-6.8535,-6.8772,-6.8889,-6.8889,-6.8889,-6.8889,-6.8889,-6.8889,-6.8889,-6.8889,-6.8889,-6.8889,-6.8889,-6.8889,-6.8889,-6.8889,-6.8889,-6.8889,-6.8889,-6.8889,-6.8889,-6.8889,-6.8889,-6.8889,-6.8889,-6.8889,-6.8889,-6.8889,-6.2741,-6.329,-6.329,-6.3747,-6.4505,-6.4705,-6.4031,-6.2858,-6.269,-6.2636,-6.2401,-6.1904,-6.1756,-6.179,-6.1595,-6.135,-6.0787,-6.067,-6.0214,-5.9434,-5.9697,-5.9402,-5.9137,-5.9137,-5.9137,-5.8959,-5.851,-5.7993,-5.7621,-5.7434,-5.6927,-5.6541,-5.6831,-5.6927,-5.7086,-5.6638,-5.5918,-5.5918,-5.5581,-5.5411,-5.5441,-5.5801,-5.6209,-5.6735,-5.7363,-5.8022,-5.865,-5.9009,-5.9099,-5.9099,-5.9099,-5.9099,-5.9099,-5.9099,-5.9099,-5.9099,-5.9099,-5.9099,-5.9099,-5.9099,-5.9099,-5.9518,-6.0266,-6.1074,-6.1253,-6.2361,-6.2899,-6.3079,-6.3079,-6.3079,-6.3079,-6.3079,-6.3079,-6.3079,-6.3079,-6.3079,-6.3079,-6.3079,-6.3199,-6.3528,-6.4216,-6.5473,-6.637,-6.6762,-6.7366,-6.7819,-6.8059,-6.8298,-6.8535,-6.8772,-6.8889,-6.8889,-6.8889,-6.8889,-6.8889,-6.8889,-6.8889,-6.8889,-6.8889,-6.8889,-6.8889,-6.8889,-6.8889,-6.8889,-6.8889,-6.8889,-6.8889,-6.8889,-6.8889,-6.8889,-6.8889,-6.8889,-6.8889,-6.8889,-6.8889,-6.2502,-6.3026,-6.2825,-6.2963,-6.3434,-6.3717,-6.2978,-6.1843,-6.1709,-6.179,-6.187,-6.1709,-6.1628,-6.1465,-6.1103,-6.0736,-5.9989,-5.961,-5.8959,-5.8177,-5.8451,-5.8268,-5.8085,-5.7993,-5.79,-5.7714,-5.7339,-5.6896,-5.6347,-5.6183,-5.5918,-5.5551,-5.5179,-5.5819,-5.6017,-5.5651,-5.528,-5.5381,-5.531,-5.531,-5.5359,-5.5777,-5.6436,-5.7064,-5.7723,-5.8411,-5.889,-5.9099,-5.9099,-5.9099,-5.9099,-5.9099,-5.9099,-5.9099,-5.9099,-5.9099,-5.9099,-5.9099,-5.9099,-5.9099,-5.9219,-5.9578,-6.0535,-6.1044,-6.1343,-6.2331,-6.2869,-6.3079,-6.3079,-6.3079,-6.3079,-6.3079,-6.3079,-6.3079,-6.3079,-6.3079,-6.3079,-6.3079,-6.3258,-6.3617,-6.4336,-6.5592,-6.667,-6.6789,-6.7213,-6.7457,-6.7699,-6.7939,-6.8179,-6.8417,-6.8654,-6.8654,-6.8654,-6.8654,-6.8772,-6.8889,-6.8889,-6.8889,-6.8889,-6.8889,-6.8889,-6.8889,-6.8889,-6.8889,-6.8889,-6.8889,-6.8889,-6.8889,-6.8889,-6.8889,-6.8889,-6.8889,-6.8889,-6.8889,-6.8889,-6.2111,-6.258,-6.2011,-6.1981,-6.2466,-6.2582,-6.2264,-6.1662,-6.1628,-6.1628,-6.1628,-6.1268,-6.102,-6.0936,-6.0141,-5.9499,-5.9234,-5.8451,-5.7559,-5.7086,-5.7371,-5.7086,-5.6831,-5.6638,-5.6638,-5.6378,-5.6017,-5.5819,-5.528,-5.5451,-5.5381,-5.5179,-5.5179,-5.5381,-5.5381,-5.5381,-5.5209,-5.5209,-5.5209,-5.5269,-5.5508,-5.5987,-5.6675,-5.7334,-5.7962,-5.856,-5.8949,-5.9099,-5.9099,-5.9099,-5.9099,-5.9099,-5.9099,-5.9099,-5.9099,-5.9099,-5.9099,-5.9099,-5.9129,-5.9129,-5.9458,-5.9907,-6.0745,-6.1044,-6.1553,-6.2361,-6.2899,-6.3079,-6.3079,-6.3079,-6.3079,-6.3079,-6.3079,-6.3079,-6.3079,-6.3079,-6.3079,-6.3199,-6.3438,-6.3917,-6.4665,-6.5682,-6.664,-6.6999,-6.6999,-6.7121,-6.7457,-6.7578,-6.7819,-6.809,-6.8209,-6.8209,-6.8298,-6.8417,-6.8535,-6.8654,-6.8772,-6.8772,-6.8889,-6.8889,-6.8889,-6.8889,-6.8889,-6.8889,-6.8889,-6.8889,-6.8889,-6.8889,-6.8889,-6.8889,-6.8889,-6.8889,-6.8889,-6.8889,-6.8889,-6.1762,-6.1732,-6.1565,-6.1517,-6.1384,-6.0811,-6.0849,-6.1301,-6.0652,-6.0567,-6.1383,-5.9729,-5.9555,-5.9935,-5.9024,-5.8208,-5.7652,-5.7086,-5.6475,-5.6183,-5.6213,-5.5918,-5.575,-5.575,-5.5651,-5.5551,-5.5381,-5.5209,-5.5179,-5.5209,-5.5209,-5.5179,-5.5209,-5.5209,-5.5209,-5.5209,-5.5209,-5.5239,-5.5239,-5.5478,-5.5927,-5.6466,-5.7124,-5.7752,-5.8381,-5.889,-5.9039,-5.9099,-5.9099,-5.9099,-5.9099,-5.9099,-5.9099,-5.9099,-5.9099,-5.9099,-5.9099,-5.9129,-5.9189,-5.9548,-5.9907,-6.0326,-6.1134,-6.1672,-6.2061,-6.248,-6.3049,-6.3079,-6.3079,-6.3079,-6.3079,-6.3079,-6.3079,-6.3079,-6.3079,-6.3079,-6.3079,-6.3139,-6.3408,-6.4186,-6.4934,-6.5832,-6.6759,-6.6999,-6.6999,-6.6999,-6.7121,-6.7243,-6.7335,-6.7729,-6.785,-6.785,-6.797,-6.8059,-6.8179,-6.8298,-6.8417,-6.8505,-6.8654,-6.8772,-6.8772,-6.8772,-6.8889,-6.8889,-6.8889,-6.8889,-6.8889,-6.8889,-6.8889,-6.8889,-6.8889,-6.8889,-6.8889,-6.8889,-6.8889,-6.1417,-6.1219,-6.0853,-6.043,-5.9881,-5.9323,-5.9467,-5.9935,-5.929,-5.9467,-5.9903,-5.8722,-5.8483,-5.8754,-5.7993,-5.7181,-5.6735,-5.628,-5.575,-5.5451,-5.5209,-5.528,-5.5179,-5.5209,-5.528,-5.5209,-5.5209,-5.5209,-5.5209,-5.5209,-5.5209,-5.5209,-5.5209,-5.5209,-5.5209,-5.5209,-5.5209,-5.5299,-5.5478,-5.5807,-5.6316,-5.7004,-5.7693,-5.8171,-5.88,-5.9039,-5.9099,-5.9099,-5.9099,-5.9099,-5.9099,-5.9099,-5.9099,-5.9099,-5.9099,-5.9099,-5.9099,-5.9099,-5.9219,-5.9727,-6.0116,-6.0685,-6.1493,-6.2061,-6.248,-6.2839,-6.3019,-6.3079,-6.3079,-6.3079,-6.3079,-6.3079,-6.3079,-6.3079,-6.3079,-6.3079,-6.3079,-6.3079,-6.3647,-6.4425,-6.5233,-6.6101,-6.667,-6.6849,-6.6999,-6.6999,-6.6999,-6.7121,-6.7121,-6.7243,-6.7365,-6.7487,-6.7608,-6.7819,-6.7939,-6.8059,-6.8179,-6.8298,-6.8298,-6.8417,-6.8535,-6.8654,-6.8654,-6.8772,-6.8889,-6.8889,-6.8772,-6.8889,-6.8889,-6.8889,-6.8889,-6.8889,-6.8889,-6.8889,-6.8889,-6.1002,-6.0835,-5.9881,-5.8934,-5.8116,-5.7993,-5.79,-5.79,-5.7839,-5.7993,-5.8085,-5.79,-5.7746,-5.7746,-5.6896,-5.6541,-5.6085,-5.5651,-5.5481,-5.5209,-5.5209,-5.5209,-5.5209,-5.5209,-5.5209,-5.5209,-5.5209,-5.5209,-5.5209,-5.5209,-5.5209,-5.5209,-5.5209,-5.5209,-5.5209,-5.5209,-5.5269,-5.5538,-5.5927,-5.6346,-5.6615,-5.7334,-5.8171,-5.8321,-5.874,-5.9099,-5.9099,-5.9099,-5.9099,-5.9099,-5.9099,-5.9099,-5.9099,-5.9099,-5.9099,-5.9099,-5.9099,-5.9249,-5.9458,-5.9967,-6.0595,-6.1164,-6.1792,-6.2391,-6.281,-6.2959,-6.3049,-6.3079,-6.3079,-6.3079,-6.3079,-6.3079,-6.3079,-6.3079,-6.3079,-6.3079,-6.3079,-6.3378,-6.4126,-6.4874,-6.5682,-6.646,-6.6789,-6.6999,-6.6999,-6.6999,-6.6999,-6.6999,-6.6723,-6.6846,-6.6969,-6.6969,-6.7243,-6.7487,-6.7608,-6.7729,-6.785,-6.797,-6.797,-6.809,-6.8329,-6.8417,-6.8535,-6.8535,-6.8535,-6.8654,-6.8654,-6.8654,-6.8654,-6.8654,-6.8654,-6.8772,-6.8772,-6.8772,-6.8889,-5.9968,-5.9881,-5.8844,-5.7932,-5.6991,-5.6991,-5.6541,-5.5918,-5.5918,-5.6735,-5.7621,-5.6735,-5.6378,-5.6735,-5.6115,-5.5651,-5.5551,-5.5451,-5.528,-5.5209,-5.5209,-5.5209,-5.5209,-5.5209,-5.5209,-5.5209,-5.5209,-5.5209,-5.5209,-5.5209,-5.5209,-5.5209,-5.5239,-5.5299,-5.5299,-5.5299,-5.5568,-5.5927,-5.6526,-5.6885,-5.7064,-5.7633,-5.8291,-5.868,-5.9099,-5.9099,-5.9099,-5.9099,-5.9099,-5.9099,-5.9099,-5.9099,-5.9099,-5.9099,-5.9099,-5.9099,-5.9129,-5.9338,-5.9817,-6.0356,-6.1014,-6.1732,-6.2361,-6.275,-6.3019,-6.3049,-6.3079,-6.3079,-6.3079,-6.3079,-6.3079,-6.3079,-6.3079,-6.3079,-6.3079,-6.3079,-6.3109,-6.3827,-6.4545,-6.5173,-6.595,-6.655,-6.6879,-6.6999,-6.6999,-6.6999,-6.6999,-6.6846,-6.6198,-6.6073,-6.6446,-6.66,-6.6999,-6.7121,-6.7243,-6.7365,-6.7608,-6.7729,-6.7729,-6.785,-6.797,-6.8059,-6.8179,-6.8209,-6.8209,-6.8329,-6.8329,-6.8209,-6.8209,-6.8298,-6.8298,-6.8417,-6.8298,-6.8298,-6.8535,-5.8774,-5.8428,-5.7713,-5.6896,-5.6085,-5.6017,-5.5651,-5.528,-5.5209,-5.5819,-5.6638,-5.572,-5.5551,-5.6017,-5.5381,-5.5209,-5.5209,-5.5179,-5.5209,-5.5209,-5.5209,-5.5209,-5.5209,-5.5209,-5.5209,-5.5209,-5.5209,-5.5209,-5.5209,-5.5209,-5.5209,-5.5239,-5.5359,-5.5598,-5.5628,-5.5837,-5.6137,-5.6585,-5.7214,-5.7483,-5.7603,-5.8201,-5.865,-5.9069,-5.9099,-5.9099,-5.9099,-5.9099,-5.9099,-5.9099,-5.9099,-5.9099,-5.9099,-5.9099,-5.9099,-5.9099,-5.9189,-5.9398,-6.0057,-6.0745,-6.1433,-6.2091,-6.269,-6.3019,-6.3049,-6.3079,-6.3079,-6.3079,-6.3079,-6.3079,-6.3079,-6.3079,-6.3079,-6.3079,-6.2963,-6.2933,-6.3058,-6.3565,-6.3831,-6.3911,-6.501,-6.6238,-6.66,-6.6723,-6.66,-6.5794,-6.6073,-6.5948,-6.5416,-6.5036,-6.5543,-6.6073,-6.6322,-6.6723,-6.7091,-6.7121,-6.7243,-6.7365,-6.7487,-6.7608,-6.7608,-6.7729,-6.785,-6.785,-6.797,-6.809,-6.809,-6.797,-6.797,-6.809,-6.809,-6.809,-6.797,-6.797,-6.8209,-5.7493,-5.6869,-5.6584,-5.6017,-5.528,-5.5179,-5.5179,-5.5209,-5.5209,-5.5209,-5.5381,-5.528,-5.5209,-5.5209,-5.5209,-5.5209,-5.5209,-5.5209,-5.5209,-5.5209,-5.5209,-5.5209,-5.5209,-5.5209,-5.5209,-5.5209,-5.5209,-5.5209,-5.5209,-5.5209,-5.5239,-5.5359,-5.5718,-5.6166,-5.6346,-5.6705,-5.7034,-5.7304,-5.7723,-5.8082,-5.8441,-5.877,-5.8979,-5.9099,-5.9099,-5.9099,-5.9099,-5.9099,-5.9099,-5.9099,-5.9099,-5.9099,-5.9099,-5.9099,-5.9099,-5.9099,-5.9099,-5.9548,-6.0206,-6.0805,-6.1523,-6.2181,-6.2635,-6.2788,-6.2817,-6.2817,-6.2817,-6.2963,-6.2963,-6.3079,-6.3079,-6.2963,-6.2963,-6.2817,-6.2701,-6.2204,-6.2498,-6.3087,-6.3134,-6.2993,-6.421,-6.5647,-6.5794,-6.6073,-6.5668,-6.488,-6.4624,-6.4496,-6.4239,-6.3822,-6.3952,-6.4624,-6.5261,-6.5794,-6.6723,-6.6969,-6.7121,-6.7121,-6.7243,-6.7243,-6.7365,-6.7365,-6.7487,-6.7729,-6.7699,-6.7729,-6.7729,-6.7608,-6.7729,-6.785,-6.7729,-6.7608,-6.7608,-6.7608,-6.7729,-5.6383,-5.5569,-5.5521,-5.535,-5.5179,-5.5209,-5.5209,-5.5209,-5.5209,-5.5209,-5.5209,-5.5209,-5.5209,-5.5209,-5.5209,-5.5209,-5.5209,-5.5209,-5.5209,-5.5209,-5.5209,-5.5209,-5.5209,-5.5209,-5.5209,-5.5209,-5.5209,-5.5209,-5.5209,-5.5209,-5.5209,-5.5239,-5.5897,-5.6226,-5.6316,-5.6825,-5.7513,-5.7842,-5.8082,-5.8381,-5.88,-5.9009,-5.9069,-5.9099,-5.9099,-5.9099,-5.9099,-5.9099,-5.9099,-5.9099,-5.9099,-5.9099,-5.9099,-5.9099,-5.9099,-5.9159,-5.9159,-5.9847,-6.0475,-6.079,-6.1362,-6.2255,-6.2438,-6.1939,-6.1821,-6.1703,-6.1939,-6.2555,-6.2555,-6.2701,-6.2701,-6.2585,-6.2585,-6.2321,-6.2087,-6.0894,-6.0422,-6.1689,-6.2476,-6.2744,-6.3405,-6.3823,-6.3562,-6.3822,-6.3822,-6.33,-6.3169,-6.3037,-6.2347,-6.2242,-6.2375,-6.3169,-6.3952,-6.5543,-6.6723,-6.6969,-6.6999,-6.6999,-6.6999,-6.7121,-6.7121,-6.7121,-6.7243,-6.7365,-6.7365,-6.7243,-6.7243,-6.7365,-6.7365,-6.7365,-6.7243,-6.7121,-6.7243,-6.7365,-6.7365]}]]